[[{"header":{"parameterUnit":"m.s-1","parameterCategory":1,"la1":31.0,"la2":29.5877,"lo1":-88.7671,"lo2":-86.6584,"dx":0.0162,"dy":0.0185,"nx":115,"ny":88,"refTime":"2022-12-06T06:00:00:Z","depth":0,"parameterNumber":2,"parameterNumberName":"U-component_of_WINDS"},"data":[0.0,0.0,0.0,0.0,0.0,0.0,0.0,0.0,0.0,0.0,0.0,0.0,0.0,0.0,0.0,0.0,0.0,0.0,0.0,0.0,0.0,0.0,0.0,0.0,0.0,0.0,0.0,0.0,0.0,0.0,0.0,0.0,0.0,0.0,0.0,0.0,0.0,0.0,0.0,0.0,0.0,0.0,0.0,0.0,0.0,0.0,0.0,0.0,0.0,0.0,0.0,0.0,0.0,0.0,0.0,0.0,0.0,0.0,0.0,0.0,0.0,0.0,0.0,0.0,0.0,0.0,0.0,0.0,0.0,0.0,0.0,0.0,0.0,0.0,0.0,0.0,0.0,0.0,0.0,0.0,0.0,0.0,0.0,0.0,0.0,0.0,0.0,0.0,0.0,0.0,0.0,0.0,0.0,0.0,0.0,0.0,0.0,0.0,0.0,0.0,0.0,0.0,0.0,0.0,0.0,0.0,0.0,0.0,0.0,0.0,0.0,0.0,0.0,0.0,0.0,0.0,0.0,0.0,0.0,0.0,0.0,0.0,0.0,0.0,0.0,0.0,0.0,0.0,0.0,0.0,0.0,0.0,0.0,0.0,0.0,0.0,0.0,0.0,0.0,0.0,0.0,0.0,0.0,0.0,0.0,0.0,0.0,0.0,0.0,0.0,0.0,0.0,0.0,0.0,0.0,0.0,0.0,0.0,0.0,0.0,0.0,0.0,0.0,0.0,0.0,0.0,0.0,0.0,0.0,0.0,0.0,0.0,0.0,0.0,0.0,0.0,0.0,0.0,0.0,0.0,0.0,0.0,0.0,0.0,0.0,0.0,0.0,0.0,0.0,0.0,0.0,0.0,0.0,0.0,0.0,0.0,0.0,0.0,0.0,0.0,0.0,0.0,0.0,0.0,0.0,0.0,0.0,0.0,0.0,0.0,0.0,0.0,0.0,0.0,0.0,0.0,0.0,0.0,0.0,0.0,0.0,0.0,0.0,0.0,0.0,0.0,0.0,0.0,0.0,0.0,0.0,0.0,0.0,0.0,0.0,0.0,0.0,0.0,0.0,0.0,0.0,0.0,0.0,0.0,0.0,0.0,0.0,0.0,0.0,0.0,0.0,0.0,0.0,0.0,0.0,0.0,0.0,0.0,0.0,0.0,0.0,0.0,0.0,0.0,0.0,0.0,0.0,0.0,0.0,0.0,0.0,0.0,0.0,0.0,0.0,0.0,0.0,0.0,0.0,0.0,0.0,0.0,0.0,0.0,0.0,0.0,0.0,0.0,0.0,0.0,0.0,0.0,0.0,0.0,0.0,0.0,0.0,0.0,0.0,0.0,0.0,0.0,0.0,0.0,0.0,0.0,0.0,0.0,0.0,0.0,0.0,0.0,0.0,0.0,0.0,0.0,0.0,0.0,0.0,0.0,0.0,0.0,0.0,0.0,0.0,0.0,0.0,0.0,0.0,0.0,0.0,0.0,0.0,0.0,0.0,0.0,0.0,0.0,0.0,0.0,0.0,0.0,0.0,0.0,0.0,0.0,0.0,0.0,0.0,0.0,0.0,0.0,0.0,0.0,0.0,0.0,0.0,0.0,0.0,0.0,0.0,0.0,0.0,0.0,0.0,0.0,0.0,0.0,0.0,0.0,0.0,0.0,0.0,0.0,0.0,0.0,0.0,0.0,0.0,0.0,0.0,0.0,0.0,0.0,0.0,0.0,0.0,0.0,0.0,0.0,0.0,0.0,0.0,0.0,0.0,0.0,0.0,0.0,0.0,0.0,0.0,0.0,0.0,0.0,0.0,0.0,0.0,0.0,0.0,0.0,0.0,0.0,0.0,0.0,0.0,0.0,0.0,0.0,0.0,0.0,0.0,0.0,0.0,0.0,0.0,0.0,0.0,0.0,0.0,0.0,0.0,0.0,0.0,0.0,0.0,0.0,0.0,0.0,0.0,0.0,0.0,0.0,0.0,0.0,0.0,0.0,0.0,0.0,0.0,0.0,0.0,0.0,0.0,0.0,0.0,0.0,0.0,0.0,0.0,0.0,0.0,0.0,0.0,0.0,0.0,0.0,0.0,0.0,0.0,0.0,0.0,0.0,0.0,0.0,0.0,0.0,0.0,0.0,0.0,0.0,0.0,0.0,0.0,0.0,0.0,0.0,0.0,0.0,0.0,0.0,0.0,0.0,0.0,0.0,0.0,0.0,0.0,0.0,0.0,0.0,0.0,0.0,0.0,0.0,0.0,0.0,0.0,0.0,0.0,0.0,0.0,0.0,0.0,0.0,0.0,0.0,0.0,0.0,0.0,0.0,0.0,0.0,0.0,0.0,0.0,0.0,0.0,0.0,0.0,0.0,0.0,0.0,0.0,0.0,0.0,0.0,0.0,0.0,0.0,0.0,0.0,0.0,0.0,0.0,0.0,0.0,0.0,0.0,0.0,0.0,0.0,0.0,0.0,0.0,0.0,0.0,0.0,0.0,0.0,0.0,0.0,0.0,0.0,0.0,0.0,0.0,0.0,0.0,0.0,0.0,0.0,0.0,0.0,0.0,0.0,0.0,0.0,0.0,0.0,0.0,0.0,0.0,0.0,0.0,0.0,0.0,0.0,0.0,0.0,0.0,0.0,0.0,0.0,0.0,0.0,0.0,0.0,0.0,0.0,0.0,0.0,0.0,0.0,0.0,0.0,0.0,0.0,0.0,0.0,0.0,0.0,0.0,0.0,0.0,0.0,0.0,0.0,0.0,0.0,0.0,0.0,0.0,0.0,0.0,0.0,0.0,0.0,0.0,0.0,0.0,0.0,0.0,0.0,0.0,0.0,0.0,0.0,0.0,0.0,0.0,0.0,0.0,0.0,0.0,0.0,0.0,0.0,0.0,0.0,0.0,0.0,0.0,0.0,0.0,0.0,0.0,0.0,0.0,0.0,0.0,0.0,0.0,0.0,0.0,0.0,0.0,0.0,0.0,0.0,0.0,0.0,0.0,0.0,0.0,0.0,0.0,0.0,0.0,0.0,0.0,0.0,0.0,0.0,0.0,0.0,0.0,0.0,0.0,0.0,0.0,0.0,0.0,0.0,0.0,0.0,0.0,0.0,0.0,0.0,0.0,0.0,0.0,0.0,0.0,0.0,0.0,0.0,0.0,0.0,0.0,0.0,0.0,0.0,0.0,0.0,0.0,0.0,0.0,0.0,0.0,0.0,0.0,0.0,0.0,0.0,0.0,0.0,0.0,0.0,0.0,0.0,0.0,0.0,0.0,0.0,0.0,0.0,0.0,0.0,0.0,0.0,0.0,0.0,0.0,0.0,0.0,0.0,0.0,0.0,0.0,0.0,0.0,0.0,0.0,0.0,0.0,0.0,0.0,0.0,0.0,0.0,0.0,0.0,0.0,0.0,0.0,0.0,0.0,0.0,0.0,0.0,0.0,0.0,0.0,0.0,0.0,0.0,0.0,0.0,0.0,0.0,0.0,0.0,0.0,0.0,0.0,0.0,0.0,0.0,0.0,0.0,0.0,0.0,0.0,0.0,0.0,0.0,0.0,0.0,0.0,0.0,0.0,0.0,0.0,0.0,0.0,0.0,0.0,0.0,0.0,0.0,0.0,0.0,0.0,0.0,0.0,0.0,0.0,0.0,0.0,0.0,0.0,0.0,0.0,0.0,0.0,0.0,0.0,0.0,0.0,0.0,0.0,0.0,0.0,0.0,0.0,0.0,0.0,0.0,0.0,0.0,0.0,0.0,0.0,0.0,0.0,0.0,0.0,0.0,0.0,0.0,0.0,0.0,0.0,0.0,0.0,0.0,0.0,0.0,0.0,0.0,0.0,0.0,0.0,0.0,0.0,0.0,0.0,0.0,0.0,0.0,0.0,0.0,0.0,0.0,0.0,0.0,0.0,0.0,0.0,0.0,0.0,0.0,0.0,0.0,0.0,0.0,0.0,0.0,0.0,0.0,0.0,0.0,0.0,0.0,0.0,0.0,0.0,0.0,0.0,0.0,0.0,0.0,0.0,0.0,0.0,0.0,0.0,0.0,0.0,0.0,0.0,0.0,0.0,0.0,0.0,0.0,0.0,0.0,0.0,0.0,0.0,0.0,0.0,0.0,0.0,0.0,0.0,0.0,0.0,0.0,0.0,0.0,0.0,0.0,0.0,0.0,0.0,0.0,0.0,0.0,0.0,0.0,0.0,0.0,0.0,0.0,0.0,0.0,0.0,0.0,0.0,0.0,0.0,0.0,0.0,0.0,0.0,0.0,0.0,0.0,0.0,-0.7569,0.0,0.0,0.0,-0.5331,0.0,0.0,0.0,0.0,0.0,0.0,0.0,0.0,0.0,0.0,0.0,0.0,0.0,0.0,0.0,0.0,0.0,0.0,0.0,0.0,0.0,0.0,0.0,0.0,0.0,0.0,0.0,0.0,0.0,0.0,0.0,0.0,0.0,0.0,0.0,0.0,0.0,0.0,0.0,0.0,0.0,0.0,0.0,0.0,0.0,0.0,0.0,0.0,0.0,0.0,0.0,0.0,0.0,0.0,0.0,0.0,0.0,0.0,0.0,0.0,0.0,0.0,0.0,0.0,0.0,0.0,0.0,0.0,0.0,0.0,0.0,0.0,0.0,0.0,0.0,0.0,0.0,0.0,0.0,0.0,0.0,0.0,0.0,0.0,0.0,0.0,0.0,0.0,0.0,0.0,0.0,0.0,0.0,0.0,0.0,0.0,0.0,0.0,0.0,0.0,0.0,0.0,0.0,0.0,0.0,0.0,0.0,0.0,0.0,0.0,-0.7244,-0.6447,-0.6821,-0.6417,-0.5137,0.0,0.0,0.0,0.0,0.0,0.0,0.0,0.0,0.0,0.0,0.0,0.0,0.0,0.0,0.0,0.0,0.0,0.0,0.0,0.0,0.0,0.0,0.0,0.0,0.0,0.0,0.0,0.0,0.0,0.0,0.0,0.0,0.0,0.0,0.0,0.0,0.0,0.0,0.0,0.0,0.0,0.0,0.0,0.0,0.0,0.0,0.0,0.0,0.0,0.0,0.0,0.0,0.0,0.0,0.0,0.0,0.0,0.0,0.0,0.0,0.0,0.0,0.0,0.0,0.0,0.0,0.0,0.0,0.0,0.0,0.0,0.0,0.0,0.0,0.0,0.0,0.0,0.0,0.0,0.0,0.0,0.0,0.0,0.0,0.0,0.0,0.0,0.0,0.0,0.0,0.0,0.0,0.0,0.0,0.0,0.0,0.0,0.0,0.0,0.0,0.0,0.0,0.0,0.0,0.0,0.0,0.0,0.0,0.0,0.0,0.0,0.0,-0.6971,-0.6651,-0.5383,0.0,0.0,0.0,0.0,0.0,0.0,0.0,0.0,0.0,0.0,0.0,0.0,0.0,0.0,0.0,0.0,0.0,0.0,0.0,0.0,0.0,0.0,0.0,0.0,0.0,0.0,0.0,0.0,0.0,0.0,0.0,0.0,0.0,0.0,0.0,0.0,0.0,0.0,0.0,0.0,0.0,0.0,0.0,0.0,0.0,0.0,0.0,0.0,0.0,0.0,0.0,0.0,0.0,0.0,0.0,0.0,0.0,0.0,0.0,0.0,0.0,0.0,0.0,0.0,0.0,0.0,0.0,0.0,0.0,0.0,0.0,0.0,0.0,0.0,0.0,0.0,0.0,0.0,0.0,0.0,0.0,0.0,0.0,0.0,0.0,0.0,0.0,0.0,0.0,0.0,0.0,0.0,0.0,0.0,0.0,0.0,0.0,0.0,0.0,0.0,0.0,0.0,0.0,0.0,0.0,0.0,0.0,0.0,0.0,0.0,-0.5642,-0.6297,-0.6335,0.0,-0.6169,0.0,0.0,0.0,0.0,0.0,0.0,0.0,0.0,0.0,0.0,0.0,0.0,0.0,0.0,0.0,0.0,0.0,0.0,0.0,0.0,0.0,0.0,0.0,0.0,0.0,0.0,0.0,0.0,0.0,0.0,0.0,0.0,0.0,0.0,0.0,0.0,0.0,0.0,0.0,0.0,0.0,0.0,0.0,0.0,0.0,0.0,0.0,0.0,0.0,0.0,0.0,0.0,0.0,0.0,0.0,0.0,0.0,0.0,0.0,0.0,0.0,0.0,0.0,0.0,0.0,0.0,0.0,0.0,0.0,0.0,0.0,0.0,0.0,0.0,0.0,0.0,0.0,0.0,0.0,0.0,0.0,0.0,0.0,0.0,0.0,0.0,0.0,0.0,0.0,0.0,0.0,0.0,0.0,0.0,0.0,0.0,0.0,0.0,0.0,0.0,0.0,0.0,0.0,0.0,0.0,0.0,0.0,0.0,0.0,0.0,-0.5974,-0.6292,-0.6232,-0.6245,0.0,0.0,0.0,0.0,0.0,0.0,0.0,0.0,0.0,0.0,0.0,0.0,0.0,0.0,0.0,0.0,0.0,0.0,0.0,0.0,0.0,0.0,0.0,0.0,0.0,0.0,0.0,0.0,0.0,0.0,0.0,0.0,0.0,0.0,0.0,0.0,0.0,0.0,0.0,0.0,0.0,0.0,0.0,0.0,0.0,0.0,0.0,0.0,0.0,0.0,0.0,0.0,0.0,0.0,0.0,0.0,0.0,0.0,0.0,0.0,0.0,0.0,0.0,0.0,0.0,0.0,0.0,0.0,0.0,0.0,0.0,0.0,0.0,0.0,0.0,0.0,0.0,0.0,0.0,0.0,0.0,0.0,0.0,0.0,0.0,0.0,0.0,0.0,0.0,0.0,0.0,0.0,0.0,0.0,0.0,0.0,0.0,0.0,0.0,0.0,0.0,0.0,0.0,0.0,0.0,0.0,0.0,0.0,0.0,0.0,-0.6137,-0.657,-0.6833,-0.673,-0.6682,-0.6731,0.0,0.0,0.0,0.0,0.0,0.0,0.0,0.0,0.0,0.0,0.0,0.0,0.0,0.0,0.0,0.0,0.0,0.0,0.0,0.0,0.0,0.0,0.0,0.0,0.0,0.0,0.0,0.0,0.0,0.0,0.0,0.0,0.0,0.0,0.0,0.0,0.0,0.0,0.0,0.0,0.0,0.0,0.0,0.0,0.0,0.0,0.0,0.0,0.0,0.0,0.0,0.0,0.0,0.0,0.0,0.0,0.0,0.0,0.0,0.0,0.0,0.0,0.0,0.0,0.0,0.0,0.0,0.0,0.0,0.0,0.0,0.0,0.0,0.0,0.0,0.0,0.0,0.0,0.0,0.0,0.0,0.0,0.0,0.0,0.0,0.0,0.0,0.0,0.0,0.0,0.0,0.0,0.0,0.0,0.0,0.0,0.0,0.0,0.0,0.0,0.0,0.0,0.0,0.0,0.0,0.0,0.0,0.0,-0.6615,-0.6751,-0.7236,-0.8109,-0.7941,-0.7637,0.0,0.0,0.0,0.0,0.0,0.0,0.0,0.0,0.0,0.0,0.0,0.0,0.0,0.0,0.0,0.0,0.0,0.0,0.0,0.0,0.0,0.0,0.0,0.0,0.0,0.0,0.0,0.0,0.0,0.0,0.0,0.0,0.0,0.0,0.0,0.0,0.0,0.0,0.0,0.0,0.0,0.0,0.0,0.0,0.0,0.0,0.0,0.0,0.0,0.0,0.0,0.0,0.0,0.0,0.0,0.0,0.0,0.0,0.0,0.0,0.0,0.0,0.0,0.0,0.0,0.0,0.0,0.0,0.0,0.0,0.0,0.0,0.0,0.0,0.0,0.0,0.0,0.0,0.0,0.0,0.0,0.0,0.0,0.0,0.0,0.0,0.0,0.0,0.0,0.0,0.0,0.0,0.0,0.0,0.0,0.0,0.0,0.0,0.0,0.0,0.0,0.0,0.0,0.0,0.0,0.0,0.0,0.0,0.0,-0.4099,-0.618,-0.7255,-0.7198,-0.6495,-0.6877,0.0,0.0,0.0,0.0,0.0,0.0,0.0,0.0,0.0,0.0,0.0,0.0,0.0,0.0,0.0,0.0,0.0,0.0,0.0,0.0,0.0,0.0,0.0,0.0,0.0,0.0,0.0,0.0,0.0,0.0,0.0,0.0,0.0,0.0,0.0,0.0,0.0,0.0,0.0,0.0,0.0,0.0,0.0,0.0,0.0,0.0,0.0,0.0,0.0,0.0,0.0,0.0,0.0,0.0,0.0,0.0,0.0,0.0,0.0,0.0,0.0,0.0,0.0,0.0,0.0,0.0,0.0,0.0,0.0,0.0,0.0,0.0,0.0,0.0,0.0,0.0,0.0,0.0,0.0,0.0,0.0,0.0,0.0,0.0,0.0,0.0,0.0,0.0,0.0,0.0,0.0,0.0,0.0,0.0,0.0,0.0,0.0,0.0,0.0,0.0,0.0,0.0,0.0,0.0,0.0,0.0,0.0,0.0,0.0,-0.3428,-0.5949,-0.6945,-0.6167,-0.6413,-0.6482,0.0,0.0,0.0,0.0,0.0,0.0,0.0,0.0,0.0,0.0,0.0,0.0,0.0,0.0,0.0,0.0,0.0,0.0,0.0,0.0,0.0,0.0,0.0,0.0,0.0,0.0,0.0,0.0,0.0,0.0,0.0,0.0,0.0,0.0,0.0,0.0,0.0,0.0,0.0,0.0,0.0,0.0,0.0,0.0,0.0,0.0,0.0,0.0,0.0,0.0,0.0,0.0,0.0,0.0,0.0,0.0,0.0,0.0,0.0,0.0,0.0,0.0,0.0,0.0,0.0,0.0,0.0,0.0,0.0,0.0,0.0,0.0,0.0,0.0,0.0,0.0,0.0,0.0,0.0,0.0,0.0,0.0,0.0,0.0,0.0,0.0,0.0,0.0,0.0,0.0,0.0,0.0,0.0,0.0,0.0,0.0,0.0,0.0,0.0,0.0,0.0,0.0,0.0,0.0,0.0,0.0,0.0,0.0,-0.506,-0.51,-0.6266,-0.6455,-0.5267,-0.7732,-0.6428,0.0,0.0,0.0,0.0,0.0,0.0,0.0,0.0,0.0,0.0,0.0,0.0,0.0,0.0,0.0,0.0,0.0,0.0,0.0,0.0,0.0,0.0,0.0,0.0,0.0,0.0,0.0,0.0,0.0,0.0,0.0,0.0,0.0,0.0,0.0,0.0,0.0,0.0,0.0,0.0,0.0,0.0,0.0,0.0,0.0,0.0,0.0,0.0,0.0,0.0,0.0,0.0,0.0,0.0,0.0,0.0,0.0,0.0,0.0,0.0,0.0,0.0,0.0,0.0,0.0,0.0,0.0,0.0,0.0,0.0,0.0,0.0,0.0,0.0,0.0,0.0,0.0,0.0,0.0,0.0,0.0,0.0,0.0,0.0,0.0,0.0,0.0,0.0,0.0,0.0,0.0,0.0,0.0,0.0,0.0,0.0,0.0,0.0,0.0,0.0,0.0,0.0,0.0,0.0,0.0,0.0,0.0,0.0,0.0,-0.5155,-0.7712,-0.8478,-0.7143,-0.4419,-0.3083,0.0,0.0,0.0,0.0,0.0,0.0,0.0,0.0,0.0,0.0,0.0,0.0,0.0,0.0,0.0,0.0,0.0,0.0,0.0,0.0,0.0,0.0,0.0,0.0,0.0,0.0,0.0,0.0,0.0,0.0,0.0,0.0,0.0,0.0,0.0,0.0,0.0,0.0,0.0,0.0,0.0,0.0,0.0,0.0,0.0,0.0,0.0,0.0,0.0,0.0,0.0,0.0,0.0,0.0,0.0,0.0,0.0,0.0,0.0,0.0,0.0,0.0,0.0,0.0,0.0,0.0,0.0,0.0,0.0,0.0,0.0,0.0,0.0,0.0,0.0,0.0,0.0,0.0,0.0,0.0,0.0,0.0,0.0,0.0,0.0,0.0,0.0,0.0,0.0,0.0,0.0,0.0,0.0,0.0,0.0,0.0,0.0,0.0,0.0,0.0,0.0,0.0,0.0,0.0,0.0,0.0,0.0,0.0,0.0,-0.6584,-0.902,-0.9874,-0.8868,-0.5106,-0.3298,-0.375,0.0,0.0,0.0,0.0,0.0,0.0,0.0,0.0,0.0,0.0,0.0,0.0,0.0,0.0,0.0,0.0,0.0,0.0,0.0,0.0,0.0,0.0,0.0,0.0,0.0,0.0,0.0,0.0,0.0,0.0,0.0,0.0,0.0,0.0,0.0,0.0,0.0,0.0,0.0,0.0,0.0,0.0,0.0,0.0,0.0,0.0,0.0,0.0,0.0,0.0,0.0,0.0,0.0,0.0,0.0,0.0,0.0,0.0,0.0,0.0,0.0,0.0,0.0,0.0,0.0,0.0,0.0,0.0,0.0,0.0,0.0,0.0,0.0,0.0,0.0,0.0,0.0,0.0,0.0,0.0,0.0,0.0,0.0,0.0,0.0,0.0,0.0,0.0,0.0,0.0,0.0,0.0,0.0,0.0,0.0,0.0,0.0,0.0,0.0,0.0,0.0,0.0,0.0,0.0,0.0,0.0,0.0,0.0,-0.8846,-1.0162,-1.0618,-1.0077,-0.8864,-0.645,0.0,0.0,0.0,0.0,0.0,0.0,0.0,0.0,0.0,0.0,0.0,0.0,0.0,0.0,0.0,0.0,0.0,0.0,0.0,0.0,0.0,0.0,0.0,0.0,0.0,0.0,0.0,0.0,0.0,0.0,0.0,0.0,0.0,0.0,0.0,0.0,0.0,0.0,0.0,0.0,0.0,0.0,0.0,0.0,0.0,0.0,0.0,0.0,0.0,0.0,0.0,0.0,0.0,0.0,0.0,0.0,0.0,0.0,0.0,0.0,0.0,0.0,0.0,0.0,0.0,0.0,0.0,0.0,0.0,0.0,0.0,0.0,0.0,0.0,0.0,0.0,0.0,0.0,0.0,0.0,0.0,0.0,0.0,0.0,0.0,0.0,0.0,0.0,0.0,0.0,0.0,0.0,0.0,0.0,0.0,0.0,0.0,0.0,0.0,0.0,0.0,0.0,0.0,0.0,0.0,0.0,0.0,0.0,0.0,-0.9429,-1.0848,-1.1104,-1.0056,-0.8959,-0.7385,0.0,0.0,0.0,0.0,0.0,0.0,0.0,0.0,0.0,0.0,0.0,0.0,0.0,0.0,0.0,0.0,0.0,0.0,0.0,0.0,0.0,0.0,0.0,0.0,0.0,0.0,0.0,0.0,0.0,0.0,0.0,0.0,0.0,0.0,0.0,0.0,0.0,0.0,0.0,0.0,0.0,0.0,0.0,0.0,0.0,0.0,0.0,0.0,0.0,0.0,0.0,0.0,0.0,0.0,0.0,0.0,0.0,0.0,0.0,0.0,0.0,0.0,0.0,0.0,0.0,0.0,0.0,0.0,0.0,0.0,0.0,0.0,0.0,0.0,0.0,0.0,0.0,0.0,0.0,0.0,0.0,0.0,0.0,0.0,0.0,0.0,0.0,0.0,0.0,0.0,0.0,0.0,0.0,0.0,0.0,0.0,0.0,0.0,0.0,0.0,0.0,0.0,0.0,0.0,0.0,0.0,0.0,0.0,-0.8883,-0.9934,-1.1276,-1.1609,-1.0856,-0.9675,-0.8396,0.0,0.0,0.0,0.0,0.0,0.0,0.0,0.0,0.0,0.0,0.0,0.0,0.0,0.0,0.0,0.0,0.0,0.0,0.0,0.0,0.0,0.0,0.0,0.0,0.0,0.0,0.0,0.0,0.0,0.0,0.0,0.0,0.0,0.0,0.0,0.0,0.0,0.0,0.0,0.0,0.0,0.0,0.0,0.0,0.0,0.0,0.0,0.0,0.0,0.0,0.0,0.0,0.0,0.0,0.0,0.0,0.0,0.0,0.0,0.0,0.0,0.0,0.0,0.0,0.0,0.0,0.0,0.0,0.0,0.0,0.0,0.0,0.0,0.0,0.0,0.0,0.0,0.0,0.0,0.0,0.0,0.0,0.0,0.0,0.0,0.0,0.0,0.0,0.0,0.0,0.0,0.0,0.0,0.0,0.0,0.0,0.0,0.0,0.0,0.0,0.0,0.0,0.0,0.0,0.0,0.0,0.0,0.0,-0.8705,-1.0374,-1.1447,-1.1998,-1.1916,-1.0582,-0.9241,0.0,0.0,0.0,0.0,0.0,0.0,0.0,0.0,0.0,0.0,0.0,0.0,0.0,0.0,0.0,0.0,0.0,0.0,0.0,0.0,0.0,0.0,0.0,0.0,0.0,0.0,0.0,0.0,0.0,0.0,0.0,0.0,0.0,0.0,0.0,0.0,0.0,0.0,0.0,0.0,0.0,0.0,0.0,0.0,0.0,0.0,0.0,0.0,0.0,0.0,0.0,0.0,0.0,0.0,0.0,0.0,0.0,0.0,0.0,0.0,0.0,0.0,0.0,0.0,0.0,0.0,0.0,0.0,0.0,0.0,0.0,0.0,0.0,0.0,0.0,0.0,0.0,0.0,0.0,0.0,0.0,0.0,0.0,0.0,0.0,0.0,0.0,0.0,0.0,0.0,0.0,0.0,0.0,0.0,0.0,0.0,0.0,0.0,0.0,0.0,0.0,0.0,0.0,0.0,0.0,0.0,0.0,0.0,-0.8713,-1.0343,-1.1092,-1.1564,-1.1753,-1.0192,-0.8955,0.0,0.0,0.0,0.0,0.0,0.0,0.0,0.0,0.0,0.0,0.0,0.0,0.0,0.0,0.0,0.0,0.0,0.0,0.0,0.0,0.0,0.0,0.0,0.0,0.0,0.0,0.0,0.0,0.0,0.0,0.0,0.0,0.0,0.0,0.0,0.0,0.0,0.0,0.0,0.0,0.0,0.0,0.0,0.0,0.0,0.0,0.0,0.0,-0.0603,0.0,0.0,0.0,0.0,0.0,0.0,0.0,0.0,0.0,0.0,0.0,0.0,0.0,0.0,0.0,0.0,0.0,0.0,0.0,0.0,0.0,0.0,0.0,0.0,0.0,0.0,0.0,0.0,0.0,0.0,0.0,0.0,0.0,0.0,0.0,0.0,0.0,0.0,0.0,0.0,0.0,0.0,0.0,0.0,0.0,0.0,0.0,0.0,0.0,0.0,0.0,0.0,0.0,0.0,0.0,0.0,0.0,0.0,0.0,-0.8557,-1.0294,-1.0913,-1.123,-1.1235,-1.0157,-0.9067,0.0,0.0,0.0,0.0,0.0,0.0,0.0,0.0,0.0,0.0,0.0,0.0,0.0,0.0,0.0,0.0,0.0,0.0,0.0,0.0,0.0,0.0,0.0,0.0,0.0,0.0,0.0,0.0,0.0,0.0,0.0,0.0,0.0,0.0,0.0,0.0,0.0,0.0,0.0,0.0,0.0,0.0,0.0,0.0,0.0,0.0,0.0,0.0,0.0,0.0,0.0,0.0,0.0,0.0,0.0,0.0,0.0,0.0,0.0,0.0,0.0,0.0,0.0,0.0,0.0,0.0,0.0,0.0,0.0,0.0,0.0,0.0,0.0,0.0,0.0,0.0,0.0,0.0,0.0,0.0,0.0,0.0,0.0,0.0,0.0,0.0,0.0,0.0,0.0,0.0,0.0,0.0,0.0,0.0,0.0,0.0,0.0,0.0,0.0,0.0,0.0,0.0,0.0,0.0,0.0,0.0,0.0,-0.7106,-0.826,-1.0129,-1.0673,-1.0845,-1.0681,-1.0114,-0.9126,-0.7694,0.0,0.0,0.0,0.0,0.0,0.0,0.0,0.0,0.0,0.0,0.0,0.0,0.0,0.0,0.0,0.0,0.0,0.0,0.0,0.0,0.0,0.0,0.0,0.0,0.0,0.0,0.0,0.0,0.0,0.0,0.0,0.0,0.0,0.0,0.0,0.0,0.0,0.0,-0.1172,-0.1276,0.0,0.0,0.0,0.0,0.0,0.0,0.0,0.0,-0.0767,0.0,0.0,0.0,0.0,0.0,0.0,0.0,0.0,0.0,0.0,0.0,0.0,0.0,0.0,0.0,0.0,0.0,0.0,0.0,0.0,0.0,0.0,0.0,0.0,0.0,0.0,0.0,0.0,0.0,0.0,0.0,0.0,0.0,0.0,0.0,0.0,0.0,0.0,0.0,0.0,0.0,0.0,0.0,0.0,0.0,0.0,0.0,0.0,0.0,0.0,0.0,0.0,0.0,0.0,0.0,0.0,-0.6674,-0.6898,-0.7888,-0.9741,-0.9995,-1.0122,-1.0184,-0.9426,-0.8327,-0.699,0.0,0.0,0.0,0.0,0.0,0.0,0.0,0.0,0.0,0.0,0.0,0.0,0.0,0.0,0.0,0.0,0.0,0.0,0.0,0.0,0.0,0.0,0.0,0.0,0.0,0.0,0.0,0.0,0.0,0.0,0.0,0.0,0.0,0.0,0.0,0.0,0.0,0.0,0.0,-0.0808,-0.0516,0.0,0.0,0.0,0.0,0.0,0.0,0.0,0.0,-0.0536,0.0,0.0,0.0,0.0,0.0,0.0,0.0,0.0,0.0,0.0,0.0,0.0,0.0,0.0,0.0,0.0,0.0,0.0,0.0,0.0,0.0,0.0,0.0,0.0,0.0,0.0,0.0,0.0,0.0,0.0,0.0,0.0,0.0,0.0,0.0,0.0,0.0,0.0,0.0,0.0,0.0,0.0,0.0,0.0,0.0,0.0,0.0,0.0,0.0,0.0,0.0,0.0,0.0,0.0,0.0,-0.6042,-0.6848,-0.8163,-0.9927,-0.9933,-0.9986,-1.0122,-0.9447,-0.8154,0.0,0.0,0.0,0.0,0.0,0.0,0.0,0.0,0.0,0.0,0.0,0.0,0.0,0.0,0.0,0.0,0.0,0.0,0.0,0.0,0.0,0.0,0.0,0.0,0.0,0.0,0.0,0.0,0.0,0.0,0.0,0.0,0.0,0.0,0.0,0.0,0.0,0.0,0.0,0.0,-0.0896,-0.077,-0.0655,0.0,0.0,0.0,0.0,0.0,0.0,-0.0451,-0.049,0.0,0.0,0.0,0.0,0.0,0.0,0.0,0.0,0.0,0.0,0.0,0.0,0.0,0.0,0.0,0.0,0.0,0.0,0.0,0.0,0.0,0.0,0.0,0.0,0.0,0.0,0.0,0.0,0.0,0.0,0.0,0.0,0.0,0.0,0.0,0.0,0.0,0.0,0.0,0.0,0.0,0.0,0.0,0.0,0.0,0.0,0.0,0.0,0.0,0.0,0.0,0.0,0.0,0.0,0.0,-0.5341,-0.6732,-0.8241,-0.9779,-0.9871,-0.9932,-1.0088,-0.9479,-0.8118,0.0,0.0,0.0,0.0,0.0,0.0,0.0,0.0,0.0,0.0,0.0,0.0,0.0,0.0,0.0,0.0,0.0,0.0,0.0,0.0,0.0,0.0,0.0,0.0,0.0,0.0,0.0,0.0,0.0,0.0,0.0,0.0,0.0,0.0,0.0,0.0,0.0,0.0,0.0,0.0,0.0,-0.1395,-0.0395,-0.1026,0.0,0.0,0.0,0.0,-0.1006,-0.083,0.0,0.0,0.0,0.0,0.0,0.0,0.0,0.0,0.0,0.0,0.0,0.0,0.0,0.0,0.0,0.0,0.0,0.0,0.0,0.0,0.0,0.0,0.0,0.0,0.0,0.0,0.0,0.0,0.0,0.0,0.0,0.0,0.0,0.0,0.0,0.0,0.0,0.0,0.0,0.0,0.0,0.0,0.0,0.0,0.0,0.0,0.0,0.0,0.0,0.0,0.0,0.0,0.0,0.0,0.0,0.0,-0.466,-0.6174,-0.746,-0.8422,-0.9292,-0.9745,-0.9761,-0.9069,-0.7949,0.0,0.0,0.0,0.0,0.0,0.0,0.0,0.0,0.0,0.0,0.0,0.0,0.0,0.0,0.0,0.0,0.0,0.0,0.0,0.0,0.0,0.0,0.0,0.0,0.0,0.0,0.0,0.0,0.0,0.0,0.0,0.0,0.0,0.0,0.0,0.0,0.0,0.0,0.0,0.0,0.0,-0.2184,-0.0892,-0.1667,-0.2186,0.0,0.0,-0.1317,-0.1943,-0.1722,0.0,0.0,0.0,0.0,0.0,0.0,0.0,0.0,0.0,0.0,0.0,0.0,0.0,0.0,0.0,0.0,0.0,0.0,0.0,0.0,0.0,0.0,0.0,0.0,0.0,0.0,0.0,0.0,0.0,0.0,0.0,0.0,0.0,0.0,0.0,0.0,0.0,0.0,0.0,0.0,0.0,0.0,0.0,0.0,0.0,0.0,0.0,0.0,0.0,0.0,0.0,0.0,0.0,0.0,0.0,-0.4292,-0.4776,-0.6281,-0.7517,-0.8463,-0.9001,-0.9414,-0.9631,-0.9151,-0.7989,0.0,0.0,0.0,0.0,0.0,0.0,0.0,0.0,0.0,0.0,0.0,0.0,0.0,0.0,0.0,0.0,0.0,0.0,0.0,0.0,0.0,0.0,0.0,0.0,0.0,0.0,0.0,0.0,0.0,0.0,0.0,0.0,0.0,0.0,0.0,0.0,0.0,0.0,0.0,0.0,0.0,0.0,-0.2336,-0.3159,0.0,0.0,0.0,-0.2129,-0.2725,0.0,0.0,0.0,0.0,0.0,0.0,0.0,0.0,0.0,0.0,0.0,0.0,0.0,0.0,0.0,0.0,0.0,0.0,0.0,0.0,0.0,0.0,0.0,0.0,0.0,0.0,0.0,0.0,0.0,0.0,0.0,0.0,0.0,0.0,0.0,0.0,0.0,0.0,0.0,0.0,0.0,0.0,0.0,0.0,0.0,0.0,0.0,0.0,0.0,0.0,0.0,0.0,0.0,0.0,0.0,0.0,0.0,-0.4669,-0.6159,-0.735,-0.8186,-0.854,-0.8991,-0.9561,-0.9415,0.0,0.0,0.0,0.0,0.0,0.0,0.0,0.0,0.0,0.0,0.0,0.0,0.0,0.0,0.0,0.0,0.0,0.0,0.0,0.0,0.0,0.0,0.0,0.0,0.0,0.0,0.0,0.0095,0.0,0.0,0.0,0.0,0.0,0.0,0.0,0.0,0.0,0.0,0.0,0.0,0.0,0.0,-0.3907,-0.3926,-0.4516,-0.4457,0.0,0.0,-0.2891,-0.3469,-0.3022,-0.2686,0.0,0.0,0.0,0.0,0.0,0.0,0.0,0.0,0.0,0.0,0.0,0.0,0.0,0.0,0.0,0.0,0.0,0.0,0.0,0.0,0.0,0.0,0.0,0.0,0.0,0.0,0.0,0.0,0.0,0.0,0.0,0.0,0.0,0.0,0.0,0.0,0.0,0.0,0.0,0.0,0.0,0.0,0.0,0.0,0.0,0.0,0.0,0.0,0.0,0.0,0.0,0.0,0.0,0.0,0.0,-0.4019,-0.5483,-0.6454,-0.684,-0.7523,-0.8387,-0.9473,-0.9798,-0.8804,0.0,0.0,0.0,0.0,0.0,0.0,0.0,0.0,0.0,0.0,0.0,0.0,0.0,0.0,0.0,0.0,0.0,0.0,0.0,0.0,0.0,0.0,0.0,0.0,0.0,0.0,0.0,0.0,0.0,0.0,0.0,0.0,0.0,0.0,0.0,0.0,0.0,0.0,0.0,0.0,0.0,-0.4312,-0.5461,-0.5378,-0.475,0.0,0.0,-0.3473,-0.4125,-0.4072,-0.3768,-0.318,0.0,0.0,0.0,0.0,0.0,0.0,0.0,0.0,0.0,0.0,0.0,0.0,0.0,0.0,0.0,0.0,0.0,0.0,0.0,0.0,0.0,0.0,0.0,0.0,0.0,0.0,0.0,0.0,0.0,0.0,0.0,0.0,0.0,0.0,0.0,0.0,0.0,0.0,0.0,0.0,0.0,0.0,0.0,0.0,0.0,0.0,0.0,0.0,0.0,0.0,0.0,0.0,0.0,-0.3869,-0.4031,-0.5383,-0.6233,-0.6594,-0.7362,-0.8054,-0.8574,-0.927,-0.8702,0.0,0.0,0.0,0.0,0.0,0.0,0.0,0.0,0.0,0.0,0.0,0.0,0.0,0.0,0.0,0.0,0.0,0.0,0.0,0.0,0.0,0.0,0.0,0.0,0.0,0.0,0.0,0.0,0.0359,0.0686,0.1495,0.0,0.0,0.0,0.0,0.0,0.0,0.0,0.0,0.0,0.0,-0.5368,-0.5543,-0.7009,0.0,0.0,-0.4782,-0.4806,-0.4747,-0.4432,-0.3813,-0.2829,-0.2042,0.0,0.0,0.0,0.0,0.0,0.0,0.0,0.0,0.0,0.0,0.0,0.0,0.0,0.0,0.0,0.0,0.0,0.0,0.0,0.0,0.0,0.0,0.0,0.0,0.0,0.0,0.0,0.0,0.0,0.0,0.0,0.0,0.0,0.0,0.0,0.0,0.0,0.0,0.0,0.0,0.0,0.0,0.0,0.0,0.0,0.0,0.0,0.0,0.0,0.0,0.0,0.0,-0.334,-0.3761,-0.4868,-0.57,-0.6179,-0.6937,-0.7523,-0.7966,-0.8435,-0.8117,0.0,0.0,0.0,0.0,0.0,0.0,0.0,0.0,0.0,0.0,0.0,0.0,0.0,0.0,0.0,0.0,0.0,0.0,0.0,0.0,0.0,0.0,0.0,0.0,0.0,0.0,0.0,0.0,-0.0331,0.0305,0.148,0.0,0.0,0.0,0.0,0.0,0.0,0.0,0.0,0.0,0.0,-0.5838,-0.5796,-0.7217,-0.7476,-0.5171,-0.4682,-0.4427,-0.4072,-0.3944,-0.3617,-0.2779,0.0,0.0,0.0,0.0,0.0,0.0,0.0,0.0,0.0,0.0,0.0,0.0,0.0,0.0,0.0,0.0,0.0,0.0,0.0,0.0,0.0,0.0,0.0,0.0,0.0,0.0,0.0,0.0,0.0,0.0,0.0,0.0,0.0,0.0,0.0,0.0,0.0,0.0,0.0,0.0,0.0,0.0,0.0,0.0,0.0,0.0,0.0,0.0,0.0,0.0,0.0,0.0,0.0,-0.2113,-0.3032,-0.3803,-0.4626,-0.5512,-0.5986,-0.6774,-0.7808,-0.7363,-0.7001,-0.6891,0.0,0.0,0.0,0.0,0.0,0.0,0.0,0.0,0.0,0.0,0.0,0.0,0.0,0.0,0.0,0.0,0.0,0.0,0.0,0.0,0.0,0.0,0.0,0.0,0.0,0.0,-0.0542,-0.0055,0.0675,0.0,0.0,0.0,0.0,0.0,0.0,0.0,0.0,0.0,0.0,-0.4817,-0.5495,-0.6464,-0.5504,-0.4549,-0.3589,-0.251,-0.1791,-0.1918,-0.2635,-0.322,0.0,0.0,0.0,0.0,0.0,0.0,0.0,0.0,0.0,0.0,0.0,0.0,0.0,0.0,0.0,0.0,0.0,0.0,0.0,0.0,0.0,0.0,0.0,0.0,0.0,0.0,0.0,-0.3364,0.0,0.0,0.0,0.0,0.0,0.0,0.0,0.0,0.0,0.0,0.0,0.0,-0.6674,-0.6901,0.0,0.0,0.0,0.0,0.0,0.0,0.0,0.0,0.0,0.0,0.0,0.0,-0.177,-0.317,-0.3921,-0.4809,-0.5798,-0.6206,-0.6611,-0.7083,-0.6732,-0.6626,-0.6796,0.0,0.0,0.0,0.0,0.0,0.0,0.0,0.0,0.0,0.0,0.0,0.0,0.0,0.0,0.0,0.0,0.0,0.0,0.0,0.0,0.0,0.0,0.0,0.0,0.0,-0.1093,0.0,0.0,0.0,0.0,0.0,0.0,0.0,0.0,0.0,0.0,0.0,-0.3475,-0.4412,-0.5277,-0.6516,-0.8401,-0.7425,-0.6262,0.0,0.0,0.0,0.0,0.0,0.0,0.0,0.0,0.0,0.0,0.0,0.0,0.0,0.0,-0.4015,-0.1861,-0.3609,-0.5743,-0.6716,0.0,0.0,0.0,0.0,0.0,0.0,0.0,0.0,0.0,0.0,0.0,0.0,0.0,0.0,0.0,0.0,-0.3242,0.0,0.0,0.0,0.0,0.0,0.0,0.0,0.0,-0.7679,-0.7675,-0.7549,-0.8153,-0.8013,0.0,-0.6821,-0.518,0.0,0.0,0.0,0.0,0.0,0.0,0.0,0.0,-0.1765,-0.3306,-0.4024,-0.487,-0.5911,-0.6403,-0.6647,-0.6694,-0.6498,-0.6273,-0.6044,-0.5502,-0.5161,0.0,0.0,0.0,0.0,0.0,0.0,0.0,0.0,0.0,0.0,0.0,0.0,0.0,0.0,0.0,0.0,0.0,0.0,0.0,0.0,0.0,0.0,0.0,-0.1466,0.0,0.0,0.0,0.0,0.0,0.0,0.0,0.0,0.0,-0.3592,-0.396,-0.4605,-0.5595,-0.5822,-0.6625,-0.8658,0.0,0.0,0.0,0.0,0.0,0.0,0.0,-0.1996,-0.159,-0.2056,-0.28,-0.395,-0.1021,-0.1565,-1.1085,0.0,0.0,-0.6073,-0.7438,-0.971,-1.0903,-1.2292,-1.3594,-1.4538,-1.5755,-1.6782,0.0,0.0,0.0,0.0,0.0,0.0,0.0,0.0,-1.3648,-1.5071,0.0,-0.9386,0.0,0.0,0.0,0.0,0.0,-0.8886,0.0,0.0,-1.0968,-1.0628,-0.968,-0.9265,-0.8866,-0.8488,-0.7719,-0.7201,-0.6889,-0.5037,0.0,0.0,0.0,0.0,0.0,0.0,-0.2103,-0.3427,-0.4043,-0.4823,-0.5831,-0.656,-0.6839,-0.6682,-0.6544,-0.5906,-0.4704,-0.4457,-0.4527,-0.4962,-0.3278,0.0,0.0,0.0,0.0,0.0,0.0,0.0,0.0,0.0,0.0,0.0,0.0,0.0,0.0,0.0,0.0,0.0,0.0,0.0,0.0,-0.0764,0.0,0.0,0.0,0.0,0.0,0.0,0.0,0.0,0.0,0.0,-0.5856,-0.5551,-0.5925,-0.7462,0.0,0.0,0.0,0.0,-0.3881,-0.3208,-0.1845,-0.0761,0.0056,-0.2197,-0.4162,-0.4474,0.0,0.0,-0.7341,-0.199,-0.2749,-1.7258,-2.0491,-1.9234,-1.2158,-1.1263,-1.1852,-1.2864,-1.5222,-1.7059,-1.8065,-2.0415,-2.2252,-1.0346,0.0,0.0,0.0,0.0,-0.9183,-0.9839,-1.1121,-1.2417,-1.357,-1.4328,-1.261,0.0,0.0,0.0,0.0,0.0,0.0,-0.9032,-0.9813,-0.9937,-1.0566,-1.1569,-1.1668,-1.1546,-1.1317,-1.083,-1.0351,-0.9842,-0.8635,-0.6489,-0.3485,0.0,0.0,0.0,0.0,-0.2927,-0.4253,-0.4581,-0.5396,-0.6783,-0.6995,-0.6847,-0.627,-0.6343,-0.5969,-0.5137,-0.4733,-0.4674,-0.5046,-0.483,0.0,0.0,0.0,0.0,0.0,0.0,0.0,0.0,0.0,0.0,0.0,0.0,0.0,0.0,0.0,0.0,0.0,0.0,0.0,-0.1275,-0.0615,-0.0297,0.0,0.0,0.0,0.0,0.0,0.0,0.0,0.0,0.0,-0.8731,-0.7352,-0.6133,0.0,0.0,-0.6794,-1.0865,-0.8687,-0.7311,-0.9177,0.0,0.0,0.0,-0.8102,-0.7172,-0.7374,-0.8144,-0.8435,-0.7641,-0.7204,-1.0046,-1.9418,-2.2642,-2.2961,-2.0323,-1.9053,-1.8907,-1.9591,-2.072,-2.2004,-2.3224,-2.4149,-2.5012,-1.3111,-1.1801,-1.018,-0.9826,-1.0316,-0.9766,-1.0576,-1.2287,-1.2262,-1.2922,-1.4019,-1.3985,-1.3536,-1.267,-0.9209,0.0,0.0,0.0,-1.0199,-1.1177,-1.1263,-1.1737,-1.2522,-1.2704,-1.2626,-1.2276,-1.1816,-1.1423,-1.1076,-0.9856,-0.815,-0.5942,0.0,0.0,-0.3221,-0.3183,-0.3978,-0.5588,-0.58,-0.6516,-0.7896,-0.7801,-0.7449,-0.6854,-0.6731,-0.6366,-0.5762,-0.5221,-0.5086,-0.5336,-0.5662,-0.5352,0.0,0.0,0.0,0.0,0.0,0.0,0.0,0.0,0.0,0.0,0.0,-0.4152,-0.333,0.0,0.0,0.0,0.1082,0.0114,-0.1694,-0.0855,0.0,0.0,0.0,0.0,0.0,0.0,0.0,-0.5651,-0.7457,-0.9416,-1.132,-1.0583,-0.9789,-0.9548,-0.7161,-0.6523,-0.9542,0.0,-0.9782,-1.5651,-1.3833,-1.2007,-1.2612,-1.1466,-1.0697,-1.145,-1.1105,-1.1016,-1.1358,-1.3513,-1.6946,-2.1158,-2.3758,-2.4749,-2.4017,-2.3857,-2.3919,-2.4073,-2.4436,-2.5194,-2.647,-2.6901,-2.7505,-1.4581,-1.4721,-1.1722,-1.0865,-1.1456,-1.1016,-1.161,-1.2825,-1.2865,-1.3111,-1.352,-1.4004,-1.3666,-1.2702,-1.1577,0.0,-1.1451,-1.2025,-1.2872,-1.4017,-1.4118,-1.3715,-1.2933,-1.3029,-1.2776,-1.2217,-1.1567,-1.124,-1.1164,-0.9619,-0.8537,-0.796,-0.6438,-0.5414,-0.4847,-0.4304,-0.5042,-0.7048,-0.7165,-0.7838,-0.8988,-0.8831,-0.8469,-0.7961,-0.7548,-0.711,-0.6601,-0.6002,-0.5772,-0.5895,-0.6083,-0.62,-0.6234,0.0,0.0,0.0,0.0,0.0,0.0,0.0,0.0,0.0,0.0,0.0,0.0,0.0,0.0,0.0848,0.0766,0.0,-0.1576,-0.0935,0.0,0.0,0.0,-0.1548,-0.3452,-0.486,-0.6695,-0.9403,0.0,0.0,-1.3714,0.0,-1.5519,-1.6277,-1.0725,-0.6438,-0.5975,-0.8024,-1.2361,-2.1399,-1.9356,-1.5673,-1.377,-1.3687,-1.4494,-1.5677,-1.5119,-1.4778,-1.6523,-1.9485,-2.2215,-2.344,-2.4395,-2.5021,-2.5001,-2.5976,-2.7,-2.672,-2.6704,-2.7,-2.8075,-2.8849,-2.9404,-1.3705,-1.3726,-1.2953,-1.2518,-1.2345,-1.2731,-1.2637,-1.229,-1.3117,-1.3182,-1.2733,-1.3172,-1.3042,-1.2494,-1.2496,-1.2483,-1.2456,-1.2912,-1.3502,-1.4146,-1.4642,-1.4761,-1.4642,-1.5141,-1.4927,-1.4081,-1.3644,-1.3063,-1.2372,-1.1172,-1.0302,-0.9698,-0.8038,-0.6297,-0.4581,-0.4372,-0.5141,-0.6854,-0.6901,-0.7694,-0.9231,-0.9557,-0.9267,-0.8462,-0.8567,-0.8463,-0.8095,-0.7591,-0.7438,-0.7663,-0.7397,-0.7263,-0.7294,-0.7398,0.0,0.0,0.0,0.0,0.0,0.0,0.0,0.0,0.0,-0.4678,-0.3197,0.0,-0.1841,0.0,0.1083,0.1731,0.1588,0.2333,0.0,0.0,0.0,-0.153,-0.5529,-0.762,-0.9669,-1.2083,-1.3552,-1.5056,-1.6763,-1.721,-1.8365,-2.0786,-1.7762,-1.4215,-1.1747,-1.6057,-2.0179,-2.2203,-2.2118,-2.128,-1.9778,-1.8742,-1.7885,-1.7726,-1.6679,-1.6465,-1.7997,-2.0424,-2.2663,-2.4042,-2.469,-2.5215,-2.5851,-2.631,-2.7254,-2.8614,-2.8648,-2.8386,-2.8943,-2.9357,-2.9762,-1.3894,-1.386,-1.3739,-1.3348,-1.289,-1.3194,-1.303,-1.2584,-1.3204,-1.3343,-1.3133,-1.34,-1.3322,-1.3056,-1.351,-1.3641,-1.3554,-1.4214,-1.462,-1.4728,-1.5531,-1.5645,-1.5197,-1.5746,-1.5557,-1.4709,-1.4246,-1.3729,-1.3112,-1.2049,-1.1297,-1.0869,-0.974,-0.8336,-0.6719,-0.5874,-0.6112,-0.74,-0.8468,-0.9439,-1.0357,-1.0762,-1.0287,-0.8875,-0.9477,-0.9358,-0.8341,-0.8354,-0.8165,-0.7687,-0.7525,-0.7504,-0.7687,-0.7332,-0.795,0.0,0.0,0.0,0.0,0.0,0.0,0.0,0.0,0.0,0.0,0.0,-0.1774,0.051,0.1933,0.2433,0.1694,0.2685,0.1939,-0.1551,-0.1721,-0.3068,-0.6888,-1.0068,-1.2948,-1.5502,-1.6905,-1.8223,-1.9572,-1.9979,-2.0824,-2.2815,-2.1946,-2.0283,-1.8399,-2.1121,-2.3375,-2.3158,-2.341,-2.3165,-2.1939,-2.0942,-1.9908,-1.881,-1.8294,-1.8493,-1.9726,-2.1852,-2.3939,-2.5358,-2.582,-2.6157,-2.6865,-2.7401,-2.8227,-2.9315,-2.9813,-2.9839,-3.0055,-3.0039,-3.0161,-1.4432,-1.4419,-1.4174,-1.381,-1.3386,-1.327,-1.3232,-1.3218,-1.328,-1.3586,-1.4067,-1.4067,-1.401,-1.3975,-1.4466,-1.4662,-1.4628,-1.5568,-1.5824,-1.5514,-1.6405,-1.6262,-1.521,-1.5601,-1.5411,-1.4663,-1.4059,-1.3692,-1.3443,-1.2412,-1.1792,-1.1598,-1.1231,-1.0608,-0.9709,-0.8187,-0.7814,-0.8613,-1.0633,-1.1605,-1.1489,-1.1824,-1.108,-0.9217,-1.0203,-1.0041,-0.837,-0.8873,-0.8626,-0.7397,-0.7418,-0.7489,-0.7513,-0.7878,-0.7982,0.0,-0.6711,0.0,0.0,0.0,0.0,0.0,0.0,0.0,0.0,-0.2263,-0.0961,0.2061,0.3057,0.2906,0.1409,0.2179,0.0934,-0.3508,-0.3827,-0.4928,-0.8208,-1.231,-1.6013,-1.8994,-2.0544,-2.1532,-2.1886,-2.2532,-2.3006,-2.3394,-2.4177,-2.4288,-2.3862,-2.3822,-2.3912,-2.3631,-2.3628,-2.3041,-2.1666,-2.1343,-2.0904,-1.9719,-1.9562,-2.0358,-2.1247,-2.335,-2.5448,-2.6783,-2.7339,-2.7651,-2.8005,-2.8726,-2.942,-3.0015,-3.0505,-3.0854,-3.0914,-3.0673,-3.0526,-1.408,-1.4104,-1.4267,-1.4314,-1.4361,-1.449,-1.4037,-1.3242,-1.3668,-1.4033,-1.4326,-1.4337,-1.4466,-1.472,-1.5142,-1.5345,-1.5412,-1.5913,-1.6188,-1.6197,-1.6392,-1.6207,-1.569,-1.5766,-1.5321,-1.4478,-1.4001,-1.346,-1.2764,-1.2181,-1.2024,-1.2208,-1.1578,-1.1179,-1.103,0.0,0.0,0.0,-1.1216,-1.1324,-1.0892,-1.0991,-1.0508,-0.9394,-1.0488,0.0,-1.0152,-1.0237,-1.0028,-0.9442,-0.9188,0.0,0.0,0.0,0.0,0.0,0.0,0.0,0.0,0.0,0.0,0.0,-0.3789,-0.3006,-0.2632,-0.1394,0.0518,0.319,0.3924,0.4854,0.6283,0.4777,0.0906,-0.5708,-0.3934,-0.457,-1.1019,-1.4268,-1.7232,-2.1092,-2.2078,-2.2548,-2.2913,-2.362,-2.4157,-2.4438,-2.5236,-2.582,-2.591,-2.5226,-2.449,-2.3589,-2.3277,-2.291,-2.2302,-2.1837,-2.1525,-2.0961,-2.0338,-2.0628,-2.1867,-2.3766,-2.5672,-2.7388,-2.8723,-2.9381,-2.8939,-2.9213,-2.9956,-3.1109,-3.1135,-3.0975,-3.0935,-3.0712,-3.0489,-1.4558,0.0,-1.4846,-1.5028,0.0,-1.5198,-1.4915,-1.4399,-1.4501,-1.4628,-1.4743,-1.4823,-1.4926,-1.5108,-1.5379,-1.5491,-1.5468,-1.5903,-1.5979,-1.579,-1.6228,-1.6141,-1.5645,-1.5879,-1.5568,-1.4743,-1.4235,-1.3627,-1.3016,-1.2686,-1.2628,-1.2792,-1.2826,-1.2901,-1.294,-1.2979,-1.2531,-1.1634,-1.1747,-1.1705,-1.1502,-1.1543,-1.0911,-0.9562,0.0,0.0,0.0,0.0,0.0,0.0,0.0,0.0,0.0,0.0,0.0,-0.7558,-0.7834,-0.7551,-0.6537,-0.5497,-0.4901,-0.4917,-0.433,-0.3671,-0.2972,-0.1397,0.0175,0.1669,0.2773,0.4584,0.7207,0.3951,-0.2031,-1.0009,-0.8273,-0.8723,-1.4667,-1.7716,-1.9988,-2.2131,-2.2843,-2.3156,-2.3737,-2.4201,-2.476,-2.5291,-2.602,-2.6405,-2.5971,-2.5426,-2.4653,-2.3804,-2.3348,-2.3063,-2.2835,-2.2737,-2.2368,-2.1939,-2.1557,-2.164,-2.228,-2.5538,-2.8375,-2.9217,-3.0087,-3.0525,-3.0266,-3.0351,-3.0764,-3.1538,-3.147,-3.1159,-3.112,-3.0801,-3.0489,-1.5321,-1.5209,-1.5634,-1.5832,-1.5866,-1.5854,-1.5856,-1.579,0.0,0.0,0.0,-1.5345,-1.5413,-1.5503,-1.558,-1.557,-1.5492,-1.5824,-1.5724,-1.5266,-1.6022,-1.6088,-1.558,-1.5947,-1.577,-1.5085,-1.4605,-1.4082,-1.3563,-1.3447,-1.3447,-1.3589,-1.426,-1.4583,-1.4549,-1.4351,-1.3582,-1.2316,-1.2083,-1.2053,-1.2158,-1.2149,-1.1338,-0.9603,-1.0867,-1.0635,-0.8709,-0.9766,-0.9777,-0.8486,-0.8075,-0.7448,-0.6487,-0.6609,-0.6869,-0.72,-0.7621,-0.7646,-0.7158,-0.6008,-0.5171,-0.4928,-0.521,-0.4925,-0.3804,-0.2246,-0.1107,-0.0634,0.1042,0.3118,0.5418,0.1216,-0.5667,-1.4927,-1.3741,-1.411,-1.865,-2.1116,-2.259,-2.332,-2.3522,-2.3773,-2.4532,-2.5051,-2.5445,-2.6135,-2.6883,-2.6941,-2.5853,-2.5141,-2.4494,-2.4034,-2.3808,-2.3631,-2.3492,-2.3681,-2.3537,-2.2931,-2.3028,-2.3109,-2.3547,-2.7375,-3.0683,-3.0714,-3.112,-3.1334,-3.1374,-3.1401,-3.166,-3.2039,-3.1695,-3.1374,-3.1414,-3.0965,-3.0526,-1.6046,-1.6219,-1.651,-1.6723,-1.6899,-1.6942,-1.6863,-1.6641,-1.558,-1.5468,-1.6013,-1.5714,-1.5812,-1.6241,-1.6144,-1.6091,-1.6057,-1.601,-1.5891,0.0,-1.5836,-1.5846,-1.5758,-1.5836,-1.5592,-1.5131,-1.5017,-1.4686,-1.4235,-1.4165,-1.4374,-1.48,-1.496,-1.4926,-1.4789,-1.4095,-1.3443,-1.2855,-1.203,-1.1603,-1.1623,-1.1337,-1.0748,-0.9858,-1.0843,-1.0915,-0.9839,-0.9964,-0.9916,-0.9563,-0.919,-0.8695,-0.8122,-0.8223,-0.7809,-0.663,-0.6288,-0.5795,-0.5067,-0.6081,-0.6236,-0.5117,-0.6392,-0.6956,-0.614,-0.4644,-0.3271,-0.2164,-0.0457,0.0241,-0.1037,-0.3194,-0.822,-1.6477,-1.7598,-1.8543,-2.1313,-2.2593,-2.3642,-2.4468,-2.4618,-2.4856,-2.5535,-2.6489,-2.7157,-2.7462,-2.7743,-2.7839,-2.6801,-2.524,-2.4164,-2.4079,-2.4407,-2.4593,-2.458,-2.4761,-2.4713,-2.438,-2.4793,-2.4704,-2.3422,-2.7385,-3.0763,-3.1154,-3.1656,-3.1948,-3.1749,-3.1895,-3.2162,-3.242,-3.2038,-3.164,-3.1715,-3.1106,-3.0531,-1.6756,-1.7037,-1.7319,-1.7435,-1.7435,-1.7352,-1.7261,-1.7115,-1.6518,-1.6272,-1.6328,-1.612,-1.6175,-1.6371,-1.634,-1.6275,-1.62,-1.6044,-1.5935,-1.5814,-1.5814,-1.5814,-1.5814,-1.5814,-1.557,-1.5142,-1.5119,-1.4823,-1.4374,-1.4582,-1.4846,-1.5085,-1.504,-1.4651,-1.399,-1.36,-1.3156,-1.2725,-1.2279,-1.1895,-1.1626,-1.1468,-1.1136,-1.0651,-1.1112,-1.0912,-1.0035,-1.024,-1.0135,-0.9591,-0.9475,-0.9189,-0.878,-0.882,-0.8213,-0.6858,-0.6758,-0.6222,-0.5027,-0.7395,-0.8086,-0.634,-0.7735,-0.9301,-1.0538,-0.7297,-0.5177,-0.5003,-0.4389,-0.4651,-0.6043,-0.8005,-1.1891,-1.8345,-1.9648,-2.0902,-2.2618,-2.3629,-2.4487,-2.5405,-2.5465,-2.5818,-2.6926,-2.745,-2.7967,-2.8315,-2.8334,-2.7876,-2.7363,-2.6311,-2.5508,-2.5428,-2.5301,-2.5426,-2.5823,-2.5885,-2.5794,-2.5597,-2.6085,-2.6089,-2.5321,-2.784,-2.9533,-3.1298,-3.202,-3.2249,-3.2214,-3.2351,-3.257,-3.2752,-3.2453,-3.2092,-3.186,-3.1261,-3.0733,-1.7619,-1.7921,-1.8285,-1.8377,-1.8255,-1.8103,-1.7912,-1.7709,-1.7604,-1.7261,-1.6808,-1.6629,-1.6531,-1.6543,-1.6457,-1.6328,-1.6166,-1.611,-1.6001,-1.5846,-1.5881,-1.5903,-1.5881,-1.5881,-1.5659,-1.5334,-1.5266,-1.5028,-1.472,-1.5051,-1.5176,-1.5062,-1.4846,-1.4201,-1.317,-1.3074,-1.2852,-1.2446,-1.2421,-1.2249,-1.1852,-1.1794,-1.1678,-1.1427,-1.1455,-1.1106,-1.0402,-1.0671,-1.0562,-0.9879,-0.9899,-0.9814,-0.9547,-0.9631,-0.9131,-0.8019,-0.8031,-0.7815,-0.7169,-0.9285,-0.9948,-0.8057,-0.9169,-1.1115,-1.3253,-1.0307,-0.7949,-0.8254,-0.8714,-0.9307,-1.0153,-1.2326,-1.5426,-1.9043,-2.056,-2.1837,-2.337,-2.4414,-2.5319,-2.6177,-2.6343,-2.6868,-2.7876,-2.8153,-2.8308,-2.8652,-2.8422,-2.7969,-2.7691,-2.7438,-2.7183,-2.7091,-2.6546,-2.6381,-2.7091,-2.6988,-2.6804,-2.6767,-2.711,-2.7354,-2.7514,-2.7843,-2.9111,-3.1564,-3.2335,-3.2521,-3.2736,-3.2782,-3.288,-3.3057,-3.2752,-3.2334,-3.1879,-3.1433,-3.0898,-1.8836,-1.9107,-1.9546,-1.9867,-1.9878,-1.9898,-1.9402,-1.8696,-1.8578,-1.8247,-1.7679,-1.7173,-1.6972,-1.6909,-1.6629,-1.6328,-1.6066,-1.6262,-1.6219,-1.6044,-1.6122,-1.6178,-1.6188,-1.6066,-1.5979,-1.5901,-1.5802,-1.5691,-1.558,-1.5681,-1.5446,-1.4937,-1.4467,-1.3836,-1.3064,-1.2696,-1.2421,-1.216,-1.2249,-1.2308,-1.2258,-1.2126,-1.1952,-1.1678,-1.1843,-1.1737,-1.1233,-1.1378,-1.1336,-1.1148,-1.101,-1.0993,-1.1089,-1.1487,-1.132,-1.0452,-1.0105,-1.0404,-1.164,-1.1895,-1.1425,-1.0308,-1.0711,-1.1931,-1.3779,-1.3514,-1.2652,-1.1782,-1.1896,-1.2387,-1.302,-1.5343,-1.7437,-1.8879,-2.0059,-2.134,-2.3392,-2.5153,-2.628,-2.6592,-2.7342,-2.8145,-2.8508,-2.8653,-2.868,-2.8676,-2.8745,-2.875,-2.8703,-2.8417,-2.8342,-2.8668,-2.8371,-2.7906,-2.7934,-2.7936,-2.7792,-2.7742,-2.7923,-2.8317,-2.8829,-2.9663,-3.081,-3.1969,-3.2753,-3.2836,-3.2965,-3.3075,-3.3086,-3.3168,-3.2914,-3.2469,-3.1789,-3.1454,-3.1184,-1.9469,-1.9958,-1.9957,-2.0057,-2.0209,-2.0136,-1.986,-1.9504,-1.9322,-1.9078,-1.8808,-1.8233,-1.7632,-1.7102,-1.665,-1.6349,-1.6262,-1.6509,-1.6582,-1.6531,-1.6803,-1.6972,-1.6951,-1.6896,-1.674,-1.6432,-1.6358,-1.6154,-1.5859,-1.5814,-1.5333,-1.4503,-1.4177,-1.3552,-1.254,-1.2348,-1.22,-1.2101,-1.2002,-1.1952,-1.1952,-1.2051,-1.1986,-1.1826,-1.2079,-1.1952,-1.1474,-1.1703,-1.1768,-1.1535,-1.1636,-1.188,-1.2186,-1.2646,-1.3149,-1.3672,-1.3611,-1.4041,-1.52,-1.424,-1.294,-1.1502,-1.2039,-1.2933,-1.4016,-1.4084,-1.3922,-1.4032,-1.437,-1.4609,-1.4586,-1.6303,-1.8032,-1.9321,-2.048,-2.1781,-2.3275,-2.5105,-2.6411,-2.7086,-2.7941,-2.8682,-2.9017,-2.8975,-2.8862,-2.8838,-2.8984,-2.9075,-2.9233,-2.9154,-2.9164,-2.9252,-2.9035,-2.8804,-2.8622,-2.8415,-2.8308,-2.8261,-2.8528,-2.9036,-2.9763,-3.0683,-3.1601,-3.2556,-3.2802,-3.2948,-3.2997,-3.3091,-3.3117,-3.3183,-3.3039,-3.2619,-3.2214,-3.1824,-3.1509,-2.0235,-2.1012,-2.0833,-2.0915,-2.1176,-2.0778,-2.0553,-2.0454,-2.0161,-1.9942,-1.9702,-1.9075,-1.8486,-1.79,-1.7195,-1.6808,-1.6744,-1.6964,-1.7068,-1.7089,-1.7415,-1.7578,-1.7592,-1.7571,-1.7284,-1.6837,-1.6731,-1.6423,-1.5925,-1.5903,-1.5378,-1.4446,-1.4236,-1.3566,-1.2476,-1.2298,-1.2209,-1.2067,-1.1819,-1.1678,-1.1662,-1.1885,-1.1945,-1.1842,-1.2114,-1.2062,-1.1643,-1.2126,-1.2204,-1.1823,-1.2241,-1.266,-1.3024,-1.358,-1.4495,-1.5717,-1.595,-1.646,-1.7588,-1.5998,-1.4119,-1.246,-1.293,-1.3738,-1.4235,-1.4213,-1.4491,-1.53,-1.6136,-1.6323,-1.5821,-1.6667,-1.8065,-1.9771,-2.0936,-2.2017,-2.3537,-2.5374,-2.693,-2.7706,-2.8537,-2.9063,-2.928,-2.9016,-2.8791,-2.8899,-2.8968,-2.9097,-2.9332,-2.9412,-2.9411,-2.9363,-2.9262,-2.9134,-2.904,-2.8719,-2.85,-2.8389,-2.8623,-2.8988,-3.0144,-3.1218,-3.2002,-3.2589,-3.285,-3.3024,-3.3073,-3.3119,-3.3211,-3.3244,-3.3117,-3.2925,-3.2816,-3.2351,-3.1914,-2.1401,-2.2623,-2.2749,-2.2973,-2.3458,-2.2505,-2.1962,-2.1737,-2.1272,-2.0807,-2.0281,-1.9551,-1.9454,-1.972,-1.8542,-1.776,-1.7523,-1.7686,-1.7733,-1.7679,-1.7794,-1.7821,-1.7787,-1.7707,-1.7449,-1.7055,-1.6921,-1.6561,-1.6032,-1.61,-1.5748,-1.488,-1.4709,-1.4097,-1.304,-1.273,-1.2471,-1.2101,-1.1828,-1.1586,-1.1412,-1.1662,-1.1789,-1.1856,-1.1951,-1.2144,-1.2348,-1.2696,-1.2686,-1.2304,-1.2926,-1.3374,-1.367,-1.4423,-1.5187,-1.5825,-1.6081,-1.6977,-1.8345,-1.7031,-1.4965,-1.2943,-1.3665,-1.4376,-1.4605,-1.4423,-1.4686,-1.547,-1.7014,-1.7576,-1.7016,-1.7329,-1.8347,-2.0345,-2.091,-2.2273,-2.4343,-2.6429,-2.7833,-2.8409,-2.9089,-2.9355,-2.9016,-2.8749,-2.8626,-2.8651,-2.8688,-2.8827,-2.9101,-2.9163,-2.9174,-2.9195,-2.9079,-2.8945,-2.9021,-2.8845,-2.862,-2.8549,-2.85,-2.8474,-2.9981,-3.1341,-3.207,-3.2654,-3.3068,-3.3253,-3.3211,-3.3226,-3.3349,-3.3393,-3.3364,-3.3256,-3.3165,-3.299,-3.2518,-2.2586,-2.3217,-2.3394,-2.3679,-2.3977,-2.3606,-2.3385,-2.3152,-2.2405,-2.1971,-2.1616,-2.0841,-2.0532,-2.0605,-2.0247,-1.9383,-1.8293,-1.8529,-1.852,-1.8309,-1.8843,-1.8968,-1.8644,-1.8597,-1.8187,-1.7523,-1.738,-1.6985,-1.6315,-1.621,-1.5834,-1.5197,-1.5028,-1.4318,-1.3198,-1.2929,-1.2623,-1.2126,-1.1678,-1.1489,-1.1601,-1.1296,-1.1486,-1.2375,-1.2434,-1.2613,-1.2969,-1.3171,-1.3238,-1.3177,-1.3842,-1.4201,-1.4312,-1.541,-1.6132,-1.6314,-1.7318,-1.8416,-1.9181,-1.8227,-1.7217,-1.6617,-1.5695,-1.5164,-1.4971,-1.4766,-1.5005,-1.6135,-1.7366,-1.8168,-1.8829,-1.9301,-2.043,-2.2128,-2.3117,-2.4076,-2.5644,-2.7307,-2.8409,-2.8625,-2.9062,-2.9258,-2.8959,-2.8589,-2.8414,-2.8538,-2.8479,-2.8545,-2.8778,-2.8897,-2.8874,-2.8844,-2.885,-2.8893,-2.8834,-2.8851,-2.8792,-2.8817,-2.8851,-2.9378,-3.0504,-3.1796,-3.2632,-3.2688,-3.3099,-3.3283,-3.3165,-3.3259,-3.3396,-3.3408,-3.3393,-3.3422,-3.3393,-3.3129,-3.2765,-2.3822,-2.3856,-2.4179,-2.4471,-2.4716,-2.4379,-2.4277,-2.4215,-2.3473,-2.3017,-2.2733,-2.1996,-2.1618,-2.1496,-2.1268,-2.0675,-1.9689,-1.9761,-1.9523,-1.9116,-1.9674,-1.9681,-1.924,-1.912,-1.863,-1.7801,-1.7421,-1.6976,-1.647,-1.6297,-1.5966,-1.55,-1.5332,-1.4721,-1.3745,-1.3351,-1.2964,-1.2473,-1.1881,-1.1696,-1.1898,-1.1696,-1.1949,-1.2779,-1.3007,-1.3148,-1.3403,-1.3472,-1.3411,-1.3442,-1.3983,-1.4529,-1.4942,-1.6065,-1.6814,-1.705,-1.817,-1.9303,-1.985,-1.9155,-1.8862,-1.9375,-1.767,-1.6098,-1.4981,-1.4789,-1.528,-1.6186,-1.7811,-1.9076,-1.985,-2.0955,-2.2221,-2.3401,-2.4607,-2.574,-2.6638,-2.7697,-2.8489,-2.8872,-2.9024,-2.9034,-2.8877,-2.8487,-2.8327,-2.8445,-2.8277,-2.8264,-2.854,-2.857,-2.8614,-2.8633,-2.8658,-2.8737,-2.8955,-2.9185,-2.9387,-2.9428,-2.9582,-3.0122,-3.0838,-3.2092,-3.2795,-3.28,-3.2916,-3.3055,-3.3196,-3.3289,-3.3349,-3.3393,-3.3452,-3.3477,-3.339,-3.3238,-3.2892,-2.5075,-2.4731,-2.5188,-2.5542,-2.5663,-2.4926,-2.4692,-2.4894,-2.4413,-2.3994,-2.3589,-2.2945,-2.2666,-2.2476,-2.1741,-2.1367,-2.1549,-2.1203,-2.0643,-2.0089,-2.0117,-1.9871,-1.9298,-1.9191,-1.8649,-1.7767,-1.6942,-1.6543,-1.6414,-1.6383,-1.6219,-1.5966,-1.5702,-1.5288,-1.4835,-1.4089,-1.3591,-1.3249,-1.2583,-1.2289,-1.2436,-1.285,-1.3107,-1.3304,-1.3576,-1.373,-1.3752,-1.3593,-1.326,-1.2879,-1.3411,-1.435,-1.5449,-1.6285,-1.7039,-1.782,-1.8525,-1.9436,-2.0334,-1.9696,-1.9569,-2.0042,-1.8717,-1.6537,-1.4898,-1.4706,-1.5025,-1.5641,-1.7733,-1.9711,-2.0133,-2.1609,-2.2885,-2.3323,-2.5075,-2.6547,-2.7217,-2.7721,-2.8422,-2.9211,-2.9172,-2.8929,-2.8802,-2.8482,-2.8223,-2.8168,-2.8063,-2.8087,-2.8299,-2.8255,-2.8327,-2.86,-2.865,-2.8637,-2.9138,-2.9646,-2.9935,-3.0192,-3.0386,-3.0758,-3.1348,-3.2349,-3.2773,-3.2886,-3.3042,-3.3211,-3.3386,-3.3481,-3.3452,-3.3481,-3.3538,-3.3538,-3.3419,-3.3268,-3.3096,-2.5607,-2.5924,-2.6089,-2.6206,-2.6276,-2.5868,-2.576,-2.5772,-2.5256,-2.4906,-2.4621,-2.4188,-2.3829,-2.3467,-2.3016,-2.2787,-2.2695,-2.2381,-2.1567,-2.0449,-2.0544,-2.0191,-1.9445,-1.9265,-1.8726,-1.7868,-1.7305,-1.6837,-1.6522,-1.6436,-1.6318,-1.6144,-1.5957,-1.5534,-1.4971,-1.4868,-1.4636,-1.4048,-1.3847,-1.3827,-1.4006,-1.3904,-1.3965,-1.4171,-1.407,-1.4145,-1.4638,-1.3825,-1.3524,-1.3816,-1.4133,-1.4647,-1.5468,-1.6322,-1.6989,-1.7562,-1.878,-1.9592,-1.9939,-1.9759,-1.9785,-2.0105,-1.865,-1.6913,-1.5478,-1.4704,-1.4775,-1.5515,-1.7381,-1.8871,-2.0373,-2.1824,-2.3097,-2.4223,-2.6086,-2.7539,-2.8267,-2.8743,-2.9054,-2.9167,-2.9034,-2.8845,-2.8651,-2.8353,-2.8182,-2.8112,-2.8011,-2.7993,-2.8021,-2.8039,-2.8042,-2.8242,-2.8345,-2.8846,-2.9441,-3.0143,-3.0636,-3.0868,-3.108,-3.1283,-3.1874,-3.2373,-3.2762,-3.3044,-3.3196,-3.3345,-3.3534,-3.3591,-3.3549,-3.3567,-3.3577,-3.3553,-3.3466,-3.336,-3.3187,-2.5848,-2.6503,-2.6537,-2.652,-2.6485,-2.6365,-2.626,-2.6187,-2.5864,-2.5535,-2.5253,-2.4827,-2.44,-2.3964,-2.3638,-2.3326,-2.309,-2.297,-2.2076,-2.0816,-2.0895,-2.0454,-1.9453,-1.8978,-1.8577,-1.7914,-1.7338,-1.6913,-1.6599,-1.6436,-1.634,-1.62,-1.6195,-1.5978,-1.5476,-1.5567,-1.5414,-1.5026,-1.46,-1.4633,-1.4808,-1.4459,-1.4398,-1.4748,-1.4726,-1.4835,-1.5206,-1.4353,-1.4115,-1.449,-1.4529,-1.4795,-1.541,-1.6255,-1.6894,-1.744,-1.8673,-1.9746,-1.9747,-1.9604,-1.9682,-1.9876,-1.8508,-1.7092,-1.6213,-1.5134,-1.5088,-1.5797,-1.6901,-1.8253,-1.9826,-2.1403,-2.2929,-2.4503,-2.6303,-2.7869,-2.8854,-2.927,-2.9304,-2.9137,-2.8932,-2.8743,-2.8556,-2.834,-2.8182,-2.8112,-2.8014,-2.7882,-2.7868,-2.7882,-2.7968,-2.8423,-2.9303,-2.9693,-2.9926,-3.0566,-3.1281,-3.1556,-3.1766,-3.1923,-3.2262,-3.2685,-3.3073,-3.3271,-3.3433,-3.3462,-3.3619,-3.3647,-3.3615,-3.3647,-3.3591,-3.3619,-3.3563,-3.3506,-3.3371,-2.5868,-2.6572,-2.6606,-2.6572,-2.6503,-2.6383,-2.6347,-2.6329,-2.6222,-2.5936,-2.55,-2.5044,-2.4547,-2.4063,-2.3581,-2.3268,-2.3105,-2.2992,-2.2309,-2.1457,-2.1178,-2.0622,-1.9598,-1.876,-1.8283,-1.7981,-1.7248,-1.6769,-1.6675,-1.647,-1.6352,-1.6237,-1.6419,-1.6512,-1.628,-1.6166,-1.6129,-1.5887,-1.5104,-1.5047,-1.5371,-1.4884,-1.4599,-1.5118,-1.5284,-1.5313,-1.5118,-1.4982,-1.4864,-1.4736,-1.4647,-1.4883,-1.5439,-1.6169,-1.6866,-1.723,-1.8682,-1.9473,-1.9656,-1.9331,-1.9121,-1.9188,-1.8305,-1.7398,-1.658,-1.5911,-1.5494,-1.5712,-1.6623,-1.7727,-1.9056,-2.0631,-2.2443,-2.4332,-2.6354,-2.7842,-2.8847,-2.9134,-2.9144,-2.9056,-2.8815,-2.8563,-2.8543,-2.8313,-2.8196,-2.8112,-2.8025,-2.7908,-2.7792,-2.7853,-2.806,-2.8896,-3.0062,-3.0524,-3.0744,-3.1151,-3.1865,-3.2248,-3.2355,-3.2378,-3.2558,-3.2921,-3.3268,-3.3491,-3.3654,-3.3678,-3.3619,-3.3629,-3.3526,-3.3379,-3.3455,-3.3611,-3.3526,-3.3339,-3.3358,-2.5943,-2.6657,-2.6674,-2.6657,-2.664,-2.6555,-2.652,-2.652,-2.645,-2.6169,-2.5791,-2.5554,-2.4981,-2.4333,-2.3973,-2.3631,-2.3275,-2.3105,-2.2403,-2.1445,-2.1298,-2.0622,-1.969,-1.8997,-1.8458,-1.8066,-1.7523,-1.7073,-1.6731,-1.6491,-1.634,-1.6212,-1.6504,-1.6584,-1.6433,-1.6913,-1.6785,-1.6417,-1.6721,-1.6205,-1.5545,-1.6046,-1.5826,-1.4726,-1.4756,-1.4638,-1.4478,-1.4913,-1.5021,-1.4765,-1.503,-1.5206,-1.5497,-1.6425,-1.7062,-1.7341,-1.812,-1.9042,-1.9436,-1.8989,-1.8213,-1.744,-1.765,-1.7306,-1.6731,-1.6084,-1.5683,-1.5735,-1.651,-1.7744,-1.9059,-2.0609,-2.2842,-2.5724,-2.7195,-2.8134,-2.8535,-2.8897,-2.8991,-2.8626,-2.8543,-2.844,-2.8313,-2.8232,-2.8168,-2.8112,-2.8021,-2.795,-2.7821,-2.7874,-2.8099,-2.957,-3.0688,-3.1188,-3.161,-3.1965,-3.2395,-3.289,-3.2913,-3.2695,-3.2847,-3.3078,-3.3401,-3.3671,-3.3883,-3.3923,-3.3719,-3.3605,-3.3397,-3.3292,-3.3291,-3.3394,-3.3001,-3.2768,-3.3011,-2.6139,-2.6708,-2.6708,-2.6708,-2.6691,-2.6606,-2.6623,-2.6589,-2.6537,-2.6276,-2.5899,-2.5591,-2.5095,-2.4395,-2.4015,-2.3653,-2.3282,-2.309,-2.2374,-2.1362,-2.0799,-2.0228,-1.9627,-1.9184,-1.8736,-1.8257,-1.7747,-1.7227,-1.6812,-1.6543,-1.6392,-1.6414,-1.6779,-1.6895,-1.6812,-1.7471,-1.744,-1.6732,-1.7009,-1.6673,-1.5575,-1.5748,-1.542,-1.451,-1.4302,-1.4213,-1.4371,-1.4874,-1.5079,-1.5059,-1.5332,-1.5604,-1.5623,-1.65,-1.709,-1.723,-1.7957,-1.8483,-1.8309,-1.8104,-1.8088,-1.7815,-1.7886,-1.7505,-1.72,-1.6629,-1.6171,-1.6154,-1.6781,-1.7908,-1.9471,-2.1158,-2.351,-2.6005,-2.743,-2.8031,-2.8232,-2.8558,-2.8614,-2.8458,-2.8353,-2.83,-2.8154,-2.82,-2.8186,-2.814,-2.8049,-2.7965,-2.7896,-2.8028,-2.8627,-3.0183,-3.1524,-3.2184,-3.2399,-3.266,-3.2821,-3.3291,-3.3247,-3.3039,-3.3124,-3.3349,-3.4029,-3.4338,-3.4276,-3.4135,-3.3942,-3.3738,-3.359,-3.3481,-3.3346,-3.3129,-3.2834,-3.2714,-3.2915,-2.6333,-2.6708,-2.6708,-2.6708,-2.6691,-2.664,-2.6623,-2.6589,-2.6486,-2.6206,-2.5809,-2.5346,-2.4859,-2.4313,-2.3846,-2.3451,-2.3282,-2.2988,-2.2154,-2.1167,-2.0351,-1.975,-1.968,-1.9254,-1.886,-1.8422,-1.7841,-1.731,-1.6926,-1.6629,-1.6479,-1.6588,-1.7152,-1.7364,-1.7298,-1.7917,-1.7759,-1.6974,-1.6985,-1.6521,-1.5565,-1.5157,-1.4767,-1.4323,-1.3893,-1.4034,-1.4392,-1.4864,-1.5118,-1.5235,-1.5672,-1.5798,-1.5817,-1.6464,-1.695,-1.7268,-1.7765,-1.7667,-1.6751,-1.714,-1.8147,-1.8871,-1.836,-1.7843,-1.7544,-1.7064,-1.674,-1.6571,-1.7062,-1.8425,-2.0483,-2.2363,-2.4245,-2.6212,-2.703,-2.7475,-2.789,-2.8183,-2.834,-2.8432,-2.8219,-2.8168,-2.8168,-2.8196,-2.8213,-2.8186,-2.8109,-2.8067,-2.835,-2.8851,-2.9699,-3.0999,-3.2207,-3.332,-3.3342,-3.3319,-3.3405,-3.3584,-3.3404,-3.3283,-3.3397,-3.3803,-3.4779,-3.5231,-3.5177,-3.4776,-3.4256,-3.4071,-3.3854,-3.3333,-3.2948,-3.2965,-3.3025,-3.3027,-3.3159,-2.6333,-2.6708,-2.6708,-2.6708,-2.6708,-2.6674,-2.6674,-2.6657,-2.6331,-2.5979,-2.5556,-2.5095,-2.4614,-2.4073,-2.3839,-2.3603,-2.3238,-2.2766,-2.1913,-2.0685,-2.002,-1.9738,-1.9617,-1.9306,-1.8912,-1.8461,-1.7928,-1.7393,-1.6981,-1.6727,-1.6568,-1.657,-1.7152,-1.7472,-1.7369,-1.795,-1.7881,-1.7084,-1.7245,-1.6701,-1.569,-1.5497,-1.5021,-1.4204,-1.348,-1.3359,-1.3773,-1.435,-1.4854,-1.5294,-1.5691,-1.5914,-1.5904,-1.6066,-1.656,-1.7157,-1.7363,-1.6944,-1.6017,-1.6218,-1.7185,-1.8724,-1.8348,-1.7529,-1.7088,-1.6989,-1.6786,-1.6825,-1.7462,-1.9355,-2.2345,-2.3772,-2.5163,-2.6522,-2.7181,-2.7413,-2.76,-2.7918,-2.8097,-2.8105,-2.8109,-2.8126,-2.82,-2.8196,-2.8196,-2.8196,-2.8182,-2.8168,-2.8784,-2.9541,-3.0968,-3.2265,-3.2661,-3.3623,-3.3752,-3.3739,-3.3833,-3.3924,-3.3787,-3.3684,-3.3771,-3.4659,-3.5781,-3.6125,-3.6066,-3.5512,-3.479,-3.4311,-3.4072,-3.332,-3.2712,-3.303,-3.3261,-3.3299,-3.367,-2.6505,-2.6691,-2.6708,-2.6708,-2.6708,-2.6708,-2.6708,-2.6624,-2.6263,-2.5872,-2.5449,-2.504,-2.4517,-2.4003,-2.3876,-2.3646,-2.3235,-2.2447,-2.1565,-2.0646,-2.0019,-1.9741,-1.969,-1.9439,-1.9105,-1.8553,-1.8167,-1.7618,-1.7052,-1.6786,-1.6728,-1.6809,-1.7335,-1.7605,-1.7631,-1.8105,-1.7781,-1.7112,-1.7357,-1.6909,-1.5633,-1.541,-1.4845,-1.3795,-1.3186,-1.3186,-1.3155,-1.4061,-1.443,-1.4824,-1.5546,-1.6058,-1.6,-1.6058,-1.6343,-1.6482,-1.7073,-1.6578,-1.5835,-1.5758,-1.6539,-1.8011,-1.7984,-1.7705,-1.7213,-1.6938,-1.7002,-1.7372,-1.846,-2.0388,-2.4064,-2.4831,-2.5835,-2.6607,-2.7038,-2.7135,-2.7434,-2.7713,-2.7911,-2.7922,-2.8014,-2.8099,-2.8154,-2.8209,-2.8232,-2.8246,-2.8209,-2.8276,-2.9396,-3.0362,-3.2411,-3.3499,-3.3462,-3.3739,-3.3975,-3.4099,-3.4221,-3.43,-3.433,-3.4272,-3.4305,-3.5577,-3.6976,-3.7099,-3.7129,-3.5998,-3.5279,-3.4817,-3.4175,-3.3562,-3.323,-3.3407,-3.367,-3.4005,-3.446,-2.6741,-2.6708,-2.6708,-2.6708,-2.6708,-2.6708,-2.6708,-2.6641,-2.6279,-2.5872,-2.5484,-2.5063,-2.4538,-2.4073,-2.3818,-2.3608,-2.2948,-2.2211,-2.1252,-2.0494,-2.0017,-1.9792,-1.9708,-1.9603,-1.924,-1.8572,-1.8344,-1.7808,-1.712,-1.6875,-1.6948,-1.7175,-1.7532,-1.7736,-1.796,-1.821,-1.7963,-1.7234,-1.744,-1.7134,-1.5748,-1.5264,-1.4264,-1.3329,-1.339,-1.3571,-1.3601,-1.4201,-1.4549,-1.4103,-1.5449,-1.6077,-1.622,-1.622,-1.6192,-1.5681,-1.6578,-1.6397,-1.569,-1.5575,-1.6054,-1.6912,-1.7506,-1.7655,-1.7208,-1.6983,-1.728,-1.839,-1.9684,-2.202,-2.5253,-2.5763,-2.6066,-2.6624,-2.6708,-2.6907,-2.7355,-2.7627,-2.7806,-2.7864,-2.7982,-2.8099,-2.8182,-2.825,-2.8273,-2.83,-2.8264,-2.8546,-2.9619,-3.117,-3.3115,-3.4189,-3.4072,-3.4054,-3.4251,-3.4323,-3.4459,-3.4676,-3.4764,-3.4764,-3.4885,-3.6083,-3.734,-3.8177,-3.8007,-3.6772,-3.5551,-3.4739,-3.418,-3.3724,-3.367,-3.3793,-3.4197,-3.4739,-3.5222,-2.6973,-2.6708,-2.6708,-2.6708,-2.6708,-2.6708,-2.6708,-2.6641,-2.6245,-2.5872,-2.5465,-2.5017,-2.4472,-2.4051,-2.3739,-2.3041,-2.2222,-2.1635,-2.1053,-2.0291,-1.9878,-1.9777,-1.978,-1.9654,-1.9221,-1.8693,-1.8422,-1.7902,-1.7203,-1.7184,-1.717,-1.7183,-1.769,-1.7981,-1.7949,-1.8142,-1.8111,-1.7551,-1.7617,-1.7217,-1.651,-1.5555,-1.4531,-1.3541,-1.3863,-1.4252,-1.4726,-1.5128,-1.5332,-1.5206,-1.5575,-1.6075,-1.6381,-1.6431,-1.6316,-1.6249,-1.6392,-1.6228,-1.5555,-1.5439,-1.5526,-1.5806,-1.6472,-1.6754,-1.662,-1.6774,-1.7645,-1.939,-2.1651,-2.4215,-2.5922,-2.6356,-2.6657,-2.7039,-2.7153,-2.72,-2.7481,-2.7707,-2.7882,-2.7908,-2.7996,-2.8109,-2.8223,-2.8358,-2.8457,-2.8492,-2.8456,-2.8676,-2.9416,-3.1331,-3.3524,-3.4211,-3.4469,-3.4508,-3.4609,-3.4605,-3.4669,-3.5005,-3.5127,-3.5117,-3.5488,-3.652,-3.7548,-3.849,-3.8292,-3.7081,-3.5939,-3.4879,-3.4252,-3.3899,-3.3987,-3.4128,-3.4917,-3.5595,-3.5857,-2.6841,-2.6708,-2.6708,-2.6708,-2.6708,-2.6708,-2.6691,-2.6555,-2.6015,-2.5577,-2.5179,-2.4639,-2.4177,-2.3882,-2.3646,-2.2835,-2.1919,-2.1405,-2.0849,-2.0129,-1.9797,-1.9726,-1.9744,-1.9599,-1.9091,-1.8655,-1.8442,-1.7928,-1.7033,-1.7207,-1.7316,-1.741,-1.7782,-1.7965,-1.8052,-1.8174,-1.8084,-1.7838,-1.77,-1.7479,-1.7011,-1.6036,-1.5108,-1.4332,-1.443,-1.4785,-1.4746,-1.5313,-1.5313,-1.5118,-1.5235,-1.5613,-1.597,-1.6296,-1.6402,-1.6374,-1.6374,-1.6105,-1.5536,-1.5449,-1.5613,-1.6054,-1.6443,-1.6715,-1.6894,-1.7401,-1.8572,-2.1016,-2.2904,-2.5433,-2.71,-2.7058,-2.7106,-2.7264,-2.733,-2.736,-2.745,-2.7632,-2.7733,-2.7864,-2.7982,-2.8109,-2.8286,-2.843,-2.8618,-2.8658,-2.8675,-2.9043,-2.9489,-3.1758,-3.4165,-3.4344,-3.4655,-3.4668,-3.4753,-3.4832,-3.4868,-3.5192,-3.5388,-3.5376,-3.5546,-3.6315,-3.764,-3.8921,-3.8236,-3.7274,-3.6252,-3.5202,-3.4655,-3.4146,-3.425,-3.4581,-3.5682,-3.6414,-3.6516,-2.6758,-2.6708,-2.6708,-2.6708,-2.6691,-2.659,-2.6521,-2.6313,-2.5684,-2.5218,-2.4887,-2.4256,-2.3867,-2.3687,-2.3304,-2.2655,-2.1657,-2.1174,-2.0737,-2.0203,-1.9836,-1.9711,-1.9603,-1.9424,-1.9035,-1.8364,-1.8403,-1.7888,-1.7165,-1.7295,-1.7486,-1.7545,-1.7661,-1.7941,-1.8194,-1.8104,-1.8002,-1.7838,-1.77,-1.7423,-1.6853,-1.6438,-1.5778,-1.4658,-1.5177,-1.5255,-1.505,-1.5459,-1.541,-1.5235,-1.5264,-1.5449,-1.5391,-1.5961,-1.6345,-1.6327,-1.6355,-1.6019,-1.5594,-1.542,-1.5642,-1.6054,-1.6557,-1.68,-1.7467,-1.8357,-2.038,-2.3326,-2.4793,-2.6143,-2.7601,-2.7607,-2.7381,-2.7404,-2.7392,-2.7343,-2.7405,-2.7463,-2.7476,-2.7642,-2.7864,-2.8112,-2.834,-2.8878,-2.9133,-2.939,-2.9394,-2.9832,-3.0552,-3.2814,-3.4643,-3.4672,-3.4781,-3.4762,-3.4851,-3.5034,-3.5127,-3.5335,-3.5469,-3.5502,-3.5544,-3.5748,-3.705,-3.8046,-3.8433,-3.747,-3.6501,-3.5521,-3.481,-3.4376,-3.4495,-3.5047,-3.6097,-3.6527,-3.6588,-2.6972,-2.6708,-2.6691,-2.6708,-2.6624,-2.6315,-2.607,-2.5837,-2.5408,-2.4875,-2.4389,-2.4137,-2.3809,-2.3387,-2.2816,-2.1953,-2.1227,-2.0894,-2.0678,-2.0229,-1.9977,-1.9747,-1.9566,-1.9693,-1.8926,-1.8246,-1.8226,-1.7747,-1.7252,-1.7508,-1.7603,-1.7531,-1.7902,-1.8217,-1.8011,-1.7979,-1.7772,-1.7579,-1.7534,-1.705,-1.6275,-1.6114,-1.5768,-1.5526,-1.5642,-1.5931,-1.5826,-1.6056,-1.5941,-1.5497,-1.6142,-1.5874,-1.5089,-1.5788,-1.6087,-1.6155,-1.6144,-1.6116,-1.5565,-1.541,-1.5439,-1.569,-1.5835,-1.594,-1.7294,-1.9538,-2.2245,-2.5965,-2.6386,-2.6862,-2.7858,-2.7827,-2.7596,-2.7554,-2.7617,-2.7587,-2.7557,-2.7151,-2.7164,-2.7535,-2.7799,-2.8149,-2.843,-2.9107,-2.9691,-2.9949,-3.0238,-3.0663,-3.1568,-3.366,-3.4851,-3.486,-3.487,-3.487,-3.4908,-3.5088,-3.5179,-3.5383,-3.5489,-3.5559,-3.5605,-3.558,-3.5296,-3.6205,-3.6857,-3.7202,-3.6098,-3.5232,-3.4753,-3.4535,-3.449,-3.5341,-3.6479,-3.6641,-3.6585,-2.6825,-2.6674,-2.6453,-2.6333,-2.6262,-2.587,-2.5561,-2.5281,-2.4839,-2.4471,-2.4095,-2.3666,-2.3236,-2.2676,-2.1917,-2.1265,-2.0768,-2.0536,-2.0381,-2.0139,-1.9904,-1.9708,-1.9636,-1.9328,-1.8635,-1.8311,-1.7989,-1.7783,-1.7434,-1.7446,-1.7545,-1.747,-1.788,-1.8116,-1.7909,-1.7897,-1.7799,-1.7523,-1.7134,-1.6578,-1.6132,-1.5923,-1.5749,-1.5449,-1.5884,-1.6066,-1.6134,-1.6173,-1.6124,-1.5912,-1.6495,-1.6467,-1.6028,-1.6485,-1.6983,-1.6673,-1.6189,-1.5894,-1.5604,-1.5468,-1.541,-1.5584,-1.5911,-1.6856,-1.836,-2.033,-2.283,-2.5825,-2.6497,-2.7205,-2.8116,-2.8404,-2.8084,-2.7897,-2.7893,-2.785,-2.7674,-2.7053,-2.6891,-2.732,-2.7776,-2.8262,-2.876,-2.9371,-3.0229,-3.1021,-3.122,-3.1488,-3.2394,-3.3893,-3.4684,-3.4879,-3.4908,-3.4945,-3.5001,-3.5107,-3.5051,-3.5195,-3.5364,-3.5463,-3.5605,-3.5528,-3.5154,-3.4772,-3.5132,-3.5275,-3.513,-3.5005,-3.4564,-3.4465,-3.4427,-3.5264,-3.6063,-3.6408,-3.6371,-2.6624,-2.6487,-2.6192,-2.5962,-2.5744,-2.5387,-2.5044,-2.4732,-2.4246,-2.3943,-2.3657,-2.3142,-2.2505,-2.1865,-2.1168,-2.0696,-2.0445,-2.011,-1.995,-1.9815,-1.9723,-1.9596,-1.9365,-1.8903,-1.8597,-1.8246,-1.7774,-1.7515,-1.7415,-1.7443,-1.7484,-1.7493,-1.785,-1.7972,-1.7854,-1.7772,-1.7689,-1.7518,-1.6927,-1.6549,-1.6361,-1.6085,-1.5923,-1.5855,-1.5931,-1.6056,-1.5972,-1.5943,-1.5961,-1.6077,-1.6306,-1.6449,-1.6733,-1.6937,-1.7473,-1.724,-1.6793,-1.5892,-1.5681,-1.5478,-1.542,-1.5719,-1.6489,-1.7665,-1.9303,-2.094,-2.2717,-2.5363,-2.6614,-2.734,-2.8031,-2.8688,-2.8524,-2.8276,-2.8228,-2.816,-2.7918,-2.7178,-2.6759,-2.7044,-2.7696,-2.8703,-2.9206,-2.9728,-3.0629,-3.1855,-3.2297,-3.2402,-3.3302,-3.4431,-3.4653,-3.4898,-3.4898,-3.4955,-3.5056,-3.51,-3.5044,-3.4988,-3.5144,-3.53,-3.5393,-3.5235,-3.487,-3.4458,-3.4049,-3.4091,-3.4393,-3.4422,-3.4441,-3.4285,-3.428,-3.4787,-3.5382,-3.5794,-3.6239,-2.6383,-2.6049,-2.6013,-2.5705,-2.5221,-2.4808,-2.4466,-2.4158,-2.376,-2.3355,-2.2966,-2.2425,-2.1882,-2.1309,-2.0783,-2.0266,-1.99,-1.9845,-1.9744,-1.9708,-1.9708,-1.9435,-1.9124,-1.8822,-1.8495,-1.7713,-1.7372,-1.7222,-1.7204,-1.7315,-1.7553,-1.7913,-1.7928,-1.7852,-1.7673,-1.7496,-1.7451,-1.7256,-1.6842,-1.6729,-1.6673,-1.6531,-1.6381,-1.6324,-1.62,-1.6085,-1.6066,-1.599,-1.5904,-1.5933,-1.6192,-1.6449,-1.6931,-1.7078,-1.7512,-1.7765,-1.723,-1.6415,-1.614,-1.5671,-1.542,-1.5872,-1.6824,-1.8255,-1.9812,-2.1792,-2.3524,-2.4866,-2.6358,-2.7336,-2.792,-2.8362,-2.8551,-2.8407,-2.8268,-2.8228,-2.7858,-2.7147,-2.6826,-2.6911,-2.7722,-2.8974,-3.0282,-3.0947,-3.1601,-3.2788,-3.3094,-3.3213,-3.3924,-3.4856,-3.4839,-3.4917,-3.487,-3.4936,-3.5075,-3.5029,-3.4793,-3.4735,-3.4804,-3.4969,-3.5136,-3.487,-3.4626,-3.4201,-3.3852,-3.3725,-3.3686,-3.3971,-3.4125,-3.398,-3.4092,-3.446,-3.4871,-3.5321,-3.5859,-2.5813,-2.5141,-2.5047,-2.491,-2.4657,-2.4178,-2.3894,-2.3696,-2.3385,-2.293,-2.2374,-2.1846,-2.1318,-2.0784,-2.0277,-1.9922,-1.9741,-1.9726,-1.9675,-1.9693,-1.9672,-1.9402,-1.9011,-1.8572,-1.8167,-1.7449,-1.7052,-1.709,-1.7348,-1.7315,-1.7612,-1.7853,-1.7915,-1.7765,-1.7551,-1.7095,-1.6994,-1.6976,-1.6542,-1.6161,-1.64,-1.6275,-1.6085,-1.5855,-1.6048,-1.5904,-1.5894,-1.6056,-1.597,-1.5989,-1.6332,-1.6599,-1.6835,-1.7022,-1.7512,-1.7995,-1.7379,-1.7285,-1.7062,-1.6312,-1.5449,-1.5767,-1.7036,-1.8879,-2.066,-2.2263,-2.3444,-2.4754,-2.6167,-2.7158,-2.7481,-2.815,-2.8596,-2.8365,-2.8246,-2.8214,-2.7829,-2.7131,-2.7267,-2.7521,-2.8526,-2.9701,-3.1069,-3.2375,-3.3021,-3.3698,-3.3853,-3.4089,-3.4699,-3.494,-3.4845,-3.4733,-3.4674,-3.4612,-3.4752,-3.4632,-3.4497,-3.4478,-3.447,-3.4534,-3.4648,-3.4725,-3.4453,-3.4005,-3.3643,-3.3534,-3.355,-3.3789,-3.3764,-3.3509,-3.3632,-3.3985,-3.4402,-3.4849,-3.5509,-2.5275,-2.4547,-2.4405,-2.4277,-2.411,-2.373,-2.3516,-2.3393,-2.3223,-2.2747,-2.2067,-2.1542,-2.101,-2.0472,-1.9964,-1.972,-1.9723,-1.9708,-1.9636,-1.9636,-1.9599,-1.9402,-1.8959,-1.8481,-1.7954,-1.7352,-1.6916,-1.6904,-1.7243,-1.7285,-1.7528,-1.7756,-1.7799,-1.7579,-1.7039,-1.6482,-1.6361,-1.657,-1.6257,-1.5874,-1.6314,-1.62,-1.6028,-1.5807,-1.5875,-1.5798,-1.5788,-1.5855,-1.596,-1.6036,-1.6226,-1.635,-1.656,-1.6899,-1.7446,-1.7573,-1.7738,-1.8159,-1.8023,-1.7268,-1.5777,-1.5719,-1.7522,-2.0003,-2.2149,-2.3005,-2.3825,-2.49,-2.6061,-2.686,-2.7166,-2.786,-2.8241,-2.8015,-2.8067,-2.8014,-2.7728,-2.7247,-2.7776,-2.8252,-2.9214,-3.0005,-3.1861,-3.3218,-3.439,-3.4897,-3.5019,-3.4976,-3.4934,-3.4969,-3.4577,-3.4472,-3.4379,-3.433,-3.4302,-3.4218,-3.4152,-3.4068,-3.4056,-3.3949,-3.4037,-3.4171,-3.4213,-3.3855,-3.3545,-3.3353,-3.3319,-3.3364,-3.3187,-3.2932,-3.303,-3.3061,-3.401,-3.4516,-3.5305,-2.4887,-2.441,-2.4328,-2.3988,-2.3618,-2.3573,-2.3407,-2.3216,-2.3209,-2.2798,-2.2067,-2.1521,-2.1005,-2.0453,-1.9882,-1.9683,-1.9705,-1.9672,-1.9545,-1.9398,-1.9527,-1.931,-1.8789,-1.8232,-1.7781,-1.7572,-1.7096,-1.6786,-1.6993,-1.7266,-1.7493,-1.7466,-1.7429,-1.7207,-1.6521,-1.5787,-1.5748,-1.6197,-1.6093,-1.6265,-1.6503,-1.641,-1.6288,-1.6077,-1.5865,-1.573,-1.5662,-1.5787,-1.5979,-1.6255,-1.6036,-1.6179,-1.6528,-1.6775,-1.729,-1.781,-1.8197,-1.8333,-1.81,-1.749,-1.6838,-1.6187,-1.797,-2.0694,-2.3343,-2.4205,-2.4186,-2.5096,-2.6352,-2.688,-2.7223,-2.7469,-2.7607,-2.7687,-2.7704,-2.7754,-2.7457,-2.7197,-2.7632,-2.8654,-2.9277,-3.0072,-3.2177,-3.4023,-3.5481,-3.6149,-3.6234,-3.5993,-3.5462,-3.4766,-3.4241,-3.4232,-3.4123,-3.4031,-3.3955,-3.3899,-3.3815,-3.371,-3.3634,-3.3602,-3.3578,-3.3716,-3.3694,-3.352,-3.3126,-3.2668,-3.2732,-3.2862,-3.2579,-3.2296,-3.1916,-3.2102,-3.3188,-3.4212,-3.4963,-2.4538,-2.412,-2.3931,-2.3711,-2.3509,-2.3429,-2.3341,-2.3223,-2.3068,-2.2644,-2.1981,-2.1453,-2.0905,-2.0342,-1.9827,-1.9563,-1.9672,-1.9541,-1.9376,-1.945,-1.9505,-1.8936,-1.8422,-1.8043,-1.762,-1.7156,-1.6805,-1.693,-1.7203,-1.7369,-1.7428,-1.7401,-1.7067,-1.687,-1.6531,-1.5835,-1.5216,-1.5901,-1.5796,-1.569,-1.6054,-1.6267,-1.6298,-1.6087,-1.5836,-1.571,-1.5652,-1.5864,-1.6283,-1.651,-1.6265,-1.6539,-1.6838,-1.7084,-1.6937,-1.7423,-1.7826,-1.8344,-1.8629,-1.8673,-1.8504,-1.8024,-1.859,-2.1157,-2.3641,-2.374,-2.4231,-2.5056,-2.611,-2.6433,-2.6441,-2.686,-2.7041,-2.7071,-2.7142,-2.733,-2.7201,-2.6979,-2.7257,-2.8807,-2.9805,-3.1844,-3.3916,-3.4429,-3.5625,-3.6547,-3.663,-3.6052,-3.548,-3.4454,-3.3721,-3.3871,-3.3878,-3.3738,-3.363,-3.3514,-3.3364,-3.3233,-3.3255,-3.3324,-3.3327,-3.3313,-3.286,-3.2551,-3.2231,-3.1966,-3.2109,-3.2196,-3.1914,-3.1618,-3.1445,-3.1553,-3.2483,-3.3591,-3.4574,-2.4168,-2.3861,-2.3674,-2.3566,-2.3538,-2.3451,-2.3385,-2.3275,-2.2994,-2.2446,-2.1713,-2.1316,-2.0739,-2.0078,-1.963,-1.9487,-1.965,-1.9505,-1.9483,-1.9556,-1.9465,-1.895,-1.8445,-1.8031,-1.7699,-1.7159,-1.7051,-1.717,-1.7193,-1.738,-1.7436,-1.7235,-1.6729,-1.6758,-1.6436,-1.5652,-1.4844,-1.5391,-1.5342,-1.5255,-1.5604,-1.5884,-1.6087,-1.5933,-1.5865,-1.5892,-1.594,-1.6312,-1.681,-1.6849,-1.6821,-1.7056,-1.7224,-1.7112,-1.6909,-1.7329,-1.7936,-1.8629,-1.9305,-1.9579,-1.9282,-1.8797,-1.9758,-2.136,-2.3297,-2.3789,-2.4318,-2.5044,-2.57,-2.5878,-2.5968,-2.64,-2.659,-2.664,-2.669,-2.6888,-2.6572,-2.6311,-2.7016,-2.8612,-3.007,-3.2539,-3.4854,-3.5201,-3.5604,-3.6318,-3.6923,-3.6115,-3.5326,-3.4347,-3.3481,-3.3587,-3.362,-3.3451,-3.3262,-3.3065,-3.2923,-3.2765,-3.2814,-3.2878,-3.2894,-3.2829,-3.2196,-3.164,-3.1564,-3.1524,-3.1545,-3.1507,-3.1432,-3.1372,-3.1274,-3.154,-3.2007,-3.3087,-3.4347,-2.3818,-2.3595,-2.3573,-2.3515,-2.3522,-2.3425,-2.3369,-2.3231,-2.2986,-2.2287,-2.1272,-2.1251,-2.0606,-1.9648,-1.942,-1.9483,-1.9556,-1.945,-1.9483,-1.9501,-1.9413,-1.8998,-1.8708,-1.8391,-1.8048,-1.7752,-1.7545,-1.7445,-1.724,-1.7407,-1.7484,-1.7245,-1.6729,-1.6747,-1.6368,-1.5497,-1.4864,-1.5011,-1.4991,-1.4932,-1.5196,-1.5662,-1.5817,-1.5846,-1.6028,-1.6169,-1.6415,-1.6894,-1.7213,-1.7101,-1.6691,-1.7084,-1.7279,-1.7224,-1.754,-1.8088,-1.8815,-1.9605,-1.994,-2.0118,-2.022,-2.0131,-2.1423,-2.2277,-2.2955,-2.3865,-2.4241,-2.485,-2.5487,-2.5584,-2.5737,-2.6021,-2.6311,-2.633,-2.6349,-2.6139,-2.5687,-2.595,-2.6807,-2.7994,-2.9159,-3.1252,-3.3847,-3.4791,-3.4905,-3.5287,-3.5626,-3.5268,-3.4562,-3.4205,-3.3481,-3.3378,-3.3342,-3.3162,-3.2961,-3.2834,-3.262,-3.2502,-3.2317,-3.2334,-3.2351,-3.2299,-3.1824,-3.1413,-3.1179,-3.1157,-3.1334,-3.1312,-3.1157,-3.1095,-3.1154,-3.1221,-3.1622,-3.3188,-3.4396,-2.3304,-2.3194,-2.2725,-2.2539,-2.2554,-2.2681,-2.2695,-2.2598,-2.2715,-2.2321,-2.1614,-2.1122,-2.0436,-1.9822,-1.9395,-1.9406,-1.9431,-1.9431,-1.9395,-1.9409,-1.945,-1.9214,-1.8971,-1.8681,-1.847,-1.8329,-1.8124,-1.7877,-1.7744,-1.7755,-1.7479,-1.7239,-1.6899,-1.6916,-1.6358,-1.54,-1.5031,-1.4776,-1.4677,-1.4617,-1.4854,-1.5362,-1.5556,-1.5807,-1.6208,-1.6358,-1.6585,-1.7589,-1.7902,-1.7584,-1.7251,-1.7501,-1.8045,-1.7979,-1.8201,-1.9542,-2.0446,-2.1164,-2.0771,-2.1213,-2.1396,-2.1173,-2.2171,-2.328,-2.3678,-2.3732,-2.3967,-2.453,-2.5002,-2.5075,-2.5404,-2.5749,-2.5917,-2.5939,-2.5905,-2.5629,-2.5307,-2.5763,-2.6686,-2.8159,-2.93,-3.103,-3.3493,-3.3828,-3.3964,-3.4204,-3.4268,-3.4094,-3.3971,-3.3666,-3.3404,-3.3271,-3.3196,-3.3039,-3.2864,-3.2719,-3.2453,-3.2231,-3.1986,-3.1751,-3.1715,-3.1604,-3.1376,-3.1142,-3.0922,-3.1018,-3.1252,-3.1134,-3.0918,-3.1092,-3.1131,-3.1131,-3.1486,-3.3009,-3.4021,-2.3061,-2.2934,-2.2374,-2.199,-2.1819,-2.2218,-2.2162,-2.1869,-2.2243,-2.2112,-2.1448,-2.0798,-2.0257,-1.9811,-1.9512,-1.9512,-1.9654,-1.9639,-1.9566,-1.9494,-1.9574,-1.9439,-1.9224,-1.9255,-1.9173,-1.8979,-1.8678,-1.8372,-1.8108,-1.7717,-1.7423,-1.7172,-1.7011,-1.6927,-1.6492,-1.568,-1.506,-1.4805,-1.4608,-1.4341,-1.4588,-1.5128,-1.5517,-1.572,-1.6226,-1.6472,-1.6726,-1.8011,-1.8267,-1.7886,-1.7529,-1.7749,-1.8467,-1.8792,-1.9228,-2.0396,-2.0858,-2.1348,-2.1372,-2.1626,-2.1674,-2.1815,-2.2507,-2.3225,-2.3693,-2.3764,-2.3841,-2.4082,-2.4301,-2.4542,-2.502,-2.5441,-2.5478,-2.5516,-2.5346,-2.5173,-2.5365,-2.5665,-2.6955,-2.8551,-3.0096,-3.1677,-3.2704,-3.284,-3.3072,-3.3396,-3.3574,-3.3542,-3.3556,-3.3553,-3.3283,-3.3068,-3.3037,-3.2959,-3.2768,-3.2453,-3.2127,-3.177,-3.1361,-3.1186,-3.1106,-3.0948,-3.0747,-3.0683,-3.0638,-3.0777,-3.0918,-3.0838,-3.0699,-3.0895,-3.1089,-3.1165,-3.1579,-3.2753,-3.3442,-2.3015,-2.2807,-2.22,-2.1623,-2.1351,-2.1875,-2.1719,-2.1027,-2.1663,-2.1545,-2.0933,-2.0364,-1.9919,-1.9716,-1.9675,-1.9767,-1.9874,-1.9877,-1.9782,-1.9674,-1.995,-1.9931,-1.9991,-2.0241,-2.0024,-1.9565,-1.9078,-1.8696,-1.8093,-1.77,-1.7385,-1.7039,-1.6955,-1.687,-1.6531,-1.5719,-1.5187,-1.5021,-1.4667,-1.4341,-1.4478,-1.499,-1.5604,-1.5555,-1.6083,-1.6669,-1.7157,-1.7804,-1.8441,-1.7913,-1.7738,-1.7957,-1.8874,-1.9799,-2.0421,-2.0784,-2.1166,-2.153,-2.1817,-2.1996,-2.21,-2.231,-2.2783,-2.3169,-2.3483,-2.358,-2.3577,-2.3681,-2.3897,-2.4199,-2.4648,-2.502,-2.5173,-2.5173,-2.5075,-2.4977,-2.5135,-2.5868,-2.7327,-2.8811,-3.0083,-3.1571,-3.2123,-3.2314,-3.2511,-3.2744,-3.2805,-3.2832,-3.3037,-3.3205,-3.3065,-3.2797,-3.27,-3.2586,-3.2248,-3.195,-3.1658,-3.13,-3.0965,-3.0683,-3.0679,-3.0435,-3.014,-3.0182,-3.0284,-3.0351,-3.0435,-3.0372,-3.0468,-3.0783,-3.0962,-3.1122,-3.1785,-3.27,-3.2858,-2.2987,-2.2472,-2.1122,-2.0807,-2.119,-2.0855,-2.1232,-2.1786,-2.1329,-2.1008,-2.0655,-2.0226,-1.9975,-1.9926,-1.9892,-2.0,-2.0208,-2.0208,-2.0065,-2.0159,-2.0378,-2.0651,-2.0498,-2.0884,-2.0811,-2.0543,-1.994,-1.8883,-1.81,-1.77,-1.7451,-1.7039,-1.6909,-1.6779,-1.6552,-1.5729,-1.5284,-1.5264,-1.4854,-1.4588,-1.4666,-1.4911,-1.5293,-1.5488,-1.596,-1.651,-1.7129,-1.8023,-1.836,-1.8236,-1.8306,-1.8845,-1.9773,-2.0584,-2.1055,-2.1264,-2.1554,-2.1888,-2.2077,-2.2208,-2.2333,-2.2426,-2.2746,-2.315,-2.3371,-2.3312,-2.335,-2.3437,-2.3631,-2.3943,-2.4261,-2.4623,-2.4859,-2.4839,-2.4835,-2.4866,-2.4949,-2.6302,-2.7705,-2.8949,-3.0129,-3.0858,-3.1451,-3.1802,-3.1984,-3.2056,-3.2055,-3.2144,-3.2487,-3.2685,-3.2669,-3.2436,-3.23,-3.2109,-3.1769,-3.1603,-3.1413,-3.1218,-3.0958,-3.0651,-3.0295,-2.9766,-2.9393,-2.9728,-2.9924,-2.9968,-2.9989,-2.9968,-3.013,-3.0497,-3.097,-3.1208,-3.1681,-3.2502,-3.2386,-2.333,-2.2419,-2.0807,-2.0586,-2.1088,-2.0501,-2.0829,-2.159,-2.1173,-2.0856,-2.0722,-2.0297,-2.0113,-2.0287,-2.0275,-2.0362,-2.0647,-2.0679,-2.0811,-2.0895,-2.112,-2.1485,-2.1576,-2.167,-2.1477,-2.1221,-1.9978,-1.8857,-1.81,-1.7711,-1.7451,-1.6994,-1.6807,-1.6676,-1.6449,-1.5826,-1.5478,-1.5507,-1.5108,-1.4961,-1.4902,-1.5088,-1.5352,-1.5575,-1.5739,-1.6265,-1.7407,-1.8321,-1.8815,-1.9133,-1.9345,-1.9593,-2.0308,-2.0993,-2.142,-2.1626,-2.1841,-2.2123,-2.224,-2.2394,-2.2555,-2.2692,-2.2873,-2.3319,-2.3486,-2.3489,-2.3607,-2.3681,-2.3588,-2.3837,-2.4152,-2.4482,-2.4513,-2.4487,-2.4709,-2.4843,-2.5524,-2.6679,-2.8053,-2.9362,-3.0197,-3.0575,-3.1106,-3.1487,-3.1674,-3.1802,-3.1727,-3.1893,-3.2144,-3.2162,-3.2127,-3.2091,-3.1949,-3.1621,-3.124,-3.122,-3.1295,-3.1098,-3.0892,-3.0671,-3.0279,-2.9227,-2.8646,-2.9182,-2.9499,-2.9483,-2.9483,-2.9506,-2.9853,-3.0269,-3.08,-3.1287,-3.1855,-3.2433,-3.2642,-2.3688,-2.2448,-2.0868,-2.0623,-2.1114,-2.054,-2.0789,-2.1479,-2.1194,-2.1173,-2.1371,-2.0844,-2.064,-2.068,-2.0955,-2.1022,-2.1199,-2.155,-2.172,-2.1818,-2.2287,-2.2393,-2.26,-2.284,-2.2195,-2.1221,-2.0016,-1.9162,-1.8417,-1.7909,-1.7351,-1.6902,-1.6733,-1.6637,-1.6335,-1.6077,-1.5817,-1.5643,-1.541,-1.5264,-1.5205,-1.5205,-1.54,-1.5449,-1.5594,-1.6046,-1.7518,-1.8724,-1.941,-1.985,-2.0194,-2.0484,-2.0807,-2.1372,-2.1674,-2.1949,-2.2067,-2.2184,-2.2254,-2.2463,-2.2737,-2.2971,-2.3209,-2.3363,-2.353,-2.3659,-2.3767,-2.3873,-2.3767,-2.3894,-2.4214,-2.4385,-2.4374,-2.4524,-2.4797,-2.5185,-2.618,-2.7048,-2.8217,-2.9548,-3.0081,-3.0406,-3.073,-3.1123,-3.1389,-3.1521,-3.169,-3.1875,-3.1966,-3.1784,-3.1673,-3.1674,-3.1637,-3.1237,-3.0834,-3.0858,-3.1041,-3.0818,-3.0605,-3.0568,-3.0405,-2.9837,-2.928,-2.8826,-2.9067,-2.9189,-2.912,-2.9097,-2.9499,-3.0016,-3.0626,-3.1281,-3.2329,-3.2895,-3.3296,-2.3661,-2.1998,-2.1044,-2.09,-2.1175,-2.0656,-2.1228,-2.2298,-2.1835,-2.2066,-2.2519,-2.228,-2.1811,-2.1199,-2.1679,-2.1842,-2.1843,-2.2312,-2.2293,-2.2254,-2.3015,-2.3188,-2.3183,-2.3167,-2.2312,-2.1283,-2.027,-1.9437,-1.8833,-1.7952,-1.7239,-1.6948,-1.6722,-1.6524,-1.621,-1.599,-1.5856,-1.5672,-1.5498,-1.5323,-1.5459,-1.5391,-1.5216,-1.5468,-1.595,-1.6821,-1.7972,-1.9123,-1.9657,-2.0118,-2.0646,-2.1017,-2.1323,-2.1698,-2.2044,-2.2184,-2.2278,-2.2324,-2.2417,-2.2592,-2.2873,-2.326,-2.3414,-2.3407,-2.3523,-2.3595,-2.3831,-2.4224,-2.4245,-2.4379,-2.4634,-2.4703,-2.475,-2.5159,-2.5484,-2.612,-2.6943,-2.7287,-2.7905,-2.9051,-2.9968,-3.023,-3.0481,-3.0885,-3.1312,-3.1445,-3.1632,-3.1783,-3.1746,-3.15,-3.1249,-3.1291,-3.1332,-3.1075,-3.077,-3.0654,-3.0716,-3.0485,-3.0359,-3.038,-3.0531,-3.0875,-3.041,-2.9705,-2.9205,-2.9143,-2.9005,-2.8975,-2.932,-2.9863,-3.0455,-3.1209,-3.2423,-3.341,-3.3883]},{"header":{"parameterUnit":"m.s-1","parameterCategory":1,"la1":31.0,"la2":29.5877,"lo1":-88.7671,"lo2":-86.6584,"dx":0.0162,"dy":0.0185,"nx":115,"ny":88,"refTime":"2022-12-06T06:00:00:Z","depth":0,"parameterNumber":3,"parameterNumberName":"V-component_of_WINDS"},"data":[0.0,0.0,0.0,0.0,0.0,0.0,0.0,0.0,0.0,0.0,0.0,0.0,0.0,0.0,0.0,0.0,0.0,0.0,0.0,0.0,0.0,0.0,0.0,0.0,0.0,0.0,0.0,0.0,0.0,0.0,0.0,0.0,0.0,0.0,0.0,0.0,0.0,0.0,0.0,0.0,0.0,0.0,0.0,0.0,0.0,0.0,0.0,0.0,0.0,0.0,0.0,0.0,0.0,0.0,0.0,0.0,0.0,0.0,0.0,0.0,0.0,0.0,0.0,0.0,0.0,0.0,0.0,0.0,0.0,0.0,0.0,0.0,0.0,0.0,0.0,0.0,0.0,0.0,0.0,0.0,0.0,0.0,0.0,0.0,0.0,0.0,0.0,0.0,0.0,0.0,0.0,0.0,0.0,0.0,0.0,0.0,0.0,0.0,0.0,0.0,0.0,0.0,0.0,0.0,0.0,0.0,0.0,0.0,0.0,0.0,0.0,0.0,0.0,0.0,0.0,0.0,0.0,0.0,0.0,0.0,0.0,0.0,0.0,0.0,0.0,0.0,0.0,0.0,0.0,0.0,0.0,0.0,0.0,0.0,0.0,0.0,0.0,0.0,0.0,0.0,0.0,0.0,0.0,0.0,0.0,0.0,0.0,0.0,0.0,0.0,0.0,0.0,0.0,0.0,0.0,0.0,0.0,0.0,0.0,0.0,0.0,0.0,0.0,0.0,0.0,0.0,0.0,0.0,0.0,0.0,0.0,0.0,0.0,0.0,0.0,0.0,0.0,0.0,0.0,0.0,0.0,0.0,0.0,0.0,0.0,0.0,0.0,0.0,0.0,0.0,0.0,0.0,0.0,0.0,0.0,0.0,0.0,0.0,0.0,0.0,0.0,0.0,0.0,0.0,0.0,0.0,0.0,0.0,0.0,0.0,0.0,0.0,0.0,0.0,0.0,0.0,0.0,0.0,0.0,0.0,0.0,0.0,0.0,0.0,0.0,0.0,0.0,0.0,0.0,0.0,0.0,0.0,0.0,0.0,0.0,0.0,0.0,0.0,0.0,0.0,0.0,0.0,0.0,0.0,0.0,0.0,0.0,0.0,0.0,0.0,0.0,0.0,0.0,0.0,0.0,0.0,0.0,0.0,0.0,0.0,0.0,0.0,0.0,0.0,0.0,0.0,0.0,0.0,0.0,0.0,0.0,0.0,0.0,0.0,0.0,0.0,0.0,0.0,0.0,0.0,0.0,0.0,0.0,0.0,0.0,0.0,0.0,0.0,0.0,0.0,0.0,0.0,0.0,0.0,0.0,0.0,0.0,0.0,0.0,0.0,0.0,0.0,0.0,0.0,0.0,0.0,0.0,0.0,0.0,0.0,0.0,0.0,0.0,0.0,0.0,0.0,0.0,0.0,0.0,0.0,0.0,0.0,0.0,0.0,0.0,0.0,0.0,0.0,0.0,0.0,0.0,0.0,0.0,0.0,0.0,0.0,0.0,0.0,0.0,0.0,0.0,0.0,0.0,0.0,0.0,0.0,0.0,0.0,0.0,0.0,0.0,0.0,0.0,0.0,0.0,0.0,0.0,0.0,0.0,0.0,0.0,0.0,0.0,0.0,0.0,0.0,0.0,0.0,0.0,0.0,0.0,0.0,0.0,0.0,0.0,0.0,0.0,0.0,0.0,0.0,0.0,0.0,0.0,0.0,0.0,0.0,0.0,0.0,0.0,0.0,0.0,0.0,0.0,0.0,0.0,0.0,0.0,0.0,0.0,0.0,0.0,0.0,0.0,0.0,0.0,0.0,0.0,0.0,0.0,0.0,0.0,0.0,0.0,0.0,0.0,0.0,0.0,0.0,0.0,0.0,0.0,0.0,0.0,0.0,0.0,0.0,0.0,0.0,0.0,0.0,0.0,0.0,0.0,0.0,0.0,0.0,0.0,0.0,0.0,0.0,0.0,0.0,0.0,0.0,0.0,0.0,0.0,0.0,0.0,0.0,0.0,0.0,0.0,0.0,0.0,0.0,0.0,0.0,0.0,0.0,0.0,0.0,0.0,0.0,0.0,0.0,0.0,0.0,0.0,0.0,0.0,0.0,0.0,0.0,0.0,0.0,0.0,0.0,0.0,0.0,0.0,0.0,0.0,0.0,0.0,0.0,0.0,0.0,0.0,0.0,0.0,0.0,0.0,0.0,0.0,0.0,0.0,0.0,0.0,0.0,0.0,0.0,0.0,0.0,0.0,0.0,0.0,0.0,0.0,0.0,0.0,0.0,0.0,0.0,0.0,0.0,0.0,0.0,0.0,0.0,0.0,0.0,0.0,0.0,0.0,0.0,0.0,0.0,0.0,0.0,0.0,0.0,0.0,0.0,0.0,0.0,0.0,0.0,0.0,0.0,0.0,0.0,0.0,0.0,0.0,0.0,0.0,0.0,0.0,0.0,0.0,0.0,0.0,0.0,0.0,0.0,0.0,0.0,0.0,0.0,0.0,0.0,0.0,0.0,0.0,0.0,0.0,0.0,0.0,0.0,0.0,0.0,0.0,0.0,0.0,0.0,0.0,0.0,0.0,0.0,0.0,0.0,0.0,0.0,0.0,0.0,0.0,0.0,0.0,0.0,0.0,0.0,0.0,0.0,0.0,0.0,0.0,0.0,0.0,0.0,0.0,0.0,0.0,0.0,0.0,0.0,0.0,0.0,0.0,0.0,0.0,0.0,0.0,0.0,0.0,0.0,0.0,0.0,0.0,0.0,0.0,0.0,0.0,0.0,0.0,0.0,0.0,0.0,0.0,0.0,0.0,0.0,0.0,0.0,0.0,0.0,0.0,0.0,0.0,0.0,0.0,0.0,0.0,0.0,0.0,0.0,0.0,0.0,0.0,0.0,0.0,0.0,0.0,0.0,0.0,0.0,0.0,0.0,0.0,0.0,0.0,0.0,0.0,0.0,0.0,0.0,0.0,0.0,0.0,0.0,0.0,0.0,0.0,0.0,0.0,0.0,0.0,0.0,0.0,0.0,0.0,0.0,0.0,0.0,0.0,0.0,0.0,0.0,0.0,0.0,0.0,0.0,0.0,0.0,0.0,0.0,0.0,0.0,0.0,0.0,0.0,0.0,0.0,0.0,0.0,0.0,0.0,0.0,0.0,0.0,0.0,0.0,0.0,0.0,0.0,0.0,0.0,0.0,0.0,0.0,0.0,0.0,0.0,0.0,0.0,0.0,0.0,0.0,0.0,0.0,0.0,0.0,0.0,0.0,0.0,0.0,0.0,0.0,0.0,0.0,0.0,0.0,0.0,0.0,0.0,0.0,0.0,0.0,0.0,0.0,0.0,0.0,0.0,0.0,0.0,0.0,0.0,0.0,0.0,0.0,0.0,0.0,0.0,0.0,0.0,0.0,0.0,0.0,0.0,0.0,0.0,0.0,0.0,0.0,0.0,0.0,0.0,0.0,0.0,0.0,0.0,0.0,0.0,0.0,0.0,0.0,0.0,0.0,0.0,0.0,0.0,0.0,0.0,0.0,0.0,0.0,0.0,0.0,0.0,0.0,0.0,0.0,0.0,0.0,0.0,0.0,0.0,0.0,0.0,0.0,0.0,0.0,0.0,0.0,0.0,0.0,0.0,0.0,0.0,0.0,0.0,0.0,0.0,0.0,0.0,0.0,0.0,0.0,0.0,0.0,0.0,0.0,0.0,0.0,0.0,0.0,0.0,0.0,0.0,0.0,0.0,0.0,0.0,0.0,0.0,0.0,0.0,0.0,0.0,0.0,0.0,0.0,0.0,0.0,0.0,0.0,0.0,0.0,0.0,0.0,0.0,0.0,0.0,0.0,0.0,0.0,0.0,0.0,0.0,0.0,0.0,0.0,0.0,0.0,0.0,0.0,0.0,0.0,0.0,0.0,0.0,0.0,0.0,0.0,0.0,0.0,0.0,0.0,0.0,0.0,0.0,0.0,0.0,0.0,0.0,0.0,0.0,0.0,0.0,0.0,0.0,0.0,0.0,0.0,0.0,0.0,0.0,0.0,0.0,0.0,0.0,0.0,0.0,0.0,0.0,0.0,0.0,0.0,0.0,0.0,0.0,0.0,0.0,0.0,0.0,0.0,0.0,0.0,0.0,0.0,0.0,0.0,0.0,0.0,0.0,0.0,0.0,0.0,0.0,0.0,0.0,0.0,0.0,0.0,0.0,0.0,0.0,0.0,0.0,0.0,0.0,0.0,0.0,0.0,0.0,0.0,0.0,0.0,0.0,0.0,0.0,0.0,0.0662,0.0,0.0,0.0,0.0922,0.0,0.0,0.0,0.0,0.0,0.0,0.0,0.0,0.0,0.0,0.0,0.0,0.0,0.0,0.0,0.0,0.0,0.0,0.0,0.0,0.0,0.0,0.0,0.0,0.0,0.0,0.0,0.0,0.0,0.0,0.0,0.0,0.0,0.0,0.0,0.0,0.0,0.0,0.0,0.0,0.0,0.0,0.0,0.0,0.0,0.0,0.0,0.0,0.0,0.0,0.0,0.0,0.0,0.0,0.0,0.0,0.0,0.0,0.0,0.0,0.0,0.0,0.0,0.0,0.0,0.0,0.0,0.0,0.0,0.0,0.0,0.0,0.0,0.0,0.0,0.0,0.0,0.0,0.0,0.0,0.0,0.0,0.0,0.0,0.0,0.0,0.0,0.0,0.0,0.0,0.0,0.0,0.0,0.0,0.0,0.0,0.0,0.0,0.0,0.0,0.0,0.0,0.0,0.0,0.0,0.0,0.0,0.0,0.0,0.0,0.0769,0.0699,0.0687,0.0781,0.1004,0.0,0.0,0.0,0.0,0.0,0.0,0.0,0.0,0.0,0.0,0.0,0.0,0.0,0.0,0.0,0.0,0.0,0.0,0.0,0.0,0.0,0.0,0.0,0.0,0.0,0.0,0.0,0.0,0.0,0.0,0.0,0.0,0.0,0.0,0.0,0.0,0.0,0.0,0.0,0.0,0.0,0.0,0.0,0.0,0.0,0.0,0.0,0.0,0.0,0.0,0.0,0.0,0.0,0.0,0.0,0.0,0.0,0.0,0.0,0.0,0.0,0.0,0.0,0.0,0.0,0.0,0.0,0.0,0.0,0.0,0.0,0.0,0.0,0.0,0.0,0.0,0.0,0.0,0.0,0.0,0.0,0.0,0.0,0.0,0.0,0.0,0.0,0.0,0.0,0.0,0.0,0.0,0.0,0.0,0.0,0.0,0.0,0.0,0.0,0.0,0.0,0.0,0.0,0.0,0.0,0.0,0.0,0.0,0.0,0.0,0.0,0.0,0.0918,0.1083,0.1255,0.0,0.0,0.0,0.0,0.0,0.0,0.0,0.0,0.0,0.0,0.0,0.0,0.0,0.0,0.0,0.0,0.0,0.0,0.0,0.0,0.0,0.0,0.0,0.0,0.0,0.0,0.0,0.0,0.0,0.0,0.0,0.0,0.0,0.0,0.0,0.0,0.0,0.0,0.0,0.0,0.0,0.0,0.0,0.0,0.0,0.0,0.0,0.0,0.0,0.0,0.0,0.0,0.0,0.0,0.0,0.0,0.0,0.0,0.0,0.0,0.0,0.0,0.0,0.0,0.0,0.0,0.0,0.0,0.0,0.0,0.0,0.0,0.0,0.0,0.0,0.0,0.0,0.0,0.0,0.0,0.0,0.0,0.0,0.0,0.0,0.0,0.0,0.0,0.0,0.0,0.0,0.0,0.0,0.0,0.0,0.0,0.0,0.0,0.0,0.0,0.0,0.0,0.0,0.0,0.0,0.0,0.0,0.0,0.0,0.0,0.0831,0.1068,0.1188,0.0,0.1725,0.0,0.0,0.0,0.0,0.0,0.0,0.0,0.0,0.0,0.0,0.0,0.0,0.0,0.0,0.0,0.0,0.0,0.0,0.0,0.0,0.0,0.0,0.0,0.0,0.0,0.0,0.0,0.0,0.0,0.0,0.0,0.0,0.0,0.0,0.0,0.0,0.0,0.0,0.0,0.0,0.0,0.0,0.0,0.0,0.0,0.0,0.0,0.0,0.0,0.0,0.0,0.0,0.0,0.0,0.0,0.0,0.0,0.0,0.0,0.0,0.0,0.0,0.0,0.0,0.0,0.0,0.0,0.0,0.0,0.0,0.0,0.0,0.0,0.0,0.0,0.0,0.0,0.0,0.0,0.0,0.0,0.0,0.0,0.0,0.0,0.0,0.0,0.0,0.0,0.0,0.0,0.0,0.0,0.0,0.0,0.0,0.0,0.0,0.0,0.0,0.0,0.0,0.0,0.0,0.0,0.0,0.0,0.0,0.0,0.0,0.0986,0.1095,0.1303,0.1593,0.0,0.0,0.0,0.0,0.0,0.0,0.0,0.0,0.0,0.0,0.0,0.0,0.0,0.0,0.0,0.0,0.0,0.0,0.0,0.0,0.0,0.0,0.0,0.0,0.0,0.0,0.0,0.0,0.0,0.0,0.0,0.0,0.0,0.0,0.0,0.0,0.0,0.0,0.0,0.0,0.0,0.0,0.0,0.0,0.0,0.0,0.0,0.0,0.0,0.0,0.0,0.0,0.0,0.0,0.0,0.0,0.0,0.0,0.0,0.0,0.0,0.0,0.0,0.0,0.0,0.0,0.0,0.0,0.0,0.0,0.0,0.0,0.0,0.0,0.0,0.0,0.0,0.0,0.0,0.0,0.0,0.0,0.0,0.0,0.0,0.0,0.0,0.0,0.0,0.0,0.0,0.0,0.0,0.0,0.0,0.0,0.0,0.0,0.0,0.0,0.0,0.0,0.0,0.0,0.0,0.0,0.0,0.0,0.0,0.0,0.1075,0.1203,0.139,0.1748,0.2059,0.2228,0.0,0.0,0.0,0.0,0.0,0.0,0.0,0.0,0.0,0.0,0.0,0.0,0.0,0.0,0.0,0.0,0.0,0.0,0.0,0.0,0.0,0.0,0.0,0.0,0.0,0.0,0.0,0.0,0.0,0.0,0.0,0.0,0.0,0.0,0.0,0.0,0.0,0.0,0.0,0.0,0.0,0.0,0.0,0.0,0.0,0.0,0.0,0.0,0.0,0.0,0.0,0.0,0.0,0.0,0.0,0.0,0.0,0.0,0.0,0.0,0.0,0.0,0.0,0.0,0.0,0.0,0.0,0.0,0.0,0.0,0.0,0.0,0.0,0.0,0.0,0.0,0.0,0.0,0.0,0.0,0.0,0.0,0.0,0.0,0.0,0.0,0.0,0.0,0.0,0.0,0.0,0.0,0.0,0.0,0.0,0.0,0.0,0.0,0.0,0.0,0.0,0.0,0.0,0.0,0.0,0.0,0.0,0.0,0.1174,0.119,0.1464,0.2031,0.2734,0.2941,0.0,0.0,0.0,0.0,0.0,0.0,0.0,0.0,0.0,0.0,0.0,0.0,0.0,0.0,0.0,0.0,0.0,0.0,0.0,0.0,0.0,0.0,0.0,0.0,0.0,0.0,0.0,0.0,0.0,0.0,0.0,0.0,0.0,0.0,0.0,0.0,0.0,0.0,0.0,0.0,0.0,0.0,0.0,0.0,0.0,0.0,0.0,0.0,0.0,0.0,0.0,0.0,0.0,0.0,0.0,0.0,0.0,0.0,0.0,0.0,0.0,0.0,0.0,0.0,0.0,0.0,0.0,0.0,0.0,0.0,0.0,0.0,0.0,0.0,0.0,0.0,0.0,0.0,0.0,0.0,0.0,0.0,0.0,0.0,0.0,0.0,0.0,0.0,0.0,0.0,0.0,0.0,0.0,0.0,0.0,0.0,0.0,0.0,0.0,0.0,0.0,0.0,0.0,0.0,0.0,0.0,0.0,0.0,0.0,0.0709,0.1055,0.1468,0.1887,0.1794,0.2343,0.0,0.0,0.0,0.0,0.0,0.0,0.0,0.0,0.0,0.0,0.0,0.0,0.0,0.0,0.0,0.0,0.0,0.0,0.0,0.0,0.0,0.0,0.0,0.0,0.0,0.0,0.0,0.0,0.0,0.0,0.0,0.0,0.0,0.0,0.0,0.0,0.0,0.0,0.0,0.0,0.0,0.0,0.0,0.0,0.0,0.0,0.0,0.0,0.0,0.0,0.0,0.0,0.0,0.0,0.0,0.0,0.0,0.0,0.0,0.0,0.0,0.0,0.0,0.0,0.0,0.0,0.0,0.0,0.0,0.0,0.0,0.0,0.0,0.0,0.0,0.0,0.0,0.0,0.0,0.0,0.0,0.0,0.0,0.0,0.0,0.0,0.0,0.0,0.0,0.0,0.0,0.0,0.0,0.0,0.0,0.0,0.0,0.0,0.0,0.0,0.0,0.0,0.0,0.0,0.0,0.0,0.0,0.0,0.0,0.0581,0.0896,0.1217,0.1502,0.1481,0.1912,0.0,0.0,0.0,0.0,0.0,0.0,0.0,0.0,0.0,0.0,0.0,0.0,0.0,0.0,0.0,0.0,0.0,0.0,0.0,0.0,0.0,0.0,0.0,0.0,0.0,0.0,0.0,0.0,0.0,0.0,0.0,0.0,0.0,0.0,0.0,0.0,0.0,0.0,0.0,0.0,0.0,0.0,0.0,0.0,0.0,0.0,0.0,0.0,0.0,0.0,0.0,0.0,0.0,0.0,0.0,0.0,0.0,0.0,0.0,0.0,0.0,0.0,0.0,0.0,0.0,0.0,0.0,0.0,0.0,0.0,0.0,0.0,0.0,0.0,0.0,0.0,0.0,0.0,0.0,0.0,0.0,0.0,0.0,0.0,0.0,0.0,0.0,0.0,0.0,0.0,0.0,0.0,0.0,0.0,0.0,0.0,0.0,0.0,0.0,0.0,0.0,0.0,0.0,0.0,0.0,0.0,0.0,0.0,0.0886,0.0882,0.0735,0.08,0.0947,0.1928,0.1745,0.0,0.0,0.0,0.0,0.0,0.0,0.0,0.0,0.0,0.0,0.0,0.0,0.0,0.0,0.0,0.0,0.0,0.0,0.0,0.0,0.0,0.0,0.0,0.0,0.0,0.0,0.0,0.0,0.0,0.0,0.0,0.0,0.0,0.0,0.0,0.0,0.0,0.0,0.0,0.0,0.0,0.0,0.0,0.0,0.0,0.0,0.0,0.0,0.0,0.0,0.0,0.0,0.0,0.0,0.0,0.0,0.0,0.0,0.0,0.0,0.0,0.0,0.0,0.0,0.0,0.0,0.0,0.0,0.0,0.0,0.0,0.0,0.0,0.0,0.0,0.0,0.0,0.0,0.0,0.0,0.0,0.0,0.0,0.0,0.0,0.0,0.0,0.0,0.0,0.0,0.0,0.0,0.0,0.0,0.0,0.0,0.0,0.0,0.0,0.0,0.0,0.0,0.0,0.0,0.0,0.0,0.0,0.0,0.0,0.0909,0.1247,0.1629,0.2015,0.1241,0.0939,0.0,0.0,0.0,0.0,0.0,0.0,0.0,0.0,0.0,0.0,0.0,0.0,0.0,0.0,0.0,0.0,0.0,0.0,0.0,0.0,0.0,0.0,0.0,0.0,0.0,0.0,0.0,0.0,0.0,0.0,0.0,0.0,0.0,0.0,0.0,0.0,0.0,0.0,0.0,0.0,0.0,0.0,0.0,0.0,0.0,0.0,0.0,0.0,0.0,0.0,0.0,0.0,0.0,0.0,0.0,0.0,0.0,0.0,0.0,0.0,0.0,0.0,0.0,0.0,0.0,0.0,0.0,0.0,0.0,0.0,0.0,0.0,0.0,0.0,0.0,0.0,0.0,0.0,0.0,0.0,0.0,0.0,0.0,0.0,0.0,0.0,0.0,0.0,0.0,0.0,0.0,0.0,0.0,0.0,0.0,0.0,0.0,0.0,0.0,0.0,0.0,0.0,0.0,0.0,0.0,0.0,0.0,0.0,0.0,0.2413,0.2333,0.2291,0.2294,0.1238,0.0969,0.1563,0.0,0.0,0.0,0.0,0.0,0.0,0.0,0.0,0.0,0.0,0.0,0.0,0.0,0.0,0.0,0.0,0.0,0.0,0.0,0.0,0.0,0.0,0.0,0.0,0.0,0.0,0.0,0.0,0.0,0.0,0.0,0.0,0.0,0.0,0.0,0.0,0.0,0.0,0.0,0.0,0.0,0.0,0.0,0.0,0.0,0.0,0.0,0.0,0.0,0.0,0.0,0.0,0.0,0.0,0.0,0.0,0.0,0.0,0.0,0.0,0.0,0.0,0.0,0.0,0.0,0.0,0.0,0.0,0.0,0.0,0.0,0.0,0.0,0.0,0.0,0.0,0.0,0.0,0.0,0.0,0.0,0.0,0.0,0.0,0.0,0.0,0.0,0.0,0.0,0.0,0.0,0.0,0.0,0.0,0.0,0.0,0.0,0.0,0.0,0.0,0.0,0.0,0.0,0.0,0.0,0.0,0.0,0.0,0.5069,0.3939,0.2932,0.2096,0.1884,0.1661,0.0,0.0,0.0,0.0,0.0,0.0,0.0,0.0,0.0,0.0,0.0,0.0,0.0,0.0,0.0,0.0,0.0,0.0,0.0,0.0,0.0,0.0,0.0,0.0,0.0,0.0,0.0,0.0,0.0,0.0,0.0,0.0,0.0,0.0,0.0,0.0,0.0,0.0,0.0,0.0,0.0,0.0,0.0,0.0,0.0,0.0,0.0,0.0,0.0,0.0,0.0,0.0,0.0,0.0,0.0,0.0,0.0,0.0,0.0,0.0,0.0,0.0,0.0,0.0,0.0,0.0,0.0,0.0,0.0,0.0,0.0,0.0,0.0,0.0,0.0,0.0,0.0,0.0,0.0,0.0,0.0,0.0,0.0,0.0,0.0,0.0,0.0,0.0,0.0,0.0,0.0,0.0,0.0,0.0,0.0,0.0,0.0,0.0,0.0,0.0,0.0,0.0,0.0,0.0,0.0,0.0,0.0,0.0,0.0,0.5992,0.6091,0.5612,0.4543,0.2761,0.1944,0.0,0.0,0.0,0.0,0.0,0.0,0.0,0.0,0.0,0.0,0.0,0.0,0.0,0.0,0.0,0.0,0.0,0.0,0.0,0.0,0.0,0.0,0.0,0.0,0.0,0.0,0.0,0.0,0.0,0.0,0.0,0.0,0.0,0.0,0.0,0.0,0.0,0.0,0.0,0.0,0.0,0.0,0.0,0.0,0.0,0.0,0.0,0.0,0.0,0.0,0.0,0.0,0.0,0.0,0.0,0.0,0.0,0.0,0.0,0.0,0.0,0.0,0.0,0.0,0.0,0.0,0.0,0.0,0.0,0.0,0.0,0.0,0.0,0.0,0.0,0.0,0.0,0.0,0.0,0.0,0.0,0.0,0.0,0.0,0.0,0.0,0.0,0.0,0.0,0.0,0.0,0.0,0.0,0.0,0.0,0.0,0.0,0.0,0.0,0.0,0.0,0.0,0.0,0.0,0.0,0.0,0.0,0.0,0.5935,0.6891,0.7732,0.7867,0.7237,0.4758,0.336,0.0,0.0,0.0,0.0,0.0,0.0,0.0,0.0,0.0,0.0,0.0,0.0,0.0,0.0,0.0,0.0,0.0,0.0,0.0,0.0,0.0,0.0,0.0,0.0,0.0,0.0,0.0,0.0,0.0,0.0,0.0,0.0,0.0,0.0,0.0,0.0,0.0,0.0,0.0,0.0,0.0,0.0,0.0,0.0,0.0,0.0,0.0,0.0,0.0,0.0,0.0,0.0,0.0,0.0,0.0,0.0,0.0,0.0,0.0,0.0,0.0,0.0,0.0,0.0,0.0,0.0,0.0,0.0,0.0,0.0,0.0,0.0,0.0,0.0,0.0,0.0,0.0,0.0,0.0,0.0,0.0,0.0,0.0,0.0,0.0,0.0,0.0,0.0,0.0,0.0,0.0,0.0,0.0,0.0,0.0,0.0,0.0,0.0,0.0,0.0,0.0,0.0,0.0,0.0,0.0,0.0,0.0,0.0,0.6909,0.7782,0.8983,0.9608,0.9585,0.7154,0.5322,0.0,0.0,0.0,0.0,0.0,0.0,0.0,0.0,0.0,0.0,0.0,0.0,0.0,0.0,0.0,0.0,0.0,0.0,0.0,0.0,0.0,0.0,0.0,0.0,0.0,0.0,0.0,0.0,0.0,0.0,0.0,0.0,0.0,0.0,0.0,0.0,0.0,0.0,0.0,0.0,0.0,0.0,0.0,0.0,0.0,0.0,0.0,0.0,0.0,0.0,0.0,0.0,0.0,0.0,0.0,0.0,0.0,0.0,0.0,0.0,0.0,0.0,0.0,0.0,0.0,0.0,0.0,0.0,0.0,0.0,0.0,0.0,0.0,0.0,0.0,0.0,0.0,0.0,0.0,0.0,0.0,0.0,0.0,0.0,0.0,0.0,0.0,0.0,0.0,0.0,0.0,0.0,0.0,0.0,0.0,0.0,0.0,0.0,0.0,0.0,0.0,0.0,0.0,0.0,0.0,0.0,0.0,0.0,0.8268,0.909,0.9835,1.0097,0.9906,0.7732,0.6314,0.0,0.0,0.0,0.0,0.0,0.0,0.0,0.0,0.0,0.0,0.0,0.0,0.0,0.0,0.0,0.0,0.0,0.0,0.0,0.0,0.0,0.0,0.0,0.0,0.0,0.0,0.0,0.0,0.0,0.0,0.0,0.0,0.0,0.0,0.0,0.0,0.0,0.0,0.0,0.0,0.0,0.0,0.0,0.0,0.0,0.0,0.0,0.0,0.6888,0.0,0.0,0.0,0.0,0.0,0.0,0.0,0.0,0.0,0.0,0.0,0.0,0.0,0.0,0.0,0.0,0.0,0.0,0.0,0.0,0.0,0.0,0.0,0.0,0.0,0.0,0.0,0.0,0.0,0.0,0.0,0.0,0.0,0.0,0.0,0.0,0.0,0.0,0.0,0.0,0.0,0.0,0.0,0.0,0.0,0.0,0.0,0.0,0.0,0.0,0.0,0.0,0.0,0.0,0.0,0.0,0.0,0.0,0.0,0.8842,0.9495,1.0177,1.0495,1.0318,0.8947,0.7608,0.0,0.0,0.0,0.0,0.0,0.0,0.0,0.0,0.0,0.0,0.0,0.0,0.0,0.0,0.0,0.0,0.0,0.0,0.0,0.0,0.0,0.0,0.0,0.0,0.0,0.0,0.0,0.0,0.0,0.0,0.0,0.0,0.0,0.0,0.0,0.0,0.0,0.0,0.0,0.0,0.0,0.0,0.0,0.0,0.0,0.0,0.0,0.0,0.0,0.0,0.0,0.0,0.0,0.0,0.0,0.0,0.0,0.0,0.0,0.0,0.0,0.0,0.0,0.0,0.0,0.0,0.0,0.0,0.0,0.0,0.0,0.0,0.0,0.0,0.0,0.0,0.0,0.0,0.0,0.0,0.0,0.0,0.0,0.0,0.0,0.0,0.0,0.0,0.0,0.0,0.0,0.0,0.0,0.0,0.0,0.0,0.0,0.0,0.0,0.0,0.0,0.0,0.0,0.0,0.0,0.0,0.0,0.8544,0.9173,0.9867,1.0512,1.0893,1.0917,1.027,0.8909,0.6867,0.0,0.0,0.0,0.0,0.0,0.0,0.0,0.0,0.0,0.0,0.0,0.0,0.0,0.0,0.0,0.0,0.0,0.0,0.0,0.0,0.0,0.0,0.0,0.0,0.0,0.0,0.0,0.0,0.0,0.0,0.0,0.0,0.0,0.0,0.0,0.0,0.0,0.0,0.5342,0.5639,0.0,0.0,0.0,0.0,0.0,0.0,0.0,0.0,0.7146,0.0,0.0,0.0,0.0,0.0,0.0,0.0,0.0,0.0,0.0,0.0,0.0,0.0,0.0,0.0,0.0,0.0,0.0,0.0,0.0,0.0,0.0,0.0,0.0,0.0,0.0,0.0,0.0,0.0,0.0,0.0,0.0,0.0,0.0,0.0,0.0,0.0,0.0,0.0,0.0,0.0,0.0,0.0,0.0,0.0,0.0,0.0,0.0,0.0,0.0,0.0,0.0,0.0,0.0,0.0,0.0,0.9081,0.9133,0.9872,1.1381,1.1549,1.1568,1.1461,1.1085,0.9815,0.7662,0.0,0.0,0.0,0.0,0.0,0.0,0.0,0.0,0.0,0.0,0.0,0.0,0.0,0.0,0.0,0.0,0.0,0.0,0.0,0.0,0.0,0.0,0.0,0.0,0.0,0.0,0.0,0.0,0.0,0.0,0.0,0.0,0.0,0.0,0.0,0.0,0.0,0.0,0.0,0.8791,0.9087,0.0,0.0,0.0,0.0,0.0,0.0,0.0,0.0,0.7912,0.0,0.0,0.0,0.0,0.0,0.0,0.0,0.0,0.0,0.0,0.0,0.0,0.0,0.0,0.0,0.0,0.0,0.0,0.0,0.0,0.0,0.0,0.0,0.0,0.0,0.0,0.0,0.0,0.0,0.0,0.0,0.0,0.0,0.0,0.0,0.0,0.0,0.0,0.0,0.0,0.0,0.0,0.0,0.0,0.0,0.0,0.0,0.0,0.0,0.0,0.0,0.0,0.0,0.0,0.0,0.9,1.0058,1.121,1.2368,1.2488,1.2471,1.2361,1.1877,1.0508,0.0,0.0,0.0,0.0,0.0,0.0,0.0,0.0,0.0,0.0,0.0,0.0,0.0,0.0,0.0,0.0,0.0,0.0,0.0,0.0,0.0,0.0,0.0,0.0,0.0,0.0,0.0,0.0,0.0,0.0,0.0,0.0,0.0,0.0,0.0,0.0,0.0,0.0,0.0,0.0,1.0117,1.0675,0.9665,0.0,0.0,0.0,0.0,0.0,0.0,0.8425,0.8012,0.0,0.0,0.0,0.0,0.0,0.0,0.0,0.0,0.0,0.0,0.0,0.0,0.0,0.0,0.0,0.0,0.0,0.0,0.0,0.0,0.0,0.0,0.0,0.0,0.0,0.0,0.0,0.0,0.0,0.0,0.0,0.0,0.0,0.0,0.0,0.0,0.0,0.0,0.0,0.0,0.0,0.0,0.0,0.0,0.0,0.0,0.0,0.0,0.0,0.0,0.0,0.0,0.0,0.0,0.0,0.8867,1.0879,1.2393,1.3246,1.3493,1.3546,1.3479,1.2666,1.1122,0.0,0.0,0.0,0.0,0.0,0.0,0.0,0.0,0.0,0.0,0.0,0.0,0.0,0.0,0.0,0.0,0.0,0.0,0.0,0.0,0.0,0.0,0.0,0.0,0.0,0.0,0.0,0.0,0.0,0.0,0.0,0.0,0.0,0.0,0.0,0.0,0.0,0.0,0.0,0.0,0.0,1.136,1.0051,0.9004,0.0,0.0,0.0,0.0,0.9183,0.8926,0.0,0.0,0.0,0.0,0.0,0.0,0.0,0.0,0.0,0.0,0.0,0.0,0.0,0.0,0.0,0.0,0.0,0.0,0.0,0.0,0.0,0.0,0.0,0.0,0.0,0.0,0.0,0.0,0.0,0.0,0.0,0.0,0.0,0.0,0.0,0.0,0.0,0.0,0.0,0.0,0.0,0.0,0.0,0.0,0.0,0.0,0.0,0.0,0.0,0.0,0.0,0.0,0.0,0.0,0.0,0.0,0.9221,1.1138,1.2856,1.4262,1.4691,1.4864,1.4853,1.3413,1.1648,0.0,0.0,0.0,0.0,0.0,0.0,0.0,0.0,0.0,0.0,0.0,0.0,0.0,0.0,0.0,0.0,0.0,0.0,0.0,0.0,0.0,0.0,0.0,0.0,0.0,0.0,0.0,0.0,0.0,0.0,0.0,0.0,0.0,0.0,0.0,0.0,0.0,0.0,0.0,0.0,0.0,1.0916,0.896,0.843,0.7785,0.0,0.0,1.009,1.0883,1.1611,0.0,0.0,0.0,0.0,0.0,0.0,0.0,0.0,0.0,0.0,0.0,0.0,0.0,0.0,0.0,0.0,0.0,0.0,0.0,0.0,0.0,0.0,0.0,0.0,0.0,0.0,0.0,0.0,0.0,0.0,0.0,0.0,0.0,0.0,0.0,0.0,0.0,0.0,0.0,0.0,0.0,0.0,0.0,0.0,0.0,0.0,0.0,0.0,0.0,0.0,0.0,0.0,0.0,0.0,0.0,0.9613,1.0013,1.2495,1.4517,1.5917,1.6113,1.6102,1.595,1.4503,1.251,0.0,0.0,0.0,0.0,0.0,0.0,0.0,0.0,0.0,0.0,0.0,0.0,0.0,0.0,0.0,0.0,0.0,0.0,0.0,0.0,0.0,0.0,0.0,0.0,0.0,0.0,0.0,0.0,0.0,0.0,0.0,0.0,0.0,0.0,0.0,0.0,0.0,0.0,0.0,0.0,0.0,0.0,1.0645,0.9981,0.0,0.0,0.0,1.007,1.035,0.0,0.0,0.0,0.0,0.0,0.0,0.0,0.0,0.0,0.0,0.0,0.0,0.0,0.0,0.0,0.0,0.0,0.0,0.0,0.0,0.0,0.0,0.0,0.0,0.0,0.0,0.0,0.0,0.0,0.0,0.0,0.0,0.0,0.0,0.0,0.0,0.0,0.0,0.0,0.0,0.0,0.0,0.0,0.0,0.0,0.0,0.0,0.0,0.0,0.0,0.0,0.0,0.0,0.0,0.0,0.0,0.0,1.0642,1.3998,1.6268,1.7259,1.7413,1.7317,1.6986,1.5943,0.0,0.0,0.0,0.0,0.0,0.0,0.0,0.0,0.0,0.0,0.0,0.0,0.0,0.0,0.0,0.0,0.0,0.0,0.0,0.0,0.0,0.0,0.0,0.0,0.0,0.0,0.0,0.1031,0.0,0.0,0.0,0.0,0.0,0.0,0.0,0.0,0.0,0.0,0.0,0.0,0.0,0.0,0.967,1.1124,1.0835,1.001,0.0,0.0,1.0041,1.0558,1.2008,1.2308,0.0,0.0,0.0,0.0,0.0,0.0,0.0,0.0,0.0,0.0,0.0,0.0,0.0,0.0,0.0,0.0,0.0,0.0,0.0,0.0,0.0,0.0,0.0,0.0,0.0,0.0,0.0,0.0,0.0,0.0,0.0,0.0,0.0,0.0,0.0,0.0,0.0,0.0,0.0,0.0,0.0,0.0,0.0,0.0,0.0,0.0,0.0,0.0,0.0,0.0,0.0,0.0,0.0,0.0,0.0,1.0967,1.5484,1.7854,1.7877,1.8447,1.8564,1.8101,1.786,1.5641,0.0,0.0,0.0,0.0,0.0,0.0,0.0,0.0,0.0,0.0,0.0,0.0,0.0,0.0,0.0,0.0,0.0,0.0,0.0,0.0,0.0,0.0,0.0,0.0,0.0,0.0,0.0,0.0,0.0,0.0,0.0,0.0,0.0,0.0,0.0,0.0,0.0,0.0,0.0,0.0,0.0,0.9066,0.847,0.9703,1.099,0.0,0.0,1.0495,1.2789,1.3969,1.3528,1.024,0.0,0.0,0.0,0.0,0.0,0.0,0.0,0.0,0.0,0.0,0.0,0.0,0.0,0.0,0.0,0.0,0.0,0.0,0.0,0.0,0.0,0.0,0.0,0.0,0.0,0.0,0.0,0.0,0.0,0.0,0.0,0.0,0.0,0.0,0.0,0.0,0.0,0.0,0.0,0.0,0.0,0.0,0.0,0.0,0.0,0.0,0.0,0.0,0.0,0.0,0.0,0.0,0.0,1.1907,1.1667,1.5973,1.8428,1.8882,1.8931,1.886,1.8651,1.8293,1.641,0.0,0.0,0.0,0.0,0.0,0.0,0.0,0.0,0.0,0.0,0.0,0.0,0.0,0.0,0.0,0.0,0.0,0.0,0.0,0.0,0.0,0.0,0.0,0.0,0.0,0.0,0.0,0.0,1.0599,0.9507,1.469,0.0,0.0,0.0,0.0,0.0,0.0,0.0,0.0,0.0,0.0,1.0285,1.0103,1.0819,0.0,0.0,1.4608,1.4106,1.4085,1.4003,1.319,1.0989,0.9869,0.0,0.0,0.0,0.0,0.0,0.0,0.0,0.0,0.0,0.0,0.0,0.0,0.0,0.0,0.0,0.0,0.0,0.0,0.0,0.0,0.0,0.0,0.0,0.0,0.0,0.0,0.0,0.0,0.0,0.0,0.0,0.0,0.0,0.0,0.0,0.0,0.0,0.0,0.0,0.0,0.0,0.0,0.0,0.0,0.0,0.0,0.0,0.0,0.0,0.0,0.0,0.0,1.2147,1.2207,1.6565,1.9089,1.9596,1.932,1.9099,1.894,1.8671,1.7162,0.0,0.0,0.0,0.0,0.0,0.0,0.0,0.0,0.0,0.0,0.0,0.0,0.0,0.0,0.0,0.0,0.0,0.0,0.0,0.0,0.0,0.0,0.0,0.0,0.0,0.0,0.0,0.0,0.8431,0.7552,1.4534,0.0,0.0,0.0,0.0,0.0,0.0,0.0,0.0,0.0,0.0,1.1185,1.195,1.1864,1.2756,1.5796,1.5744,1.5005,1.3969,1.3641,1.3043,1.1686,0.0,0.0,0.0,0.0,0.0,0.0,0.0,0.0,0.0,0.0,0.0,0.0,0.0,0.0,0.0,0.0,0.0,0.0,0.0,0.0,0.0,0.0,0.0,0.0,0.0,0.0,0.0,0.0,0.0,0.0,0.0,0.0,0.0,0.0,0.0,0.0,0.0,0.0,0.0,0.0,0.0,0.0,0.0,0.0,0.0,0.0,0.0,0.0,0.0,0.0,0.0,0.0,0.0,1.2459,1.2449,1.7422,1.9939,1.9794,1.9656,1.9398,1.9026,1.9182,1.8003,1.5297,0.0,0.0,0.0,0.0,0.0,0.0,0.0,0.0,0.0,0.0,0.0,0.0,0.0,0.0,0.0,0.0,0.0,0.0,0.0,0.0,0.0,0.0,0.0,0.0,0.0,0.0,1.0572,1.0117,1.123,0.0,0.0,0.0,0.0,0.0,0.0,0.0,0.0,0.0,0.0,1.0662,1.1488,1.3514,1.2472,1.229,1.4262,1.3141,1.2075,1.2372,1.3097,1.3348,0.0,0.0,0.0,0.0,0.0,0.0,0.0,0.0,0.0,0.0,0.0,0.0,0.0,0.0,0.0,0.0,0.0,0.0,0.0,0.0,0.0,0.0,0.0,0.0,0.0,0.0,0.0,0.261,0.0,0.0,0.0,0.0,0.0,0.0,0.0,0.0,0.0,0.0,0.0,0.0,1.1887,1.1983,0.0,0.0,0.0,0.0,0.0,0.0,0.0,0.0,0.0,0.0,0.0,0.0,1.2591,1.2596,1.7416,1.9936,1.9732,1.9608,1.9475,1.9329,1.9413,1.8974,1.7998,0.0,0.0,0.0,0.0,0.0,0.0,0.0,0.0,0.0,0.0,0.0,0.0,0.0,0.0,0.0,0.0,0.0,0.0,0.0,0.0,0.0,0.0,0.0,0.0,0.0,0.7775,0.0,0.0,0.0,0.0,0.0,0.0,0.0,0.0,0.0,0.0,0.0,1.0165,1.1382,1.2358,1.3359,1.4477,1.4652,1.4401,0.0,0.0,0.0,0.0,0.0,0.0,0.0,0.0,0.0,0.0,0.0,0.0,0.0,0.0,1.5181,1.2361,1.1067,1.0282,0.9841,0.0,0.0,0.0,0.0,0.0,0.0,0.0,0.0,0.0,0.0,0.0,0.0,0.0,0.0,0.0,0.0,0.285,0.0,0.0,0.0,0.0,0.0,0.0,0.0,0.0,1.2083,1.2774,1.3075,1.4484,1.4092,0.0,1.2964,1.062,0.0,0.0,0.0,0.0,0.0,0.0,0.0,0.0,1.3518,1.3447,1.7693,1.9901,1.9719,1.9852,1.9793,1.9509,1.9492,1.9525,1.9617,1.8067,1.6558,0.0,0.0,0.0,0.0,0.0,0.0,0.0,0.0,0.0,0.0,0.0,0.0,0.0,0.0,0.0,0.0,0.0,0.0,0.0,0.0,0.0,0.0,0.0,0.6577,0.0,0.0,0.0,0.0,0.0,0.0,0.0,0.0,0.0,0.8976,1.0216,1.1579,1.2753,1.3675,1.4538,1.5343,0.0,0.0,0.0,0.0,0.0,0.0,0.0,1.3663,1.409,1.326,1.2763,1.3496,1.085,1.0628,1.6787,0.0,0.0,1.4798,1.3384,1.2712,1.288,1.2373,1.1661,1.0856,1.1006,1.0951,0.0,0.0,0.0,0.0,0.0,0.0,0.0,0.0,1.2075,1.1988,0.0,0.8285,0.0,0.0,0.0,0.0,0.0,1.0544,0.0,0.0,1.6184,1.6804,1.6558,1.6008,1.5831,1.5838,1.3608,1.358,1.5383,1.176,0.0,0.0,0.0,0.0,0.0,0.0,1.5325,1.5224,1.8429,1.9993,1.9845,2.0417,2.0367,1.9616,1.9559,1.97,1.9881,1.7629,1.7349,1.9536,1.0435,0.0,0.0,0.0,0.0,0.0,0.0,0.0,0.0,0.0,0.0,0.0,0.0,0.0,0.0,0.0,0.0,0.0,0.0,0.0,0.0,0.8952,0.0,0.0,0.0,0.0,0.0,0.0,0.0,0.0,0.0,0.0,1.051,1.1134,1.2386,1.4259,0.0,0.0,0.0,0.0,1.4873,1.4933,1.3783,1.2907,1.293,1.4483,1.595,1.6696,0.0,0.0,1.8877,1.6816,1.5996,1.8916,1.8777,1.8093,1.7404,1.5573,1.4378,1.454,1.3917,1.306,1.2474,1.3353,1.3703,1.1315,0.0,0.0,0.0,0.0,1.2326,1.2736,1.3283,1.3257,1.3277,1.3158,1.1708,0.0,0.0,0.0,0.0,0.0,0.0,1.3297,1.4277,1.5228,1.631,1.7521,1.7924,1.8211,1.8377,1.7759,1.7975,1.8856,1.8105,1.4834,0.9352,0.0,0.0,0.0,0.0,1.8481,1.78,2.035,2.1642,2.1351,2.1529,2.131,2.059,2.0506,2.0313,1.9955,1.9251,1.8319,1.7103,1.6047,0.0,0.0,0.0,0.0,0.0,0.0,0.0,0.0,0.0,0.0,0.0,0.0,0.0,0.0,0.0,0.0,0.0,0.0,0.0,0.6756,0.9081,1.0093,0.0,0.0,0.0,0.0,0.0,0.0,0.0,0.0,0.0,1.164,1.2512,1.3303,0.0,0.0,1.4654,1.5161,1.4422,1.4007,1.4509,0.0,0.0,0.0,1.4691,1.5469,1.6322,1.7515,1.8349,1.8335,1.7501,1.7226,1.8467,1.8376,1.8101,1.7941,1.7193,1.6801,1.7295,1.6116,1.5052,1.5445,1.5348,1.5103,1.7241,1.507,1.3727,1.3743,1.4665,1.4616,1.5317,1.6492,1.58,1.5469,1.5367,1.4866,1.5066,1.5576,1.2647,0.0,0.0,0.0,1.4532,1.5706,1.6123,1.7078,1.8434,1.8924,1.9304,1.9551,1.9377,1.9588,2.0189,2.0096,1.8093,1.4345,0.0,0.0,1.409,1.7823,1.966,1.9488,2.1274,2.2086,2.1694,2.1728,2.1789,2.182,2.1511,2.1153,2.0778,2.0558,1.9665,1.8015,1.9039,1.6846,0.0,0.0,0.0,0.0,0.0,0.0,0.0,0.0,0.0,0.0,0.0,1.2059,1.0766,0.0,0.0,0.0,1.3747,1.3085,0.9141,1.0708,0.0,0.0,0.0,0.0,0.0,0.0,0.0,1.115,1.2289,1.2931,1.2435,1.3069,1.3505,1.3294,1.3292,1.3637,1.4553,0.0,1.3341,1.3162,1.3594,1.3966,1.4007,1.4909,1.6084,1.7506,1.862,1.908,1.8672,1.8814,1.8987,1.8884,1.8478,1.8105,1.8139,1.7734,1.7618,1.8389,1.747,1.6715,1.719,1.6769,1.6568,2.1167,2.0543,1.678,1.5995,1.7268,1.7759,1.8401,1.9149,1.9028,1.8213,1.6997,1.7685,1.7181,1.5826,1.5682,0.0,1.587,1.5391,1.6365,1.8392,1.8315,1.8619,1.9264,1.9271,1.9486,1.9887,1.9299,1.9469,2.0296,1.9451,1.8625,1.7985,1.8502,1.8277,1.7404,1.837,1.9495,2.0688,2.1493,2.1756,2.1434,2.152,2.2063,2.3038,2.2395,2.2046,2.202,2.1462,2.108,2.0903,2.0055,1.9589,1.9476,0.0,0.0,0.0,0.0,0.0,0.0,0.0,0.0,0.0,0.0,0.0,0.0,0.0,0.0,0.7904,1.1694,0.0,1.4838,1.3366,0.0,0.0,0.0,1.5371,1.5899,1.524,1.4398,1.3492,0.0,0.0,1.2986,0.0,1.3196,1.3478,1.2338,1.2172,1.3992,1.3589,1.2717,1.1589,1.2183,1.2891,1.3153,1.5035,1.7235,1.9273,2.0714,2.0719,1.9867,2.0444,2.0852,1.98,1.8804,1.8096,1.8123,1.7687,1.745,1.7981,1.797,1.7913,1.78,1.7852,1.7843,2.1721,2.1546,2.0579,2.0527,2.1063,2.0877,2.0775,2.071,2.015,1.9497,1.8834,1.8768,1.8669,1.8524,1.831,1.8248,1.8337,1.8019,1.7999,1.8269,1.8699,1.8978,1.9168,1.9598,2.0127,2.0681,2.0762,2.1109,2.1701,2.1927,2.1659,2.1036,2.1641,2.0438,1.7557,1.8935,2.0337,2.1574,2.1805,2.2345,2.3212,2.3143,2.3009,2.2859,2.2611,2.2191,2.1578,2.1512,2.1152,2.0426,2.0254,1.9887,1.9188,1.8139,0.0,0.0,0.0,0.0,0.0,0.0,0.0,0.0,0.0,1.2388,1.6072,0.0,0.9471,0.0,1.5489,1.6295,1.5112,1.5608,0.0,0.0,1.4766,1.5197,1.6171,1.5624,1.489,1.421,1.4281,1.404,1.3155,1.3087,1.2829,1.2122,1.1701,1.1588,1.2006,1.1693,1.1533,1.1743,1.127,1.1315,1.2721,1.4809,1.7159,1.9387,1.9966,2.0243,2.0612,2.1058,2.0858,1.9253,1.8479,1.8194,1.8312,1.8167,1.7954,1.775,1.747,1.7523,1.8218,1.8255,1.8194,2.1601,2.16,2.1723,2.1943,2.2215,2.2013,2.1792,2.1579,2.1182,2.0794,2.0418,2.0244,2.0272,2.0445,2.0171,2.0082,2.0094,1.9609,1.9357,1.9324,1.9265,1.945,1.985,2.0018,2.0412,2.1007,2.1371,2.1706,2.2039,2.266,2.2783,2.247,2.2876,2.1717,1.9107,1.9832,2.0148,1.9857,2.0635,2.1773,2.3332,2.3212,2.2378,2.0909,2.1222,2.0655,1.9013,1.9156,1.8834,1.7891,1.7514,1.7841,1.8907,1.7066,1.4641,0.0,0.0,0.0,0.0,0.0,0.0,0.0,0.0,0.0,0.0,0.0,1.5878,1.6691,1.7648,1.731,1.516,1.6719,1.7707,1.7294,1.7278,1.7626,1.8485,1.7394,1.6205,1.5267,1.476,1.4173,1.342,1.2913,1.2327,1.1406,1.1092,1.0984,1.0865,1.0559,1.0499,1.1015,1.0423,1.0679,1.2859,1.4869,1.6928,1.8975,1.9661,1.9875,1.9855,1.9893,1.969,1.9152,1.8889,1.8657,1.8463,1.8439,1.8287,1.7877,1.7693,1.7841,1.8238,1.8453,1.8664,2.1246,2.1277,2.1465,2.1678,2.1897,2.1922,2.1967,2.1998,2.1938,2.1796,2.1559,2.1559,2.1573,2.1572,2.1246,2.1135,2.1135,2.0427,2.0254,2.0542,1.9812,1.9904,2.0696,2.0378,2.0497,2.1039,2.1494,2.1753,2.1884,2.2508,2.2773,2.2762,2.2837,2.2054,2.047,2.0327,1.934,1.7464,1.8938,2.0565,2.2248,2.2005,2.0675,1.8385,1.9239,1.8639,1.6252,1.6384,1.6096,1.5124,1.4326,1.5144,1.7753,1.4213,1.2469,0.0,0.8785,0.0,0.0,0.0,0.0,0.0,0.0,0.0,0.0,2.1758,2.1463,1.901,1.9033,1.8345,1.6306,1.8072,1.945,1.9769,2.0525,2.1032,2.097,1.9322,1.7513,1.5832,1.4654,1.3784,1.3215,1.249,1.1722,1.1065,1.0764,1.0561,1.0314,0.9959,0.9844,1.0061,0.9969,1.0898,1.305,1.4875,1.6703,1.8631,1.9605,1.9659,1.9047,1.8491,1.8405,1.9192,1.9455,1.9317,1.8624,1.8522,1.8339,1.7813,1.8058,1.8311,1.821,1.8613,1.9075,2.1527,2.1511,2.1403,2.1372,2.1341,2.1182,2.1461,2.1984,2.1768,2.1557,2.134,2.1356,2.1246,2.1023,2.0745,2.0596,2.0545,2.0185,1.999,1.9957,1.9797,1.9925,2.0309,2.0225,2.0564,2.1214,2.1508,2.1805,2.222,2.2611,2.2319,2.1413,2.1605,2.0377,1.7911,0.0,0.0,0.0,1.8484,1.9034,1.9599,1.88,1.7929,1.7079,1.8211,0.0,1.7277,1.725,1.6897,1.6109,1.6075,0.0,0.0,0.0,0.0,0.0,0.0,0.0,0.0,0.0,0.0,0.0,1.8622,1.6625,2.1244,2.1263,2.0638,2.0001,2.1043,2.201,2.2559,2.2965,2.2443,2.0672,2.2312,2.2589,1.993,1.8594,1.6823,1.3567,1.2619,1.2052,1.1518,1.1361,1.1232,1.0753,1.0777,1.0596,0.9946,0.9873,1.0082,1.0595,1.0854,1.1391,1.2014,1.4249,1.648,1.8221,1.9427,2.0138,2.0481,1.916,1.8227,1.8736,1.9238,1.9447,1.9018,1.8521,1.7911,1.72,1.775,1.8337,1.8405,1.8774,1.9098,2.1183,0.0,2.0958,2.0828,0.0,2.068,2.0861,2.1197,2.1198,2.1135,2.1055,2.1022,2.0925,2.0794,2.0595,2.051,2.0527,2.0218,2.0133,2.0256,1.9907,1.9977,2.0344,2.0187,2.0427,2.1055,2.1354,2.1702,2.2096,2.2309,2.2095,2.1502,2.1345,2.0497,1.9095,1.9516,1.9482,1.8893,1.9029,1.9626,2.0645,2.0196,1.9139,1.7566,0.0,0.0,0.0,0.0,0.0,0.0,0.0,0.0,0.0,0.0,0.0,1.4913,1.5627,1.544,1.4385,2.0971,2.5212,2.5149,2.202,2.1089,2.3563,2.3259,2.2909,2.2791,2.343,2.4,2.4428,2.4092,2.2643,2.002,2.1071,2.0994,1.8356,1.6341,1.4356,1.2205,1.1482,1.12,1.1069,1.0997,1.0991,1.0898,1.1179,1.1073,1.0328,1.0112,1.0149,1.0104,1.0702,1.1436,1.2302,1.407,1.6364,1.8368,1.9753,2.058,2.1097,1.9463,1.8164,1.8479,1.8709,1.8706,1.8456,1.8012,1.7494,1.6902,1.7354,1.7944,1.8012,1.8553,1.9098,2.0564,2.0648,2.0328,2.0174,2.0172,2.0156,2.0204,2.0256,0.0,0.0,0.0,2.0644,2.0594,2.0526,2.0443,2.0475,2.0559,2.0254,2.0308,2.0678,2.0098,2.0045,2.0443,2.0183,2.0321,2.0811,2.1151,2.1479,2.1811,2.1836,2.1836,2.1748,2.1291,2.1071,2.107,2.1276,2.0965,2.0147,1.9717,2.026,2.1822,2.1693,2.0401,1.7966,1.8917,1.842,1.6251,1.6915,1.702,1.6258,1.5636,1.4618,1.3155,1.446,1.5798,1.691,1.8512,1.829,1.5798,2.148,2.5138,2.5206,2.505,2.5048,2.5262,2.535,2.5347,2.5246,2.5135,2.4943,2.4566,2.3699,2.1815,1.8598,1.8697,1.8223,1.6176,1.3745,1.1635,1.0383,1.0411,1.0709,1.0635,1.0666,1.0735,1.106,1.1446,1.161,1.0874,1.0349,0.9865,0.9437,1.0044,1.1019,1.2229,1.4019,1.6063,1.8077,1.9711,2.0716,2.0605,1.9302,1.8255,1.8318,1.8012,1.7638,1.7526,1.7316,1.6922,1.6237,1.6897,1.7526,1.7413,1.824,1.9075,1.9904,1.9763,1.9546,1.9365,1.9185,1.9277,1.9398,1.9614,2.0443,2.0527,2.0131,2.034,2.0239,1.9922,2.0025,2.0093,2.0096,2.0083,2.0202,0.0,2.027,2.0237,2.0306,2.027,2.0458,2.0778,2.086,2.1071,2.1354,2.1401,2.1261,2.099,2.0877,2.0877,2.0974,2.1447,2.1724,2.1715,1.9727,1.8797,1.906,1.841,1.7626,1.6861,1.8002,1.8255,1.748,1.7611,1.7616,1.7521,1.7654,1.7205,1.6247,1.8744,2.0015,1.9324,2.0809,2.2306,2.3463,2.439,2.4895,2.5149,2.4714,2.4561,2.4858,2.4903,2.4844,2.473,2.4644,2.4569,2.4372,2.3278,2.107,1.767,1.6411,1.515,1.3253,1.1543,0.9732,0.7744,0.9112,0.9854,0.9105,0.9739,1.0459,1.0645,1.1209,1.1745,1.1239,1.0262,0.9427,0.9213,0.9768,1.0344,1.1105,1.3131,1.5144,1.6175,1.8472,2.005,2.054,1.922,1.8121,1.8032,1.7054,1.6499,1.6837,1.6559,1.6035,1.5551,1.628,1.7001,1.6819,1.7959,1.9031,1.9361,1.9089,1.8859,1.8779,1.8779,1.8936,1.9045,1.9176,1.9642,1.9871,1.9851,1.9995,1.9975,1.9815,1.9866,1.9919,2.0005,2.008,2.0168,2.0287,2.0287,2.0287,2.0287,2.0287,2.0475,2.0794,2.081,2.0974,2.1261,2.1119,2.0958,2.0811,2.0844,2.1071,2.1492,2.1764,2.2058,2.2265,2.1214,2.0759,2.0866,2.053,2.0245,2.0085,2.068,2.0963,2.0921,2.0821,2.0894,2.1107,2.073,2.0281,1.9779,2.1229,2.1325,1.9638,2.1113,2.3021,2.5127,2.4474,2.4254,2.4849,2.4348,2.3689,2.3057,2.4054,2.4618,2.4454,2.4274,2.4066,2.3795,2.2526,2.0288,1.6811,1.5076,1.3284,1.1277,0.9607,0.8253,0.7345,0.8152,0.8827,0.8457,0.9485,1.0248,1.0376,1.077,1.0981,1.1159,0.9936,0.9064,0.9286,0.946,0.9952,1.0795,1.2555,1.4298,1.5495,1.7102,1.8652,1.965,1.9044,1.8231,1.726,1.6315,1.586,1.5886,1.5604,1.5188,1.484,1.5436,1.6132,1.6541,1.7687,1.8741,1.8607,1.8316,1.8285,1.8497,1.8863,1.9035,1.9082,1.9032,1.9128,1.9255,1.942,1.9599,1.9657,1.9672,1.9744,1.9851,2.0008,2.0028,2.0115,2.0237,2.0235,2.0218,2.0235,2.0235,2.0407,2.0628,2.0678,2.0828,2.1023,2.0811,2.0745,2.0827,2.0958,2.1354,2.2027,2.2084,2.226,2.2511,2.2525,2.2619,2.2829,2.2838,2.2919,2.3045,2.3228,2.3482,2.3781,2.3898,2.4074,2.4299,2.3678,2.312,2.2767,2.3324,2.26,2.0688,2.1915,2.3356,2.4398,2.403,2.3869,2.4346,2.3886,2.298,2.184,2.2948,2.3929,2.3887,2.362,2.3329,2.2803,2.1458,1.935,1.6408,1.4564,1.2607,1.0222,0.8406,0.729,0.7198,0.7616,0.8182,0.8423,0.942,1.0338,1.0535,1.031,1.0353,1.0595,0.9582,0.8996,0.9328,0.9173,0.9407,1.0946,1.2228,1.3474,1.4799,1.6009,1.7259,1.8341,1.8692,1.8059,1.6519,1.5727,1.5338,1.4875,1.4724,1.4553,1.4245,1.484,1.564,1.6463,1.7379,1.8428,1.7374,1.728,1.7871,1.873,1.962,1.9682,1.9572,1.936,1.9365,1.9061,1.8711,1.9072,1.9225,1.9281,1.9599,1.9851,2.0063,1.9904,1.994,2.008,2.0043,2.0023,1.999,2.0063,2.0133,2.017,2.0272,2.0357,2.0443,2.039,2.0544,2.0893,2.1198,2.1615,2.2068,2.2326,2.2525,2.2689,2.2619,2.2609,2.2636,2.2685,2.2777,2.2919,2.3689,2.4198,2.4436,2.5186,2.5611,2.5715,2.5626,2.5207,2.4545,2.5651,2.5426,2.3204,2.4776,2.5118,2.3157,2.3794,2.4088,2.3567,2.3301,2.2678,2.1628,2.168,2.2081,2.2513,2.2432,2.2119,2.1776,2.0132,1.8295,1.6448,1.5116,1.3432,1.0415,0.8416,0.7042,0.6109,0.7454,0.8204,0.7705,0.9275,1.0795,1.108,1.0676,1.0322,1.0164,0.937,0.8834,0.9419,0.9321,0.9236,0.9995,1.1358,1.2629,1.3381,1.5004,1.6226,1.6939,1.7868,1.8194,1.5852,1.4883,1.4748,1.4505,1.4253,1.4129,1.4036,1.4525,1.5357,1.6636,1.7301,1.7823,1.784,1.735,1.797,1.8785,1.9644,1.9831,1.986,1.9718,1.9154,1.8789,1.8563,1.8393,1.8621,1.9161,1.9581,1.9833,1.9904,1.9675,1.9588,1.9657,1.9372,1.9225,1.9244,1.9266,1.9427,1.9714,1.98,1.9993,2.0252,2.0287,2.058,2.1102,2.1369,2.1794,2.2392,2.2565,2.2646,2.2699,2.2751,2.2777,2.2777,2.2725,2.3024,2.3654,2.3964,2.4506,2.525,2.5532,2.5674,2.5758,2.5755,2.5622,2.5478,2.6145,2.6158,2.5247,2.4746,2.4504,2.4265,2.3936,2.3465,2.3008,2.2643,2.2122,2.1429,2.1431,2.149,2.1301,2.0957,2.0719,2.0783,1.9516,1.7875,1.6141,1.4575,1.2703,1.0485,0.8187,0.6615,0.6316,0.6934,0.7585,0.7843,0.9485,1.0755,1.0818,1.0478,1.0225,0.964,0.9053,0.9021,0.9328,0.9364,0.9568,1.01,1.1157,1.2089,1.2731,1.3953,1.5156,1.616,1.692,1.7113,1.5311,1.4776,1.4497,1.4433,1.4217,1.4057,1.4,1.4238,1.5037,1.5842,1.6611,1.7242,1.7981,1.7437,1.807,1.8832,1.9618,2.0152,2.0242,1.9925,1.9385,1.9049,1.882,1.826,1.8526,1.928,1.9393,1.942,1.9475,1.9258,1.9165,1.9147,1.8798,1.8645,1.866,1.8679,1.8945,1.9369,1.946,1.9747,2.02,2.0218,2.0547,2.1118,2.1306,2.1763,2.245,2.2592,2.2663,2.2694,2.2825,2.2919,2.2949,2.3076,2.3506,2.4212,2.423,2.48,2.6073,2.6154,2.6247,2.6399,2.6251,2.6247,2.6482,2.6509,2.6489,2.6352,2.4737,2.4118,2.5118,2.417,2.3325,2.2771,2.2395,2.1932,2.1354,2.1322,2.1134,2.0629,2.0332,2.0383,1.9934,1.9258,1.7869,1.5868,1.4088,1.2488,1.0664,0.8306,0.6871,0.6748,0.7049,0.7516,0.8638,1.0097,1.1052,1.0769,1.0579,1.0161,0.946,0.9274,0.9344,0.9364,0.9614,0.9996,1.0498,1.1132,1.1732,1.2344,1.3347,1.4651,1.565,1.6338,1.6438,1.524,1.4669,1.4274,1.4209,1.4101,1.3884,1.3855,1.4057,1.4402,1.4697,1.5604,1.6481,1.7176,1.6971,1.8055,1.8896,1.9597,2.0713,2.0751,1.9874,2.023,2.0093,1.9457,1.9004,1.9243,1.9806,1.891,1.8553,1.875,1.8678,1.8606,1.863,1.8548,1.8495,1.85,1.8577,1.8793,1.9151,1.9295,1.9606,2.0065,2.0061,2.0339,2.091,2.1007,2.1399,2.2082,2.2329,2.2497,2.2699,2.2842,2.2987,2.3205,2.3844,2.4238,2.4444,2.4572,2.539,2.6632,2.7461,2.7917,2.813,2.772,2.7572,2.7492,2.7126,2.6774,2.6402,2.5303,2.4473,2.44,2.4436,2.4066,2.2994,2.2687,2.2243,2.1151,2.1133,2.1023,2.0575,2.1105,2.0946,1.9705,1.9246,1.8029,1.5611,1.454,1.3022,1.0966,0.8971,0.7948,0.7546,0.7726,0.8591,1.0275,1.1108,1.1421,1.1358,1.1264,1.085,1.0091,0.997,0.9939,0.9875,1.0155,1.0643,1.0491,1.0856,1.1382,1.1971,1.2913,1.4196,1.5112,1.5754,1.5469,1.5054,1.4122,1.3731,1.3884,1.3848,1.3601,1.3492,1.3564,1.3775,1.3992,1.4302,1.5207,1.7725,1.7416,1.7669,1.8293,1.9115,1.9633,1.9623,1.9384,1.9477,1.9439,1.9251,1.8972,1.9021,1.9257,1.8839,1.8841,1.9151,1.8896,1.852,1.815,1.8276,1.8118,1.7693,1.7686,1.8108,1.875,1.8884,1.924,1.9836,1.9973,2.0222,2.0632,2.078,2.1228,2.1965,2.2169,2.2368,2.2685,2.2919,2.3298,2.3852,2.4364,2.4986,2.5799,2.5922,2.6443,2.742,2.7691,2.7832,2.7861,2.7537,2.7353,2.7274,2.6624,2.6261,2.6171,2.5139,2.4273,2.3899,2.3754,2.3752,2.3676,2.2677,2.1808,2.1085,2.0991,2.1037,2.1076,2.1398,2.1085,2.0016,1.9175,1.776,1.5458,1.3821,1.2333,1.0459,0.8676,0.7546,0.757,0.8265,0.9436,1.0433,1.1514,1.1988,1.1639,1.1833,1.1569,1.0867,1.0661,1.0724,1.0748,1.0787,1.0839,1.0996,1.0895,1.116,1.1679,1.2507,1.3388,1.4305,1.4954,1.4914,1.5026,1.4049,1.3659,1.3992,1.3819,1.3535,1.3455,1.3492,1.3419,1.3492,1.3977,1.4716,1.7748,1.7373,1.7326,1.7657,1.8248,1.8664,1.8797,1.8749,1.8839,1.9058,1.9245,1.8995,1.9042,1.9355,1.9024,1.9154,1.9561,1.9125,1.8526,1.7904,1.8107,1.7838,1.7248,1.7178,1.7679,1.8514,1.8846,1.9273,1.9759,1.9902,2.0118,2.043,2.0532,2.0975,2.1627,2.1895,2.2285,2.2853,2.3254,2.3849,2.4598,2.5083,2.5698,2.6493,2.6817,2.7182,2.771,2.7698,2.7728,2.7713,2.7444,2.7181,2.6956,2.6279,2.583,2.5698,2.4895,2.4051,2.35,2.3392,2.3554,2.3767,2.2976,2.2006,2.1198,2.0974,2.1128,2.1528,2.2044,2.1848,2.069,1.9627,1.7995,1.5636,1.35,1.1764,1.0393,0.8932,0.8068,0.8075,0.9012,0.9926,1.0546,1.1763,1.2243,1.1965,1.2406,1.229,1.1531,1.1507,1.1452,1.1351,1.1288,1.1139,1.1006,1.0839,1.1024,1.1518,1.2027,1.2864,1.3569,1.4163,1.4601,1.4732,1.4569,1.4201,1.392,1.3746,1.3601,1.3492,1.3346,1.3229,1.3448,1.3768,1.443,1.7033,1.6564,1.7109,1.7107,1.7067,1.8027,1.8313,1.8004,1.8522,1.9,1.9316,1.9083,1.9444,2.0193,1.9404,1.9323,1.979,1.9387,1.8668,1.7969,1.8114,1.7774,1.7036,1.7128,1.7659,1.8519,1.9277,1.9672,1.978,1.983,1.994,2.0118,2.0325,2.0614,2.0942,2.1591,2.2343,2.318,2.3791,2.4514,2.5357,2.5915,2.6289,2.6539,2.7081,2.7462,2.7582,2.7639,2.78,2.7936,2.7728,2.7276,2.6691,2.6189,2.5682,2.5098,2.4583,2.3894,2.3187,2.3629,2.3634,2.326,2.332,2.2918,2.1778,2.1199,2.131,2.2286,2.2902,2.2926,2.1685,2.0641,1.9033,1.6407,1.3864,1.1924,1.0893,0.9953,0.9166,0.9,0.9761,1.0458,1.0804,1.1725,1.2529,1.2652,1.2789,1.2689,1.2158,1.2359,1.2243,1.1591,1.1466,1.1498,1.1076,1.0717,1.1007,1.1326,1.1855,1.2505,1.3226,1.3815,1.4506,1.4685,1.4281,1.3884,1.3404,1.3273,1.3346,1.3273,1.3127,1.3127,1.3375,1.3695,1.4006,1.6869,1.612,1.6262,1.6296,1.622,1.6719,1.6849,1.6937,1.7562,1.8054,1.8344,1.856,1.9082,1.9647,1.9485,1.9722,2.03,2.0152,1.9334,1.8211,1.8457,1.8061,1.7165,1.7044,1.7578,1.8422,1.8926,1.9369,1.969,1.9762,1.9884,2.0025,2.015,2.0429,2.0941,2.1633,2.2377,2.298,2.3804,2.4626,2.5398,2.5809,2.6264,2.6863,2.7245,2.7317,2.71,2.7502,2.7651,2.7485,2.7367,2.7117,2.6657,2.612,2.5668,2.5256,2.4364,2.3767,2.3501,2.3653,2.3631,2.3179,2.3499,2.3225,2.2208,2.1698,2.1956,2.2894,2.317,2.2892,2.2233,2.1121,1.951,1.7398,1.4497,1.2046,1.0674,0.9687,0.937,0.9653,1.0281,1.0856,1.1358,1.2182,1.2621,1.2775,1.295,1.2942,1.2881,1.2889,1.2928,1.239,1.2251,1.1764,1.1375,1.1233,1.1531,1.1965,1.2439,1.2719,1.3284,1.3658,1.4288,1.4325,1.392,1.3557,1.3083,1.2936,1.3046,1.3053,1.2973,1.309,1.3309,1.3521,1.3789,1.6786,1.5846,1.5827,1.5856,1.5914,1.6038,1.6171,1.6363,1.6797,1.7224,1.76,1.8163,1.8765,1.9319,1.9747,2.0144,2.0473,2.0637,1.9791,1.8416,1.865,1.8176,1.7097,1.7276,1.7707,1.835,1.8921,1.9328,1.965,1.9762,1.9866,2.0005,2.036,2.0729,2.1155,2.2027,2.2798,2.3473,2.4358,2.5155,2.5843,2.6219,2.6586,2.6951,2.7052,2.6971,2.6808,2.7208,2.7332,2.718,2.7181,2.7037,2.6691,2.6139,2.5707,2.5316,2.4446,2.3689,2.3638,2.3782,2.3717,2.3427,2.3957,2.3962,2.3101,2.2703,2.3178,2.381,2.4026,2.3734,2.3111,2.1685,2.0064,1.8339,1.5301,1.2554,1.0609,0.9652,0.9486,0.9926,1.0566,1.1178,1.1646,1.2212,1.2621,1.2775,1.2989,1.3224,1.3255,1.3224,1.3042,1.2655,1.1988,1.1697,1.1638,1.1771,1.2086,1.2669,1.3239,1.3469,1.3819,1.3874,1.4209,1.3739,1.3339,1.3266,1.2863,1.279,1.282,1.279,1.2936,1.2863,1.301,1.3156,1.3441,1.6719,1.573,1.5672,1.573,1.5846,1.597,1.6066,1.6095,1.6306,1.6722,1.724,1.7863,1.854,1.9226,1.9875,2.0271,2.0486,2.0612,1.9911,1.89,1.8655,1.8045,1.6961,1.7456,1.7927,1.8257,1.903,1.9505,1.9611,1.9759,1.9881,2.0051,2.0781,2.1278,2.1555,2.256,2.3634,2.4406,2.5262,2.5931,2.6556,2.6921,2.7099,2.6858,2.6741,2.6724,2.6858,2.6889,2.6954,2.7069,2.7117,2.6989,2.6674,2.6192,2.5726,2.5484,2.4513,2.394,2.3739,2.3979,2.4147,2.4069,2.4625,2.4846,2.4012,2.4039,2.438,2.4843,2.4997,2.4853,2.3849,2.2368,2.052,1.8629,1.5408,1.2615,1.0571,0.9996,0.9964,1.0218,1.0881,1.1577,1.1677,1.2274,1.259,1.2775,1.292,1.3125,1.3368,1.3285,1.2936,1.2452,1.188,1.1717,1.1686,1.2153,1.2472,1.2988,1.3651,1.3995,1.4072,1.4017,1.3695,1.3193,1.3045,1.2928,1.2863,1.2783,1.2996,1.3317,1.3178,1.2776,1.2996,1.347,1.3988,1.6567,1.5507,1.5478,1.5507,1.5575,1.572,1.5817,1.5817,1.5972,1.6392,1.6909,1.7196,1.7984,1.8883,1.937,1.9785,2.0233,2.0486,1.9864,1.8765,1.8637,1.7926,1.7003,1.7256,1.7747,1.8145,1.875,1.9213,1.9589,1.9741,1.9866,2.0021,2.0888,2.1371,2.161,2.2909,2.3916,2.4571,2.5143,2.5871,2.6522,2.6314,2.6469,2.7052,2.7036,2.71,2.723,2.6972,2.689,2.7053,2.6907,2.6808,2.6641,2.6033,2.5596,2.5408,2.4883,2.4209,2.3894,2.4251,2.4839,2.5435,2.5266,2.5005,2.4287,2.465,2.4977,2.5059,2.4767,2.4311,2.3747,2.2441,2.0076,1.6546,1.4082,1.2197,1.1384,1.0661,1.0516,1.1421,1.1677,1.1926,1.2274,1.2459,1.2652,1.2775,1.2881,1.3033,1.3307,1.3333,1.2991,1.2514,1.205,1.1894,1.1937,1.243,1.2883,1.333,1.3886,1.4344,1.424,1.3998,1.3368,1.2673,1.3049,1.3107,1.2986,1.29,1.3324,1.379,1.3535,1.328,1.4178,1.4804,1.5306,1.6255,1.542,1.542,1.542,1.541,1.5633,1.5682,1.574,1.5827,1.622,1.6779,1.714,1.7859,1.8804,1.9317,1.9759,2.0195,2.0473,1.9838,1.8652,1.7961,1.7276,1.6837,1.7047,1.751,1.7981,1.8539,1.9049,1.9468,1.9672,1.9797,2.0134,2.1094,2.1723,2.2009,2.3396,2.4506,2.5041,2.5396,2.5921,2.6573,2.647,2.664,2.7147,2.7257,2.7303,2.7243,2.6971,2.6857,2.6891,2.6758,2.6623,2.659,2.5962,2.5577,2.5484,2.5001,2.4639,2.4744,2.4918,2.4954,2.515,2.5075,2.5058,2.4794,2.5064,2.5384,2.5418,2.4938,2.4312,2.3359,2.2006,1.938,1.6249,1.3751,1.248,1.2166,1.1538,1.1452,1.1934,1.2182,1.2305,1.2683,1.2629,1.266,1.2713,1.282,1.3003,1.3194,1.3144,1.2821,1.2156,1.1943,1.1794,1.1832,1.2252,1.2599,1.3114,1.3644,1.4238,1.4188,1.3856,1.3319,1.2839,1.3114,1.3317,1.3327,1.3418,1.3785,1.3997,1.3812,1.3977,1.4705,1.5342,1.5965,1.594,1.542,1.542,1.542,1.5449,1.5575,1.5643,1.5701,1.5875,1.6296,1.6881,1.7501,1.8186,1.891,1.9526,2.0029,2.0195,2.0294,1.9557,1.84,1.7343,1.6572,1.6624,1.6997,1.7434,1.7868,1.8475,1.8974,1.9343,1.9599,1.9726,2.0168,2.1371,2.2224,2.2645,2.394,2.507,2.5584,2.5601,2.5995,2.6556,2.6791,2.6986,2.7224,2.7489,2.7396,2.721,2.6954,2.6858,2.6791,2.6606,2.6554,2.652,2.6031,2.567,2.5481,2.5137,2.523,2.5917,2.5591,2.4863,2.4318,2.4755,2.513,2.5173,2.5478,2.5715,2.5824,2.5596,2.434,2.2451,2.0808,1.8646,1.6063,1.4562,1.3661,1.2931,1.2474,1.2212,1.1996,1.249,1.2652,1.2652,1.259,1.2598,1.266,1.2736,1.2828,1.2771,1.2507,1.1999,1.1283,1.1326,1.1636,1.1807,1.2045,1.2324,1.2682,1.32,1.3659,1.3791,1.3572,1.322,1.3129,1.3547,1.3874,1.4014,1.4156,1.437,1.4494,1.4497,1.4505,1.466,1.5225,1.5816,1.594,1.542,1.542,1.542,1.542,1.5439,1.5478,1.5507,1.6017,1.651,1.7157,1.7859,1.8548,1.9277,1.9565,1.9849,2.0067,1.9747,1.8882,1.7823,1.6948,1.6525,1.6607,1.6968,1.7406,1.7828,1.8364,1.8898,1.9321,1.9541,1.9702,2.0056,2.1371,2.2313,2.2738,2.4038,2.5127,2.5629,2.5567,2.5903,2.6505,2.6573,2.6822,2.7286,2.7716,2.7774,2.755,2.7276,2.7005,2.6758,2.6572,2.6485,2.6468,2.6347,2.5994,2.5556,2.5441,2.5721,2.6331,2.6208,2.5538,2.4456,2.4739,2.5326,2.5696,2.5668,2.5848,2.5846,2.5349,2.3532,2.0656,1.9121,1.7456,1.5584,1.4529,1.4043,1.3761,1.3056,1.262,1.2697,1.2736,1.2744,1.2629,1.259,1.259,1.259,1.2621,1.2652,1.2367,1.1973,1.1195,1.0484,1.0968,1.1291,1.1581,1.1617,1.1526,1.1681,1.2131,1.2469,1.2627,1.2872,1.2408,1.3015,1.4116,1.4348,1.441,1.4741,1.4948,1.5053,1.5254,1.5358,1.551,1.5705,1.6015,1.569,1.541,1.542,1.542,1.542,1.542,1.542,1.5526,1.6054,1.6641,1.7246,1.7902,1.8643,1.9394,1.9551,1.9798,1.9801,1.9129,1.8297,1.7478,1.6798,1.6491,1.6522,1.6786,1.7165,1.776,1.8127,1.8688,1.9232,1.9568,1.9848,2.0391,2.1599,2.2482,2.303,2.419,2.5102,2.561,2.5492,2.5791,2.6539,2.6624,2.692,2.7517,2.7879,2.7879,2.7893,2.7448,2.7211,2.7021,2.6657,2.6398,2.6433,2.6398,2.6154,2.5997,2.5612,2.5959,2.6419,2.6487,2.5961,2.4962,2.4981,2.5227,2.54,2.535,2.5566,2.5694,2.4778,2.2643,1.9443,1.8124,1.6698,1.5478,1.4834,1.4656,1.413,1.3442,1.2978,1.3094,1.2989,1.2805,1.2683,1.256,1.2459,1.2428,1.256,1.2553,1.1914,1.1427,1.0414,1.0003,1.0591,1.1003,1.1286,1.1162,1.0585,1.0527,1.0496,1.0683,1.0775,1.109,1.1393,1.2413,1.3514,1.4499,1.4658,1.5048,1.5485,1.5695,1.5895,1.6203,1.6422,1.6402,1.6807,1.5323,1.542,1.542,1.542,1.542,1.542,1.542,1.5497,1.6065,1.6641,1.723,1.7836,1.8617,1.9277,1.9591,1.9722,1.9384,1.8803,1.7911,1.7082,1.6648,1.6461,1.65,1.6595,1.6985,1.774,1.7948,1.8481,1.9224,1.9671,2.0198,2.0975,2.1942,2.2752,2.3565,2.4331,2.5068,2.5551,2.5435,2.5642,2.647,2.6707,2.7255,2.7789,2.776,2.7672,2.7657,2.7353,2.7148,2.7382,2.6691,2.6364,2.6276,2.6276,2.6293,2.6555,2.5959,2.605,2.6505,2.6573,2.6263,2.5672,2.5294,2.5214,2.5333,2.5179,2.5379,2.5024,2.4146,2.1592,1.916,1.7583,1.6446,1.5488,1.5381,1.503,1.424,1.3662,1.3338,1.3216,1.3011,1.2805,1.2621,1.2467,1.2367,1.2305,1.2436,1.2375,1.1779,1.1268,1.0521,0.9803,1.0336,1.033,1.0553,1.0453,0.9922,0.921,0.9031,0.9031,0.9185,0.9922,1.0575,1.1672,1.2717,1.3748,1.4817,1.5421,1.5802,1.6176,1.6286,1.6346,1.6633,1.6991,1.7513,1.4951,1.542,1.542,1.542,1.542,1.542,1.542,1.5497,1.6083,1.6641,1.7257,1.7968,1.8735,1.9303,1.9656,1.9334,1.8729,1.8154,1.751,1.6653,1.6386,1.6448,1.6414,1.6565,1.7005,1.7585,1.7868,1.8417,1.9359,2.0076,2.0599,2.122,2.239,2.3328,2.3819,2.4406,2.4985,2.5359,2.5336,2.5586,2.5979,2.6539,2.7114,2.7686,2.7504,2.7305,2.7052,2.6807,2.6691,2.6808,2.6573,2.6296,2.6152,2.6168,2.6239,2.6258,2.6169,2.6225,2.6607,2.6674,2.6624,2.6436,2.598,2.5799,2.5839,2.5646,2.5436,2.4706,2.2966,2.0274,1.8448,1.6791,1.5546,1.4872,1.4704,1.4577,1.404,1.3588,1.3224,1.3125,1.2981,1.2736,1.2529,1.2367,1.2336,1.2204,1.2189,1.232,1.2072,1.1792,1.1462,1.0746,1.0169,0.9895,0.9679,0.9475,0.9087,0.7961,0.7587,0.7544,0.7949,0.8936,0.9886,1.131,1.235,1.3359,1.4384,1.5393,1.6063,1.6351,1.6393,1.6416,1.6983,1.7553,1.7683,1.5147,1.542,1.542,1.542,1.542,1.542,1.5449,1.5681,1.6454,1.709,1.7672,1.8483,1.9146,1.9512,1.9798,1.9246,1.827,1.7605,1.6958,1.6264,1.6392,1.6479,1.6457,1.6629,1.7152,1.7625,1.7848,1.8364,1.9379,2.0236,2.096,2.1789,2.2914,2.3733,2.4229,2.4673,2.5005,2.5182,2.5278,2.5432,2.5701,2.6297,2.6841,2.7241,2.7211,2.702,2.7019,2.6724,2.6724,2.6858,2.6791,2.6573,2.6383,2.6206,2.6185,2.6203,2.6203,2.6346,2.664,2.6691,2.6573,2.6263,2.5998,2.5801,2.5707,2.5438,2.5156,2.4069,2.2754,2.014,1.8151,1.6098,1.4832,1.4497,1.4455,1.4357,1.41,1.3739,1.3489,1.3216,1.3011,1.2736,1.2336,1.2251,1.2258,1.2165,1.2024,1.2104,1.2253,1.1481,1.1019,1.0582,0.9733,0.9614,0.915,0.8685,0.8371,0.728,0.6479,0.6437,0.6909,0.8009,0.969,1.1437,1.2332,1.3108,1.3961,1.4942,1.5702,1.647,1.6658,1.696,1.7596,1.8056,1.8157,1.5294,1.542,1.542,1.542,1.541,1.5546,1.57,1.6085,1.7,1.7617,1.8081,1.8951,1.95,1.9657,1.9598,1.9095,1.7852,1.7146,1.6569,1.6142,1.6315,1.6466,1.6595,1.6774,1.7214,1.7928,1.7888,1.8403,1.9445,2.052,2.1402,2.2256,2.3277,2.419,2.4756,2.4918,2.5064,2.5182,2.5278,2.547,2.5828,2.6117,2.6521,2.7067,2.6825,2.6758,2.6873,2.6641,2.6691,2.6791,2.6775,2.6691,2.6725,2.6434,2.6221,2.6256,2.6238,2.6399,2.6607,2.6708,2.6556,2.6263,2.5926,2.5746,2.5535,2.5266,2.4559,2.3326,2.1791,2.0151,1.7924,1.5619,1.4444,1.4189,1.4297,1.4348,1.4228,1.4031,1.3962,1.3631,1.3216,1.2775,1.2359,1.2146,1.2142,1.2287,1.2176,1.2242,1.2073,1.011,0.9485,0.9453,0.9198,0.9193,0.877,0.8008,0.7587,0.6868,0.6135,0.5822,0.6387,0.7192,0.9152,1.1089,1.2164,1.2902,1.3692,1.4532,1.5453,1.6259,1.6824,1.7426,1.7948,1.8311,1.8492,1.4913,1.542,1.541,1.542,1.5526,1.5968,1.633,1.6659,1.7341,1.8031,1.8715,1.9071,1.954,1.9711,1.9358,1.8503,1.7576,1.6995,1.6485,1.5983,1.6141,1.6423,1.6637,1.6488,1.7305,1.8048,1.8068,1.8539,1.9629,2.1004,2.1835,2.249,2.3756,2.4788,2.4962,2.5033,2.5204,2.5339,2.5394,2.5698,2.6173,2.6295,2.6504,2.6624,2.6556,2.6383,2.6469,2.633,2.64,2.6641,2.6278,2.6418,2.6874,2.6537,2.638,2.6362,2.6345,2.6363,2.6624,2.6691,2.6674,2.6505,2.6419,2.6333,2.57,2.5234,2.4544,2.3585,2.151,1.9516,1.7705,1.5425,1.4327,1.3851,1.3769,1.383,1.389,1.4627,1.4519,1.4105,1.3709,1.2977,1.2398,1.2206,1.2071,1.2214,1.2332,1.2428,1.1882,1.0011,0.877,0.8894,0.8856,0.8856,0.8623,0.7859,0.7437,0.6718,0.6138,0.5592,0.5918,0.6835,0.8678,1.0424,1.1577,1.2719,1.3541,1.4414,1.5292,1.6196,1.7055,1.7669,1.8188,1.8519,1.8843,1.5177,1.5439,1.5777,1.594,1.6093,1.668,1.7079,1.7457,1.8047,1.8608,1.9123,1.9683,1.9889,1.9582,1.8637,1.7804,1.7272,1.6816,1.6357,1.6127,1.6262,1.65,1.6586,1.6913,1.7646,1.7954,1.8386,1.9069,2.0144,2.1258,2.2156,2.2562,2.3944,2.4934,2.5107,2.5091,2.5185,2.5378,2.5642,2.5959,2.6261,2.6434,2.6538,2.6691,2.6435,2.6347,2.6329,2.6328,2.6312,2.6418,2.6081,2.6099,2.6348,2.6064,2.5719,2.5921,2.6226,2.6452,2.6623,2.6657,2.6691,2.659,2.635,2.5709,2.4925,2.4499,2.4163,2.3304,2.103,1.9137,1.7441,1.5182,1.4232,1.3644,1.3155,1.3246,1.361,1.4765,1.5098,1.4641,1.4191,1.3518,1.2955,1.2733,1.256,1.2376,1.2456,1.2523,1.179,1.0322,0.9334,0.8818,0.8703,0.8551,0.8322,0.7863,0.7931,0.7361,0.6714,0.6173,0.5679,0.6585,0.8602,1.0176,1.1457,1.2492,1.3397,1.4143,1.4895,1.6117,1.74,1.7823,1.8276,1.8802,1.9085,1.5565,1.5719,1.6169,1.65,1.6838,1.7407,1.7863,1.8259,1.89,1.9345,1.9632,2.0029,1.9867,1.9175,1.804,1.7328,1.708,1.6504,1.63,1.6371,1.6513,1.6663,1.6871,1.7359,1.7686,1.8048,1.8486,1.9368,2.0571,2.1637,2.2328,2.2643,2.4233,2.4965,2.5146,2.5204,2.5262,2.5429,2.5756,2.5977,2.6119,2.6313,2.6434,2.6452,2.6383,2.633,2.645,2.6468,2.6434,2.6364,2.6222,2.6133,2.5952,2.5772,2.5365,2.55,2.5797,2.6384,2.6555,2.6674,2.6708,2.6487,2.5946,2.5112,2.4051,2.3616,2.3269,2.2737,2.0468,1.8703,1.7094,1.4894,1.3873,1.3073,1.2421,1.2574,1.3056,1.4451,1.5371,1.5145,1.4726,1.435,1.3852,1.3469,1.312,1.2709,1.26,1.26,1.1507,1.0158,0.9448,0.8742,0.8742,0.8513,0.8174,0.7983,0.805,0.8118,0.751,0.6942,0.656,0.7169,0.8856,1.0207,1.1558,1.2324,1.3245,1.3864,1.4486,1.576,1.6951,1.7725,1.8321,1.8882,1.9167,1.597,1.6436,1.6492,1.6933,1.7578,1.819,1.8647,1.9044,1.963,2.008,2.023,1.9928,1.9274,1.8565,1.7829,1.7081,1.6514,1.6396,1.6457,1.65,1.65,1.682,1.7144,1.7475,1.7821,1.8544,1.8917,1.9681,2.0824,2.1865,2.267,2.3503,2.4563,2.5028,2.5298,2.5397,2.5451,2.5584,2.5811,2.5885,2.5921,2.6012,2.6152,2.6188,2.6242,2.6313,2.6347,2.6416,2.6468,2.6451,2.6293,2.6133,2.5824,2.568,2.5362,2.5137,2.5484,2.6016,2.621,2.6539,2.6708,2.6351,2.566,2.4614,2.3507,2.2615,2.2226,2.1855,1.9772,1.8008,1.6405,1.4843,1.3772,1.2834,1.2328,1.2421,1.3139,1.451,1.5293,1.542,1.517,1.4723,1.4363,1.39,1.3577,1.3164,1.2374,1.2335,1.0941,0.9666,0.9132,0.8665,0.8775,0.8589,0.8178,0.8289,0.8917,0.9064,0.8718,0.8114,0.7548,0.8533,0.9399,1.0907,1.2238,1.2693,1.3015,1.3467,1.4179,1.5441,1.6536,1.7464,1.8201,1.8731,1.8967,1.6803,1.7727,1.7825,1.8015,1.8328,1.9018,1.9436,1.9708,2.0105,2.0153,2.0014,1.9285,1.8613,1.7948,1.728,1.6791,1.6491,1.6479,1.6509,1.6488,1.6543,1.6829,1.7269,1.774,1.8127,1.8793,1.9232,2.0232,2.1664,2.2262,2.3266,2.4182,2.4886,2.5137,2.5359,2.5645,2.5735,2.577,2.6028,2.6243,2.6118,2.6173,2.6313,2.6452,2.6381,2.6468,2.6452,2.633,2.6383,2.6349,2.6137,2.5992,2.5862,2.5717,2.5362,2.4997,2.5406,2.5446,2.5596,2.6104,2.6691,2.6436,2.5496,2.4164,2.2844,2.1735,2.1248,2.0451,1.9275,1.7637,1.6758,1.5284,1.3947,1.2927,1.2428,1.2451,1.3199,1.454,1.5505,1.573,1.5368,1.493,1.4571,1.4246,1.3932,1.3572,1.2742,1.1863,1.0691,0.9731,0.9337,0.9226,0.9372,0.9599,0.9231,0.9523,0.9933,0.9927,0.9884,0.9658,0.9243,0.9102,1.0083,1.1626,1.2746,1.3083,1.3258,1.3182,1.4029,1.5625,1.6631,1.7363,1.8004,1.8578,1.8583,1.7534,1.854,1.8727,1.8924,1.9135,1.9605,1.9952,2.0156,2.0322,2.0124,1.9566,1.8892,1.8224,1.7562,1.6863,1.6547,1.6513,1.65,1.6586,1.6586,1.6629,1.6829,1.7297,1.7808,1.8311,1.8936,1.9894,2.0968,2.2219,2.268,2.3742,2.4664,2.5185,2.5339,2.5682,2.5997,2.6119,2.601,2.6207,2.6418,2.6171,2.6242,2.6348,2.6503,2.6486,2.6554,2.6537,2.6452,2.6366,2.6297,2.6157,2.6103,2.5994,2.5775,2.5384,2.5272,2.5157,2.4879,2.4977,2.5481,2.6453,2.6487,2.5141,2.3524,2.2101,2.1266,2.094,2.0118,1.8891,1.7736,1.6934,1.5324,1.4312,1.34,1.2828,1.2803,1.3411,1.4488,1.5396,1.6065,1.5697,1.5495,1.5497,1.5182,1.4201,1.3834,1.3137,1.2343,1.1435,1.0608,1.0078,1.0088,1.0265,1.0496,1.0651,1.0789,1.0932,1.1193,1.123,1.1607,1.1347,1.0938,1.087,1.2114,1.3003,1.3433,1.3674,1.382,1.4776,1.6062,1.683,1.7532,1.8036,1.8498,1.8086,1.8081,1.8688,1.8922,1.9382,1.9862,1.9824,2.008,2.036,2.0309,2.0037,1.9566,1.8915,1.8259,1.7584,1.6869,1.659,1.6534,1.6543,1.6693,1.6863,1.6714,1.6934,1.7482,1.8034,1.8615,1.9051,2.015,2.1486,2.2704,2.328,2.43,2.5061,2.5419,2.557,2.5995,2.647,2.647,2.6175,2.6262,2.6156,2.603,2.6134,2.6257,2.6364,2.6469,2.6572,2.6589,2.647,2.6332,2.6139,2.6297,2.6209,2.5944,2.5832,2.5513,2.5201,2.4875,2.4775,2.497,2.5329,2.5744,2.6158,2.4847,2.339,2.2641,2.1746,2.0702,1.9873,1.8753,1.7456,1.6317,1.5265,1.4602,1.4107,1.3549,1.3312,1.3914,1.5231,1.6317,1.6502,1.6354,1.6328,1.6439,1.6183,1.4833,1.4012,1.3457,1.2746,1.1952,1.1632,1.1167,1.0875,1.1087,1.1428,1.165,1.1755,1.1933,1.2228,1.2492,1.2689,1.2806,1.2439,1.2556,1.3119,1.3934,1.4931,1.4788,1.4545,1.5627,1.6634,1.7105,1.7703,1.8161,1.8238,1.7767,1.8617,1.9186,1.9422,1.972,1.999,2.0054,2.0156,2.0322,2.0409,2.0211,1.9662,1.9022,1.8374,1.7683,1.7084,1.6671,1.6543,1.6727,1.6918,1.6833,1.6769,1.7352,1.7868,1.8361,1.9061,2.0176,2.1222,2.2214,2.3569,2.3907,2.449,2.5201,2.5663,2.5793,2.6012,2.6419,2.6757,2.6333,2.6419,2.6505,2.6263,2.6224,2.6273,2.638,2.6486,2.6538,2.6572,2.6401,2.6122,2.5979,2.6156,2.5961,2.5744,2.5629,2.5772,2.547,2.5166,2.4791,2.4553,2.4446,2.45,2.4808,2.4558,2.3395,2.2979,2.1329,2.0377,1.9576,1.8453,1.7248,1.6362,1.5547,1.495,1.4813,1.4394,1.4076,1.4616,1.6493,1.7701,1.7053,1.6691,1.6445,1.6451,1.6009,1.4893,1.412,1.3513,1.2988,1.226,1.2583,1.2482,1.1953,1.1872,1.2321,1.2615,1.2865,1.3142,1.3469,1.352,1.3506,1.355,1.3586,1.4502,1.5136,1.5851,1.6464,1.6097,1.5877,1.6437,1.7123,1.752,1.7806,1.8145,1.7908,1.7238,1.9095,1.9539,1.9734,1.9862,1.9926,2.0029,2.0105,2.0233,2.0523,2.0255,1.9465,1.8942,1.8267,1.7569,1.7102,1.6791,1.6599,1.6769,1.6825,1.674,1.6846,1.7365,1.7929,1.8672,1.9571,2.0862,2.1923,2.2889,2.3938,2.4309,2.4843,2.5433,2.5885,2.5866,2.6049,2.6505,2.6988,2.6657,2.6708,2.6758,2.6556,2.6435,2.638,2.6451,2.6469,2.6384,2.6333,2.6104,2.5762,2.576,2.5779,2.5647,2.5535,2.561,2.5791,2.5511,2.5088,2.4553,2.4,2.3752,2.3918,2.4277,2.3756,2.3157,2.2744,2.1798,2.0908,1.9876,1.8289,1.7414,1.6744,1.5941,1.5546,1.542,1.5255,1.4904,1.5691,1.7539,1.8137,1.7491,1.7056,1.6759,1.6206,1.5535,1.4793,1.4169,1.3622,1.31,1.264,1.2927,1.3273,1.2893,1.2696,1.3135,1.3608,1.4078,1.4358,1.4716,1.4653,1.451,1.4474,1.4573,1.5877,1.7001,1.7182,1.7295,1.7217,1.7285,1.7423,1.7569,1.7784,1.8027,1.8155,1.7732,1.7125,1.9591,1.9798,1.9824,1.9863,1.9825,1.9787,1.9915,2.0194,2.0561,2.0023,1.8903,1.8926,1.827,1.7231,1.6956,1.6825,1.674,1.6833,1.6825,1.6803,1.6876,1.737,1.8106,1.9003,2.0045,2.1156,2.2306,2.3415,2.4169,2.4745,2.5262,2.5567,2.5885,2.585,2.6068,2.6573,2.6954,2.6873,2.6906,2.6939,2.6791,2.6589,2.652,2.6503,2.6348,2.6192,2.6016,2.5707,2.5519,2.5594,2.5886,2.5629,2.5497,2.5535,2.5343,2.4954,2.441,2.373,2.345,2.3297,2.3209,2.3363,2.3125,2.2277,2.1974,2.2061,2.1353,2.0303,1.8946,1.8081,1.7238,1.6697,1.6163,1.6056,1.595,1.6255,1.6961,1.7794,1.8167,1.7963,1.7607,1.7101,1.6144,1.5399,1.5041,1.4123,1.3631,1.3362,1.2965,1.2916,1.3273,1.3528,1.3513,1.3949,1.4418,1.4705,1.5081,1.5242,1.5631,1.5596,1.5561,1.5666,1.6611,1.7457,1.791,1.7988,1.7638,1.7716,1.7988,1.8134,1.8032,1.8071,1.8119,1.7833,1.7243,2.0169,2.0296,2.0733,2.0473,1.9693,1.9457,1.947,1.9731,2.0453,2.0364,1.9633,1.9186,1.8401,1.777,1.731,1.6944,1.6854,1.6854,1.6897,1.691,1.6982,1.7684,1.8481,1.9429,2.0558,2.1844,2.3042,2.3994,2.4648,2.524,2.5432,2.5619,2.5775,2.574,2.6052,2.6607,2.6839,2.7003,2.7101,2.7133,2.7005,2.6742,2.6674,2.6503,2.6191,2.6052,2.5908,2.5237,2.504,2.5288,2.5516,2.5346,2.5009,2.5033,2.4823,2.3706,2.2958,2.2351,2.2717,2.2305,2.2156,2.2557,2.2464,2.2481,2.2177,2.1889,2.1485,2.0446,1.9359,1.8386,1.7623,1.7043,1.6751,1.6645,1.6662,1.7084,1.7761,1.8334,1.8686,1.8462,1.8087,1.7422,1.6426,1.5909,1.5478,1.4343,1.3672,1.3473,1.3253,1.3176,1.3411,1.3739,1.392,1.4238,1.4589,1.4911,1.5392,1.5807,1.6298,1.6749,1.6819,1.7026,1.7482,1.7935,1.8351,1.8226,1.7862,1.8066,1.8395,1.8178,1.811,1.811,1.8042,1.7876,1.7805,2.0447,2.056,2.114,2.0551,1.9346,1.9186,1.9012,1.8843,1.9897,2.0129,1.9525,1.8933,1.8279,1.7489,1.6999,1.6701,1.6565,1.6552,1.6637,1.6871,1.7166,1.793,1.8809,1.9852,2.1108,2.2369,2.3376,2.416,2.4867,2.5243,2.547,2.564,2.5701,2.5756,2.6013,2.6488,2.6823,2.6987,2.7116,2.7258,2.7149,2.6875,2.6674,2.6555,2.6157,2.598,2.5817,2.4962,2.4799,2.5075,2.5326,2.5173,2.4675,2.4379,2.4012,2.3054,2.2663,2.2203,2.218,2.1959,2.1912,2.191,2.1735,2.1516,2.1758,2.1681,2.1186,2.0432,1.946,1.8578,1.7929,1.7363,1.7307,1.7251,1.7501,1.7749,1.8387,1.9034,1.905,1.8897,1.8397,1.7785,1.7161,1.6643,1.5863,1.4738,1.4079,1.3851,1.3558,1.3302,1.3659,1.4122,1.4194,1.4374,1.4804,1.5436,1.6062,1.6715,1.7429,1.7779,1.7959,1.823,1.8566,1.871,1.8821,1.863,1.8395,1.8529,1.8721,1.8472,1.8221,1.8129,1.8232,1.8342,1.8347,2.0587,2.0671,2.1067,2.0341,1.8931,1.9015,1.8387,1.7449,1.8872,1.9272,1.8725,1.8336,1.7661,1.6913,1.6509,1.6367,1.6238,1.6204,1.638,1.6692,1.7419,1.8144,1.9054,2.0197,2.1332,2.2458,2.3455,2.4256,2.4902,2.5278,2.5473,2.5682,2.5738,2.5793,2.6012,2.6487,2.6774,2.689,2.7084,2.7258,2.723,2.6974,2.6623,2.6607,2.6245,2.5854,2.5556,2.5134,2.4695,2.5056,2.5157,2.5001,2.4266,2.3543,2.3031,2.2731,2.2402,2.2053,2.1769,2.1616,2.1482,2.1264,2.0785,2.0679,2.0913,2.1419,2.1043,2.045,1.9525,1.8992,1.8405,1.7929,1.7749,1.7749,1.7886,1.8023,1.8304,1.8924,1.9268,1.907,1.8752,1.809,1.7215,1.6643,1.6298,1.5139,1.4864,1.4661,1.4194,1.3796,1.4078,1.4645,1.4859,1.5108,1.5772,1.6411,1.6966,1.7619,1.824,1.871,1.8754,1.911,1.9573,1.9507,1.9386,1.9243,1.911,1.921,1.9131,1.8771,1.8512,1.8241,1.8305,1.8595,1.8354,2.1342,2.0864,2.0442,2.0093,1.9804,1.8695,1.7935,1.7446,1.7543,1.7745,1.7798,1.7933,1.7479,1.639,1.6216,1.6051,1.5788,1.5788,1.6032,1.6507,1.7251,1.819,1.9115,2.0211,2.1363,2.2369,2.3347,2.4333,2.497,2.5278,2.5451,2.5682,2.5791,2.5899,2.6045,2.6504,2.6741,2.6775,2.7005,2.7149,2.7152,2.704,2.6826,2.6691,2.6366,2.5979,2.5575,2.4977,2.4755,2.4871,2.4795,2.4338,2.3565,2.286,2.248,2.231,2.203,2.1698,2.1506,2.1399,2.124,2.1142,2.0797,2.0346,2.0361,2.0899,2.0886,2.0284,1.9785,1.9345,1.8912,1.8471,1.8186,1.8213,1.8251,1.8275,1.8294,1.8891,1.9444,1.9252,1.901,1.8267,1.7389,1.6821,1.6429,1.6289,1.6333,1.6114,1.5365,1.4939,1.4974,1.5428,1.571,1.6097,1.6759,1.707,1.7457,1.7842,1.8327,1.8875,1.944,2.0172,2.0677,2.0193,1.9901,1.9835,1.9802,1.9835,1.966,1.9196,1.9212,1.9124,1.8755,1.886,1.8277,2.2091,2.1602,2.0402,2.0098,2.0055,1.8621,1.7594,1.7096,1.6993,1.6701,1.6336,1.6769,1.6654,1.5814,1.5734,1.5589,1.5243,1.5232,1.5611,1.6178,1.7027,1.8028,1.9089,2.012,2.1197,2.2216,2.3391,2.4354,2.497,2.5294,2.5451,2.5735,2.5881,2.5989,2.6133,2.6469,2.6674,2.6657,2.6908,2.699,2.7023,2.6942,2.6792,2.664,2.6521,2.6156,2.5387,2.4759,2.441,2.4162,2.3943,2.3715,2.3106,2.2512,2.2133,2.1959,2.1746,2.1458,2.1337,2.1204,2.1033,2.0885,2.0686,2.0182,1.9927,2.0374,2.0207,1.9695,1.9837,1.9475,1.9083,1.8658,1.8682,1.8747,1.8747,1.8763,1.9321,2.0059,2.0102,1.9758,1.9377,1.8736,1.7959,1.7364,1.7019,1.6821,1.7003,1.6691,1.6114,1.6035,1.6105,1.6175,1.6455,1.7035,1.7765,1.7799,1.7706,1.809,1.8516,1.8841,1.9429,2.0944,2.1733,2.1008,2.056,2.0549,2.0549,2.0516,2.0042,1.9517,1.9811,2.0173,1.9712,1.9248,1.8657,2.2875,2.2547,2.1005,2.031,2.0169,1.8781,1.7521,1.6668,1.6746,1.6137,1.5209,1.56,1.5448,1.5198,1.5085,1.4823,1.4809,1.5159,1.5493,1.5925,1.6833,1.7812,1.8796,1.9811,2.1016,2.2216,2.3384,2.409,2.4664,2.5107,2.5543,2.5842,2.5952,2.599,2.6205,2.6364,2.652,2.6623,2.6759,2.6842,2.6876,2.6876,2.6742,2.6691,2.6607,2.6314,2.531,2.4456,2.3915,2.3551,2.3231,2.295,2.2657,2.218,2.1912,2.1664,2.1544,2.1423,2.135,2.1131,2.0835,2.0548,2.0309,2.0131,1.9875,1.9721,1.9592,1.9462,1.9592,1.9436,1.9004,1.8881,1.8958,1.886,1.8856,1.9282,2.0134,2.0896,2.0642,2.0213,1.9628,1.9046,1.8556,1.7969,1.7579,1.7382,1.7072,1.6682,1.6508,1.6855,1.7063,1.7019,1.7088,1.7808,1.8573,1.8496,1.8148,1.8563,1.8985,1.9008,1.9231,2.0031,2.0837,2.1526,2.1167,2.0965,2.106,2.1092,2.056,2.0151,2.0852,2.1348,2.0646,2.0109,1.9321,2.3765,2.3283,2.2518,2.1549,2.0359,1.9517,1.8211,1.6689,1.6231,1.5849,1.5477,1.5064,1.4885,1.4604,1.5145,1.5047,1.4629,1.5085,1.5322,1.5618,1.6836,1.7713,1.8607,1.9699,2.1035,2.2184,2.3165,2.3843,2.4323,2.5052,2.5619,2.5789,2.5936,2.6063,2.6259,2.6416,2.652,2.6606,2.6708,2.6809,2.6708,2.6725,2.6825,2.6657,2.6349,2.5779,2.4965,2.4095,2.3687,2.3297,2.283,2.2489,2.2226,2.1888,2.1568,2.1423,2.1326,2.1277,2.118,2.1021,2.0686,2.022,2.0042,2.008,1.9914,1.9798,1.9514,1.9054,1.9028,1.8792,1.8521,1.8657,1.8693,1.8237,1.8052,1.9372,2.0488,2.0938,2.1028,2.0484,1.9835,1.9398,1.9,1.8375,1.7716,1.752,1.722,1.6899,1.6968,1.7461,1.7906,1.7794,1.7681,1.8168,1.8717,1.8831,1.8731,1.9142,1.9341,1.9308,1.9031,1.8506,1.9187,2.0226,2.0976,2.1028,2.1219,2.1489,2.1646,2.1499,2.2279,2.2571,2.1716,2.0725,1.9711]}]]